<?xml version="1.0" encoding="UTF-8" standalone="no" ?>
<gpx xmlns="http://www.topografix.com/GPX/1/1" xmlns:xsi="http://www.w3.org/2001/XMLSchema-instance" xsi:schemaLocation="http://www.topografix.com/GPX/1/1 http://www.topografix.com/GPX/1/1/gpx.xsd" version="1.1" creator="VisuGPX - https://www.visugpx.com">
  <metadata>
    <name>1ère Dominicale du LTPB - Sortie plaisir ✊🏻🏃🏼‍♀️👌🏻🏃🏼👍🏻</name>
  </metadata>
  <trk>
    <name><![CDATA[1ère Dominicale du LTPB - Sortie plaisir ✊🏻🏃🏼‍♀️👌🏻🏃🏼👍🏻]]></name>
    <extensions>
      <line xmlns="http://www.topografix.com/GPX/gpx_style/0/2">
        <color>0000FF</color>
        <width>4</width>
      </line>
    </extensions>
    <trkseg>
      <trkpt lat="45.91569" lon="4.70702">
        <ele>192.04</ele>
        <time>2025-09-15T12:31:54.765Z</time>
      </trkpt>
      <trkpt lat="45.91566" lon="4.70717">
        <ele>191.41</ele>
        <time>2025-09-15T12:31:55.129Z</time>
      </trkpt>
      <trkpt lat="45.91565" lon="4.70721">
        <ele>190.81</ele>
        <time>2025-09-15T12:31:55.494Z</time>
      </trkpt>
      <trkpt lat="45.91557" lon="4.70748">
        <ele>190.19</ele>
        <time>2025-09-15T12:31:55.868Z</time>
      </trkpt>
      <trkpt lat="45.91555" lon="4.70756">
        <ele>189.64</ele>
        <time>2025-09-15T12:31:56.245Z</time>
      </trkpt>
      <trkpt lat="45.91596" lon="4.70839">
        <ele>187.41</ele>
        <time>2025-09-15T12:31:58.242Z</time>
      </trkpt>
      <trkpt lat="45.91597" lon="4.70842">
        <ele>187.1</ele>
        <time>2025-09-15T12:31:58.669Z</time>
      </trkpt>
      <trkpt lat="45.91599" lon="4.70845">
        <ele>186.83</ele>
        <time>2025-09-15T12:31:59.098Z</time>
      </trkpt>
      <trkpt lat="45.916" lon="4.70849">
        <ele>186.6</ele>
        <time>2025-09-15T12:31:59.528Z</time>
      </trkpt>
      <trkpt lat="45.91601" lon="4.70853">
        <ele>186.41</ele>
        <time>2025-09-15T12:31:59.959Z</time>
      </trkpt>
      <trkpt lat="45.91604" lon="4.70861">
        <ele>186.25</ele>
        <time>2025-09-15T12:32:00.393Z</time>
      </trkpt>
      <trkpt lat="45.91605" lon="4.70868">
        <ele>186.13</ele>
        <time>2025-09-15T12:32:00.829Z</time>
      </trkpt>
      <trkpt lat="45.91607" lon="4.70875">
        <ele>186.03</ele>
        <time>2025-09-15T12:32:01.267Z</time>
      </trkpt>
      <trkpt lat="45.9161" lon="4.70884">
        <ele>185.97</ele>
        <time>2025-09-15T12:32:01.709Z</time>
      </trkpt>
      <trkpt lat="45.91611" lon="4.70888">
        <ele>185.94</ele>
        <time>2025-09-15T12:32:02.152Z</time>
      </trkpt>
      <trkpt lat="45.91618" lon="4.70907">
        <ele>185.92</ele>
        <time>2025-09-15T12:32:02.601Z</time>
      </trkpt>
      <trkpt lat="45.9162" lon="4.70909">
        <ele>185.93</ele>
        <time>2025-09-15T12:32:03.051Z</time>
      </trkpt>
      <trkpt lat="45.91623" lon="4.70911">
        <ele>185.96</ele>
        <time>2025-09-15T12:32:03.503Z</time>
      </trkpt>
      <trkpt lat="45.91626" lon="4.70909">
        <ele>186.01</ele>
        <time>2025-09-15T12:32:03.956Z</time>
      </trkpt>
      <trkpt lat="45.91628" lon="4.70906">
        <ele>186.07</ele>
        <time>2025-09-15T12:32:04.411Z</time>
      </trkpt>
      <trkpt lat="45.91629" lon="4.70901">
        <ele>186.13</ele>
        <time>2025-09-15T12:32:04.867Z</time>
      </trkpt>
      <trkpt lat="45.91628" lon="4.70894">
        <ele>186.21</ele>
        <time>2025-09-15T12:32:05.325Z</time>
      </trkpt>
      <trkpt lat="45.91627" lon="4.70892">
        <ele>186.28</ele>
        <time>2025-09-15T12:32:05.784Z</time>
      </trkpt>
      <trkpt lat="45.91625" lon="4.70891">
        <ele>186.37</ele>
        <time>2025-09-15T12:32:06.244Z</time>
      </trkpt>
      <trkpt lat="45.91624" lon="4.70885">
        <ele>186.45</ele>
        <time>2025-09-15T12:32:06.706Z</time>
      </trkpt>
      <trkpt lat="45.9162" lon="4.70873">
        <ele>186.54</ele>
        <time>2025-09-15T12:32:07.172Z</time>
      </trkpt>
      <trkpt lat="45.9162" lon="4.70869">
        <ele>186.63</ele>
        <time>2025-09-15T12:32:07.639Z</time>
      </trkpt>
      <trkpt lat="45.91622" lon="4.70868">
        <ele>186.72</ele>
        <time>2025-09-15T12:32:08.107Z</time>
      </trkpt>
      <trkpt lat="45.91626" lon="4.70868">
        <ele>186.82</ele>
        <time>2025-09-15T12:32:08.577Z</time>
      </trkpt>
      <trkpt lat="45.91633" lon="4.70879">
        <ele>186.92</ele>
        <time>2025-09-15T12:32:09.051Z</time>
      </trkpt>
      <trkpt lat="45.91635" lon="4.70884">
        <ele>187</ele>
        <time>2025-09-15T12:32:09.527Z</time>
      </trkpt>
      <trkpt lat="45.91639" lon="4.70895">
        <ele>187.09</ele>
        <time>2025-09-15T12:32:10.007Z</time>
      </trkpt>
      <trkpt lat="45.91643" lon="4.70915">
        <ele>187.17</ele>
        <time>2025-09-15T12:32:10.493Z</time>
      </trkpt>
      <trkpt lat="45.91645" lon="4.70921">
        <ele>187.25</ele>
        <time>2025-09-15T12:32:10.981Z</time>
      </trkpt>
      <trkpt lat="45.91647" lon="4.7092">
        <ele>187.32</ele>
        <time>2025-09-15T12:32:11.470Z</time>
      </trkpt>
      <trkpt lat="45.91647" lon="4.70908">
        <ele>187.38</ele>
        <time>2025-09-15T12:32:11.963Z</time>
      </trkpt>
      <trkpt lat="45.91641" lon="4.70882">
        <ele>187.42</ele>
        <time>2025-09-15T12:32:12.464Z</time>
      </trkpt>
      <trkpt lat="45.9164" lon="4.70878">
        <ele>187.46</ele>
        <time>2025-09-15T12:32:12.966Z</time>
      </trkpt>
      <trkpt lat="45.9163" lon="4.70864">
        <ele>187.49</ele>
        <time>2025-09-15T12:32:13.474Z</time>
      </trkpt>
      <trkpt lat="45.91628" lon="4.70863">
        <ele>187.53</ele>
        <time>2025-09-15T12:32:13.983Z</time>
      </trkpt>
      <trkpt lat="45.91612" lon="4.70852">
        <ele>187.57</ele>
        <time>2025-09-15T12:32:14.500Z</time>
      </trkpt>
      <trkpt lat="45.91597" lon="4.70835">
        <ele>187.6</ele>
        <time>2025-09-15T12:32:15.026Z</time>
      </trkpt>
      <trkpt lat="45.91597" lon="4.70833">
        <ele>187.64</ele>
        <time>2025-09-15T12:32:15.552Z</time>
      </trkpt>
      <trkpt lat="45.916" lon="4.70833">
        <ele>187.69</ele>
        <time>2025-09-15T12:32:16.080Z</time>
      </trkpt>
      <trkpt lat="45.91602" lon="4.70834">
        <ele>187.73</ele>
        <time>2025-09-15T12:32:16.609Z</time>
      </trkpt>
      <trkpt lat="45.91612" lon="4.70837">
        <ele>187.79</ele>
        <time>2025-09-15T12:32:17.142Z</time>
      </trkpt>
      <trkpt lat="45.9163" lon="4.70844">
        <ele>187.86</ele>
        <time>2025-09-15T12:32:17.683Z</time>
      </trkpt>
      <trkpt lat="45.91635" lon="4.70846">
        <ele>187.9</ele>
        <time>2025-09-15T12:32:18.227Z</time>
      </trkpt>
      <trkpt lat="45.91637" lon="4.70848">
        <ele>187.95</ele>
        <time>2025-09-15T12:32:18.772Z</time>
      </trkpt>
      <trkpt lat="45.91642" lon="4.70859">
        <ele>187.99</ele>
        <time>2025-09-15T12:32:19.321Z</time>
      </trkpt>
      <trkpt lat="45.91645" lon="4.70862">
        <ele>188.03</ele>
        <time>2025-09-15T12:32:19.871Z</time>
      </trkpt>
      <trkpt lat="45.91647" lon="4.7086">
        <ele>188.08</ele>
        <time>2025-09-15T12:32:20.422Z</time>
      </trkpt>
      <trkpt lat="45.9165" lon="4.70854">
        <ele>188.13</ele>
        <time>2025-09-15T12:32:20.976Z</time>
      </trkpt>
      <trkpt lat="45.91654" lon="4.70854">
        <ele>188.18</ele>
        <time>2025-09-15T12:32:21.531Z</time>
      </trkpt>
      <trkpt lat="45.91654" lon="4.70863">
        <ele>188.23</ele>
        <time>2025-09-15T12:32:22.089Z</time>
      </trkpt>
      <trkpt lat="45.91655" lon="4.70883">
        <ele>188.28</ele>
        <time>2025-09-15T12:32:22.653Z</time>
      </trkpt>
      <trkpt lat="45.91657" lon="4.70884">
        <ele>188.33</ele>
        <time>2025-09-15T12:32:23.218Z</time>
      </trkpt>
      <trkpt lat="45.91658" lon="4.70883">
        <ele>188.38</ele>
        <time>2025-09-15T12:32:23.783Z</time>
      </trkpt>
      <trkpt lat="45.91658" lon="4.70876">
        <ele>188.43</ele>
        <time>2025-09-15T12:32:24.350Z</time>
      </trkpt>
      <trkpt lat="45.91659" lon="4.7087">
        <ele>188.48</ele>
        <time>2025-09-15T12:32:24.919Z</time>
      </trkpt>
      <trkpt lat="45.91661" lon="4.70854">
        <ele>188.53</ele>
        <time>2025-09-15T12:32:25.493Z</time>
      </trkpt>
      <trkpt lat="45.91663" lon="4.70854">
        <ele>188.58</ele>
        <time>2025-09-15T12:32:26.068Z</time>
      </trkpt>
      <trkpt lat="45.91673" lon="4.70863">
        <ele>188.64</ele>
        <time>2025-09-15T12:32:26.648Z</time>
      </trkpt>
      <trkpt lat="45.91674" lon="4.70873">
        <ele>188.69</ele>
        <time>2025-09-15T12:32:27.232Z</time>
      </trkpt>
      <trkpt lat="45.91673" lon="4.7088">
        <ele>188.73</ele>
        <time>2025-09-15T12:32:27.818Z</time>
      </trkpt>
      <trkpt lat="45.91668" lon="4.70904">
        <ele>188.76</ele>
        <time>2025-09-15T12:32:28.411Z</time>
      </trkpt>
      <trkpt lat="45.91667" lon="4.70907">
        <ele>188.79</ele>
        <time>2025-09-15T12:32:29.005Z</time>
      </trkpt>
      <trkpt lat="45.91661" lon="4.70925">
        <ele>188.81</ele>
        <time>2025-09-15T12:32:29.605Z</time>
      </trkpt>
      <trkpt lat="45.9166" lon="4.70932">
        <ele>188.84</ele>
        <time>2025-09-15T12:32:30.208Z</time>
      </trkpt>
      <trkpt lat="45.9166" lon="4.7093">
        <ele>188.87</ele>
        <time>2025-09-15T12:32:30.811Z</time>
      </trkpt>
      <trkpt lat="45.91666" lon="4.7092">
        <ele>188.91</ele>
        <time>2025-09-15T12:32:31.418Z</time>
      </trkpt>
      <trkpt lat="45.9167" lon="4.70901">
        <ele>188.94</ele>
        <time>2025-09-15T12:32:32.031Z</time>
      </trkpt>
      <trkpt lat="45.91673" lon="4.70882">
        <ele>188.97</ele>
        <time>2025-09-15T12:32:32.650Z</time>
      </trkpt>
      <trkpt lat="45.91673" lon="4.70879">
        <ele>188.99</ele>
        <time>2025-09-15T12:32:33.270Z</time>
      </trkpt>
      <trkpt lat="45.91676" lon="4.70873">
        <ele>189</ele>
        <time>2025-09-15T12:32:33.892Z</time>
      </trkpt>
      <trkpt lat="45.91677" lon="4.70875">
        <ele>189.01</ele>
        <time>2025-09-15T12:32:34.515Z</time>
      </trkpt>
      <trkpt lat="45.91679" lon="4.7089">
        <ele>189.01</ele>
        <time>2025-09-15T12:32:35.143Z</time>
      </trkpt>
      <trkpt lat="45.9168" lon="4.70915">
        <ele>189</ele>
        <time>2025-09-15T12:32:35.779Z</time>
      </trkpt>
      <trkpt lat="45.91681" lon="4.70932">
        <ele>188.99</ele>
        <time>2025-09-15T12:32:36.420Z</time>
      </trkpt>
      <trkpt lat="45.91681" lon="4.70934">
        <ele>188.97</ele>
        <time>2025-09-15T12:32:37.062Z</time>
      </trkpt>
      <trkpt lat="45.91681" lon="4.70941">
        <ele>188.94</ele>
        <time>2025-09-15T12:32:37.706Z</time>
      </trkpt>
      <trkpt lat="45.9168" lon="4.70943">
        <ele>188.9</ele>
        <time>2025-09-15T12:32:38.350Z</time>
      </trkpt>
      <trkpt lat="45.91668" lon="4.70948">
        <ele>188.84</ele>
        <time>2025-09-15T12:32:39.000Z</time>
      </trkpt>
      <trkpt lat="45.91652" lon="4.70946">
        <ele>188.76</ele>
        <time>2025-09-15T12:32:39.657Z</time>
      </trkpt>
      <trkpt lat="45.91644" lon="4.70949">
        <ele>188.68</ele>
        <time>2025-09-15T12:32:40.317Z</time>
      </trkpt>
      <trkpt lat="45.91645" lon="4.7095">
        <ele>188.62</ele>
        <time>2025-09-15T12:32:40.978Z</time>
      </trkpt>
      <trkpt lat="45.91648" lon="4.70955">
        <ele>188.56</ele>
        <time>2025-09-15T12:32:41.641Z</time>
      </trkpt>
      <trkpt lat="45.91652" lon="4.70958">
        <ele>188.51</ele>
        <time>2025-09-15T12:32:42.306Z</time>
      </trkpt>
      <trkpt lat="45.91671" lon="4.70963">
        <ele>188.49</ele>
        <time>2025-09-15T12:32:42.979Z</time>
      </trkpt>
      <trkpt lat="45.91673" lon="4.70967">
        <ele>188.42</ele>
        <time>2025-09-15T12:32:43.654Z</time>
      </trkpt>
      <trkpt lat="45.91675" lon="4.70972">
        <ele>188.34</ele>
        <time>2025-09-15T12:32:44.330Z</time>
      </trkpt>
      <trkpt lat="45.91674" lon="4.70997">
        <ele>188.2</ele>
        <time>2025-09-15T12:32:45.014Z</time>
      </trkpt>
      <trkpt lat="45.91675" lon="4.71003">
        <ele>188.09</ele>
        <time>2025-09-15T12:32:45.700Z</time>
      </trkpt>
      <trkpt lat="45.91675" lon="4.71007">
        <ele>187.99</ele>
        <time>2025-09-15T12:32:46.387Z</time>
      </trkpt>
      <trkpt lat="45.91672" lon="4.71013">
        <ele>187.86</ele>
        <time>2025-09-15T12:32:47.077Z</time>
      </trkpt>
      <trkpt lat="45.91669" lon="4.71014">
        <ele>187.75</ele>
        <time>2025-09-15T12:32:47.768Z</time>
      </trkpt>
      <trkpt lat="45.91665" lon="4.71014">
        <ele>187.62</ele>
        <time>2025-09-15T12:32:48.460Z</time>
      </trkpt>
      <trkpt lat="45.91663" lon="4.71012">
        <ele>187.5</ele>
        <time>2025-09-15T12:32:49.154Z</time>
      </trkpt>
      <trkpt lat="45.91659" lon="4.70999">
        <ele>187.37</ele>
        <time>2025-09-15T12:32:49.852Z</time>
      </trkpt>
      <trkpt lat="45.91658" lon="4.70995">
        <ele>187.24</ele>
        <time>2025-09-15T12:32:50.551Z</time>
      </trkpt>
      <trkpt lat="45.91656" lon="4.70985">
        <ele>187.1</ele>
        <time>2025-09-15T12:32:51.253Z</time>
      </trkpt>
      <trkpt lat="45.91652" lon="4.70976">
        <ele>186.96</ele>
        <time>2025-09-15T12:32:51.959Z</time>
      </trkpt>
      <trkpt lat="45.9165" lon="4.70971">
        <ele>186.82</ele>
        <time>2025-09-15T12:32:52.666Z</time>
      </trkpt>
      <trkpt lat="45.91648" lon="4.70969">
        <ele>186.68</ele>
        <time>2025-09-15T12:32:53.374Z</time>
      </trkpt>
      <trkpt lat="45.91646" lon="4.70971">
        <ele>186.51</ele>
        <time>2025-09-15T12:32:54.084Z</time>
      </trkpt>
      <trkpt lat="45.91643" lon="4.70992">
        <ele>186.35</ele>
        <time>2025-09-15T12:32:54.800Z</time>
      </trkpt>
      <trkpt lat="45.9164" lon="4.71017">
        <ele>186.13</ele>
        <time>2025-09-15T12:32:55.524Z</time>
      </trkpt>
      <trkpt lat="45.91639" lon="4.71019">
        <ele>185.96</ele>
        <time>2025-09-15T12:32:56.249Z</time>
      </trkpt>
      <trkpt lat="45.91636" lon="4.71016">
        <ele>185.81</ele>
        <time>2025-09-15T12:32:56.975Z</time>
      </trkpt>
      <trkpt lat="45.91636" lon="4.70999">
        <ele>185.7</ele>
        <time>2025-09-15T12:32:57.706Z</time>
      </trkpt>
      <trkpt lat="45.91637" lon="4.70979">
        <ele>185.59</ele>
        <time>2025-09-15T12:32:58.443Z</time>
      </trkpt>
      <trkpt lat="45.91637" lon="4.70977">
        <ele>185.45</ele>
        <time>2025-09-15T12:32:59.181Z</time>
      </trkpt>
      <trkpt lat="45.91638" lon="4.70975">
        <ele>185.31</ele>
        <time>2025-09-15T12:32:59.920Z</time>
      </trkpt>
      <trkpt lat="45.91637" lon="4.70961">
        <ele>185.18</ele>
        <time>2025-09-15T12:33:00.663Z</time>
      </trkpt>
      <trkpt lat="45.91636" lon="4.7096">
        <ele>185.05</ele>
        <time>2025-09-15T12:33:01.406Z</time>
      </trkpt>
      <trkpt lat="45.91635" lon="4.70964">
        <ele>184.91</ele>
        <time>2025-09-15T12:33:02.151Z</time>
      </trkpt>
      <trkpt lat="45.91632" lon="4.70985">
        <ele>184.78</ele>
        <time>2025-09-15T12:33:02.903Z</time>
      </trkpt>
      <trkpt lat="45.91628" lon="4.71001">
        <ele>184.58</ele>
        <time>2025-09-15T12:33:03.660Z</time>
      </trkpt>
      <trkpt lat="45.91626" lon="4.71003">
        <ele>184.47</ele>
        <time>2025-09-15T12:33:04.418Z</time>
      </trkpt>
      <trkpt lat="45.91617" lon="4.71014">
        <ele>184.31</ele>
        <time>2025-09-15T12:33:05.181Z</time>
      </trkpt>
      <trkpt lat="45.91615" lon="4.71014">
        <ele>184.24</ele>
        <time>2025-09-15T12:33:05.945Z</time>
      </trkpt>
      <trkpt lat="45.91613" lon="4.71013">
        <ele>184.19</ele>
        <time>2025-09-15T12:33:06.710Z</time>
      </trkpt>
      <trkpt lat="45.91611" lon="4.71011">
        <ele>184.16</ele>
        <time>2025-09-15T12:33:07.476Z</time>
      </trkpt>
      <trkpt lat="45.9161" lon="4.71008">
        <ele>184.15</ele>
        <time>2025-09-15T12:33:08.243Z</time>
      </trkpt>
      <trkpt lat="45.91608" lon="4.70999">
        <ele>184.2</ele>
        <time>2025-09-15T12:33:09.012Z</time>
      </trkpt>
      <trkpt lat="45.91609" lon="4.70997">
        <ele>184.25</ele>
        <time>2025-09-15T12:33:09.782Z</time>
      </trkpt>
      <trkpt lat="45.9161" lon="4.70994">
        <ele>184.32</ele>
        <time>2025-09-15T12:33:10.553Z</time>
      </trkpt>
      <trkpt lat="45.91612" lon="4.70987">
        <ele>184.43</ele>
        <time>2025-09-15T12:33:11.326Z</time>
      </trkpt>
      <trkpt lat="45.91614" lon="4.70982">
        <ele>184.54</ele>
        <time>2025-09-15T12:33:12.101Z</time>
      </trkpt>
      <trkpt lat="45.91614" lon="4.7098">
        <ele>184.65</ele>
        <time>2025-09-15T12:33:12.877Z</time>
      </trkpt>
      <trkpt lat="45.91622" lon="4.70962">
        <ele>184.8</ele>
        <time>2025-09-15T12:33:13.659Z</time>
      </trkpt>
      <trkpt lat="45.91625" lon="4.70958">
        <ele>184.92</ele>
        <time>2025-09-15T12:33:14.443Z</time>
      </trkpt>
      <trkpt lat="45.91632" lon="4.70946">
        <ele>185.09</ele>
        <time>2025-09-15T12:33:15.232Z</time>
      </trkpt>
      <trkpt lat="45.91634" lon="4.70937">
        <ele>185.24</ele>
        <time>2025-09-15T12:33:16.024Z</time>
      </trkpt>
      <trkpt lat="45.91633" lon="4.70934">
        <ele>185.37</ele>
        <time>2025-09-15T12:33:16.817Z</time>
      </trkpt>
      <trkpt lat="45.91623" lon="4.70924">
        <ele>185.47</ele>
        <time>2025-09-15T12:33:17.615Z</time>
      </trkpt>
      <trkpt lat="45.91608" lon="4.70918">
        <ele>185.57</ele>
        <time>2025-09-15T12:33:18.420Z</time>
      </trkpt>
      <trkpt lat="45.91601" lon="4.70908">
        <ele>185.71</ele>
        <time>2025-09-15T12:33:19.229Z</time>
      </trkpt>
      <trkpt lat="45.91599" lon="4.70907">
        <ele>185.83</ele>
        <time>2025-09-15T12:33:20.039Z</time>
      </trkpt>
      <trkpt lat="45.91591" lon="4.70895">
        <ele>185.97</ele>
        <time>2025-09-15T12:33:20.854Z</time>
      </trkpt>
      <trkpt lat="45.91593" lon="4.70884">
        <ele>186.11</ele>
        <time>2025-09-15T12:33:21.673Z</time>
      </trkpt>
      <trkpt lat="45.91594" lon="4.70878">
        <ele>186.25</ele>
        <time>2025-09-15T12:33:22.494Z</time>
      </trkpt>
      <trkpt lat="45.91594" lon="4.70862">
        <ele>186.39</ele>
        <time>2025-09-15T12:33:23.319Z</time>
      </trkpt>
      <trkpt lat="45.91593" lon="4.70844">
        <ele>186.54</ele>
        <time>2025-09-15T12:33:24.150Z</time>
      </trkpt>
      <trkpt lat="45.91592" lon="4.70835">
        <ele>186.69</ele>
        <time>2025-09-15T12:33:24.984Z</time>
      </trkpt>
      <trkpt lat="45.91582" lon="4.70805">
        <ele>186.87</ele>
        <time>2025-09-15T12:33:25.828Z</time>
      </trkpt>
      <trkpt lat="45.91581" lon="4.70802">
        <ele>187.05</ele>
        <time>2025-09-15T12:33:26.673Z</time>
      </trkpt>
      <trkpt lat="45.91575" lon="4.70787">
        <ele>187.28</ele>
        <time>2025-09-15T12:33:27.524Z</time>
      </trkpt>
      <trkpt lat="45.91574" lon="4.70781">
        <ele>187.49</ele>
        <time>2025-09-15T12:33:28.376Z</time>
      </trkpt>
      <trkpt lat="45.91571" lon="4.70774">
        <ele>187.71</ele>
        <time>2025-09-15T12:33:29.231Z</time>
      </trkpt>
      <trkpt lat="45.91568" lon="4.70772">
        <ele>187.93</ele>
        <time>2025-09-15T12:33:30.087Z</time>
      </trkpt>
      <trkpt lat="45.91562" lon="4.70767">
        <ele>188.18</ele>
        <time>2025-09-15T12:33:30.946Z</time>
      </trkpt>
      <trkpt lat="45.9156" lon="4.70762">
        <ele>188.45</ele>
        <time>2025-09-15T12:33:31.807Z</time>
      </trkpt>
      <trkpt lat="45.9156" lon="4.7076">
        <ele>188.73</ele>
        <time>2025-09-15T12:33:32.669Z</time>
      </trkpt>
      <trkpt lat="45.91558" lon="4.70748">
        <ele>189.04</ele>
        <time>2025-09-15T12:33:33.534Z</time>
      </trkpt>
      <trkpt lat="45.91558" lon="4.7073">
        <ele>189.39</ele>
        <time>2025-09-15T12:33:34.405Z</time>
      </trkpt>
      <trkpt lat="45.91559" lon="4.70703">
        <ele>189.78</ele>
        <time>2025-09-15T12:33:35.284Z</time>
      </trkpt>
      <trkpt lat="45.91559" lon="4.70699">
        <ele>190.14</ele>
        <time>2025-09-15T12:33:36.165Z</time>
      </trkpt>
      <trkpt lat="45.91559" lon="4.70692">
        <ele>190.54</ele>
        <time>2025-09-15T12:33:37.048Z</time>
      </trkpt>
      <trkpt lat="45.9156" lon="4.70685">
        <ele>190.94</ele>
        <time>2025-09-15T12:33:37.933Z</time>
      </trkpt>
      <trkpt lat="45.91561" lon="4.70675">
        <ele>191.37</ele>
        <time>2025-09-15T12:33:38.821Z</time>
      </trkpt>
      <trkpt lat="45.91562" lon="4.70671">
        <ele>191.8</ele>
        <time>2025-09-15T12:33:39.710Z</time>
      </trkpt>
      <trkpt lat="45.91563" lon="4.70668">
        <ele>192.26</ele>
        <time>2025-09-15T12:33:40.600Z</time>
      </trkpt>
      <trkpt lat="45.91568" lon="4.70642">
        <ele>193.77</ele>
        <time>2025-09-15T12:33:43.286Z</time>
      </trkpt>
      <trkpt lat="45.9157" lon="4.70621">
        <ele>194.88</ele>
        <time>2025-09-15T12:33:45.093Z</time>
      </trkpt>
      <trkpt lat="45.9157" lon="4.70598">
        <ele>195.52</ele>
        <time>2025-09-15T12:33:46.005Z</time>
      </trkpt>
      <trkpt lat="45.9157" lon="4.70595">
        <ele>196.1</ele>
        <time>2025-09-15T12:33:46.918Z</time>
      </trkpt>
      <trkpt lat="45.91568" lon="4.70581">
        <ele>196.77</ele>
        <time>2025-09-15T12:33:47.835Z</time>
      </trkpt>
      <trkpt lat="45.91567" lon="4.70561">
        <ele>198.07</ele>
        <time>2025-09-15T12:33:49.679Z</time>
      </trkpt>
      <trkpt lat="45.91567" lon="4.70558">
        <ele>198.67</ele>
        <time>2025-09-15T12:33:50.603Z</time>
      </trkpt>
      <trkpt lat="45.91565" lon="4.70548">
        <ele>199.3</ele>
        <time>2025-09-15T12:33:51.531Z</time>
      </trkpt>
      <trkpt lat="45.91564" lon="4.70542">
        <ele>199.9</ele>
        <time>2025-09-15T12:33:52.461Z</time>
      </trkpt>
      <trkpt lat="45.91562" lon="4.70522">
        <ele>200.53</ele>
        <time>2025-09-15T12:33:53.397Z</time>
      </trkpt>
      <trkpt lat="45.91562" lon="4.70519">
        <ele>201.1</ele>
        <time>2025-09-15T12:33:54.334Z</time>
      </trkpt>
      <trkpt lat="45.91564" lon="4.70501">
        <ele>201.69</ele>
        <time>2025-09-15T12:33:55.276Z</time>
      </trkpt>
      <trkpt lat="45.91564" lon="4.70498">
        <ele>202.23</ele>
        <time>2025-09-15T12:33:56.219Z</time>
      </trkpt>
      <trkpt lat="45.91565" lon="4.70479">
        <ele>202.8</ele>
        <time>2025-09-15T12:33:57.168Z</time>
      </trkpt>
      <trkpt lat="45.91566" lon="4.70476">
        <ele>203.31</ele>
        <time>2025-09-15T12:33:58.118Z</time>
      </trkpt>
      <trkpt lat="45.91566" lon="4.70465">
        <ele>203.83</ele>
        <time>2025-09-15T12:33:59.071Z</time>
      </trkpt>
      <trkpt lat="45.9157" lon="4.70453">
        <ele>204.33</ele>
        <time>2025-09-15T12:34:00.028Z</time>
      </trkpt>
      <trkpt lat="45.9157" lon="4.70452">
        <ele>204.8</ele>
        <time>2025-09-15T12:34:00.986Z</time>
      </trkpt>
      <trkpt lat="45.9157" lon="4.70445">
        <ele>205.26</ele>
        <time>2025-09-15T12:34:01.946Z</time>
      </trkpt>
      <trkpt lat="45.9157" lon="4.70443">
        <ele>205.69</ele>
        <time>2025-09-15T12:34:02.907Z</time>
      </trkpt>
      <trkpt lat="45.91571" lon="4.70426">
        <ele>206.14</ele>
        <time>2025-09-15T12:34:03.873Z</time>
      </trkpt>
      <trkpt lat="45.91571" lon="4.70423">
        <ele>206.54</ele>
        <time>2025-09-15T12:34:04.840Z</time>
      </trkpt>
      <trkpt lat="45.91571" lon="4.7042">
        <ele>206.93</ele>
        <time>2025-09-15T12:34:05.808Z</time>
      </trkpt>
      <trkpt lat="45.91572" lon="4.70403">
        <ele>207.37</ele>
        <time>2025-09-15T12:34:06.781Z</time>
      </trkpt>
      <trkpt lat="45.91573" lon="4.70386">
        <ele>207.77</ele>
        <time>2025-09-15T12:34:07.759Z</time>
      </trkpt>
      <trkpt lat="45.91573" lon="4.70384">
        <ele>208.1</ele>
        <time>2025-09-15T12:34:08.738Z</time>
      </trkpt>
      <trkpt lat="45.91575" lon="4.70366">
        <ele>208.46</ele>
        <time>2025-09-15T12:34:09.722Z</time>
      </trkpt>
      <trkpt lat="45.91575" lon="4.7036">
        <ele>208.75</ele>
        <time>2025-09-15T12:34:10.708Z</time>
      </trkpt>
      <trkpt lat="45.91576" lon="4.70351">
        <ele>209.03</ele>
        <time>2025-09-15T12:34:11.697Z</time>
      </trkpt>
      <trkpt lat="45.91576" lon="4.70348">
        <ele>209.28</ele>
        <time>2025-09-15T12:34:12.687Z</time>
      </trkpt>
      <trkpt lat="45.91575" lon="4.70345">
        <ele>209.51</ele>
        <time>2025-09-15T12:34:13.678Z</time>
      </trkpt>
      <trkpt lat="45.91572" lon="4.70337">
        <ele>209.73</ele>
        <time>2025-09-15T12:34:14.671Z</time>
      </trkpt>
      <trkpt lat="45.91558" lon="4.70325">
        <ele>209.98</ele>
        <time>2025-09-15T12:34:15.671Z</time>
      </trkpt>
      <trkpt lat="45.91556" lon="4.70323">
        <ele>210.15</ele>
        <time>2025-09-15T12:34:16.673Z</time>
      </trkpt>
      <trkpt lat="45.91541" lon="4.70317">
        <ele>210.34</ele>
        <time>2025-09-15T12:34:17.681Z</time>
      </trkpt>
      <trkpt lat="45.91522" lon="4.70311">
        <ele>210.5</ele>
        <time>2025-09-15T12:34:18.698Z</time>
      </trkpt>
      <trkpt lat="45.9152" lon="4.70311">
        <ele>210.63</ele>
        <time>2025-09-15T12:34:19.716Z</time>
      </trkpt>
      <trkpt lat="45.91516" lon="4.70309">
        <ele>210.76</ele>
        <time>2025-09-15T12:34:20.736Z</time>
      </trkpt>
      <trkpt lat="45.91501" lon="4.70314">
        <ele>210.85</ele>
        <time>2025-09-15T12:34:21.762Z</time>
      </trkpt>
      <trkpt lat="45.91483" lon="4.70311">
        <ele>210.95</ele>
        <time>2025-09-15T12:34:22.796Z</time>
      </trkpt>
      <trkpt lat="45.91465" lon="4.70307">
        <ele>211.02</ele>
        <time>2025-09-15T12:34:23.838Z</time>
      </trkpt>
      <trkpt lat="45.91464" lon="4.70306">
        <ele>211.17</ele>
        <time>2025-09-15T12:34:24.881Z</time>
      </trkpt>
      <trkpt lat="45.91462" lon="4.70306">
        <ele>211.33</ele>
        <time>2025-09-15T12:34:25.925Z</time>
      </trkpt>
      <trkpt lat="45.91454" lon="4.703">
        <ele>211.5</ele>
        <time>2025-09-15T12:34:26.973Z</time>
      </trkpt>
      <trkpt lat="45.9145" lon="4.70296">
        <ele>211.73</ele>
        <time>2025-09-15T12:34:28.023Z</time>
      </trkpt>
      <trkpt lat="45.91435" lon="4.70276">
        <ele>212.01</ele>
        <time>2025-09-15T12:34:29.082Z</time>
      </trkpt>
      <trkpt lat="45.91426" lon="4.70266">
        <ele>212.3</ele>
        <time>2025-09-15T12:34:30.146Z</time>
      </trkpt>
      <trkpt lat="45.91425" lon="4.70264">
        <ele>212.6</ele>
        <time>2025-09-15T12:34:31.211Z</time>
      </trkpt>
      <trkpt lat="45.91409" lon="4.70248">
        <ele>213.04</ele>
        <time>2025-09-15T12:34:32.284Z</time>
      </trkpt>
      <trkpt lat="45.91407" lon="4.70246">
        <ele>213.39</ele>
        <time>2025-09-15T12:34:33.358Z</time>
      </trkpt>
      <trkpt lat="45.91403" lon="4.70244">
        <ele>213.78</ele>
        <time>2025-09-15T12:34:34.434Z</time>
      </trkpt>
      <trkpt lat="45.91401" lon="4.70243">
        <ele>214.18</ele>
        <time>2025-09-15T12:34:35.511Z</time>
      </trkpt>
      <trkpt lat="45.91399" lon="4.70244">
        <ele>214.58</ele>
        <time>2025-09-15T12:34:36.589Z</time>
      </trkpt>
      <trkpt lat="45.91396" lon="4.70244">
        <ele>215</ele>
        <time>2025-09-15T12:34:37.668Z</time>
      </trkpt>
      <trkpt lat="45.91381" lon="4.70244">
        <ele>215.44</ele>
        <time>2025-09-15T12:34:38.754Z</time>
      </trkpt>
      <trkpt lat="45.91372" lon="4.70234">
        <ele>215.93</ele>
        <time>2025-09-15T12:34:39.845Z</time>
      </trkpt>
      <trkpt lat="45.91373" lon="4.70228">
        <ele>216.39</ele>
        <time>2025-09-15T12:34:40.938Z</time>
      </trkpt>
      <trkpt lat="45.91373" lon="4.70216">
        <ele>216.87</ele>
        <time>2025-09-15T12:34:42.035Z</time>
      </trkpt>
      <trkpt lat="45.91373" lon="4.70211">
        <ele>217.31</ele>
        <time>2025-09-15T12:34:43.133Z</time>
      </trkpt>
      <trkpt lat="45.91368" lon="4.702">
        <ele>217.77</ele>
        <time>2025-09-15T12:34:44.235Z</time>
      </trkpt>
      <trkpt lat="45.91358" lon="4.70195">
        <ele>218.18</ele>
        <time>2025-09-15T12:34:45.342Z</time>
      </trkpt>
      <trkpt lat="45.91356" lon="4.70194">
        <ele>218.57</ele>
        <time>2025-09-15T12:34:46.450Z</time>
      </trkpt>
      <trkpt lat="45.91346" lon="4.70188">
        <ele>218.94</ele>
        <time>2025-09-15T12:34:47.563Z</time>
      </trkpt>
      <trkpt lat="45.91344" lon="4.70179">
        <ele>219.3</ele>
        <time>2025-09-15T12:34:48.678Z</time>
      </trkpt>
      <trkpt lat="45.91343" lon="4.70163">
        <ele>219.66</ele>
        <time>2025-09-15T12:34:49.798Z</time>
      </trkpt>
      <trkpt lat="45.91342" lon="4.7015">
        <ele>220</ele>
        <time>2025-09-15T12:34:50.922Z</time>
      </trkpt>
      <trkpt lat="45.91341" lon="4.70148">
        <ele>220.25</ele>
        <time>2025-09-15T12:34:52.047Z</time>
      </trkpt>
      <trkpt lat="45.9134" lon="4.70146">
        <ele>220.47</ele>
        <time>2025-09-15T12:34:53.173Z</time>
      </trkpt>
      <trkpt lat="45.91336" lon="4.70142">
        <ele>220.66</ele>
        <time>2025-09-15T12:34:54.301Z</time>
      </trkpt>
      <trkpt lat="45.91327" lon="4.7014">
        <ele>220.81</ele>
        <time>2025-09-15T12:34:55.433Z</time>
      </trkpt>
      <trkpt lat="45.91323" lon="4.7014">
        <ele>220.91</ele>
        <time>2025-09-15T12:34:56.567Z</time>
      </trkpt>
      <trkpt lat="45.9132" lon="4.70138">
        <ele>220.98</ele>
        <time>2025-09-15T12:34:57.702Z</time>
      </trkpt>
      <trkpt lat="45.91318" lon="4.70137">
        <ele>221.01</ele>
        <time>2025-09-15T12:34:58.838Z</time>
      </trkpt>
      <trkpt lat="45.91315" lon="4.70134">
        <ele>221.02</ele>
        <time>2025-09-15T12:34:59.976Z</time>
      </trkpt>
      <trkpt lat="45.91305" lon="4.70129">
        <ele>220.99</ele>
        <time>2025-09-15T12:35:01.118Z</time>
      </trkpt>
      <trkpt lat="45.913" lon="4.70127">
        <ele>220.94</ele>
        <time>2025-09-15T12:35:02.263Z</time>
      </trkpt>
      <trkpt lat="45.9129" lon="4.70119">
        <ele>220.86</ele>
        <time>2025-09-15T12:35:03.413Z</time>
      </trkpt>
      <trkpt lat="45.91283" lon="4.70119">
        <ele>220.74</ele>
        <time>2025-09-15T12:35:04.566Z</time>
      </trkpt>
      <trkpt lat="45.91276" lon="4.70116">
        <ele>220.6</ele>
        <time>2025-09-15T12:35:05.722Z</time>
      </trkpt>
      <trkpt lat="45.91259" lon="4.70111">
        <ele>220.44</ele>
        <time>2025-09-15T12:35:06.886Z</time>
      </trkpt>
      <trkpt lat="45.91241" lon="4.7011">
        <ele>220.26</ele>
        <time>2025-09-15T12:35:08.057Z</time>
      </trkpt>
      <trkpt lat="45.91232" lon="4.70112">
        <ele>220.08</ele>
        <time>2025-09-15T12:35:09.232Z</time>
      </trkpt>
      <trkpt lat="45.91224" lon="4.70114">
        <ele>219.93</ele>
        <time>2025-09-15T12:35:10.411Z</time>
      </trkpt>
      <trkpt lat="45.91209" lon="4.70114">
        <ele>219.79</ele>
        <time>2025-09-15T12:35:11.596Z</time>
      </trkpt>
      <trkpt lat="45.91206" lon="4.70114">
        <ele>219.67</ele>
        <time>2025-09-15T12:35:12.783Z</time>
      </trkpt>
      <trkpt lat="45.91187" lon="4.70113">
        <ele>219.54</ele>
        <time>2025-09-15T12:35:13.978Z</time>
      </trkpt>
      <trkpt lat="45.91183" lon="4.70112">
        <ele>219.46</ele>
        <time>2025-09-15T12:35:15.175Z</time>
      </trkpt>
      <trkpt lat="45.91169" lon="4.70116">
        <ele>219.41</ele>
        <time>2025-09-15T12:35:16.378Z</time>
      </trkpt>
      <trkpt lat="45.91153" lon="4.70125">
        <ele>219.42</ele>
        <time>2025-09-15T12:35:17.589Z</time>
      </trkpt>
      <trkpt lat="45.91148" lon="4.70129">
        <ele>219.44</ele>
        <time>2025-09-15T12:35:18.802Z</time>
      </trkpt>
      <trkpt lat="45.91138" lon="4.70134">
        <ele>219.5</ele>
        <time>2025-09-15T12:35:20.020Z</time>
      </trkpt>
      <trkpt lat="45.91123" lon="4.70142">
        <ele>219.6</ele>
        <time>2025-09-15T12:35:21.245Z</time>
      </trkpt>
      <trkpt lat="45.91107" lon="4.70141">
        <ele>219.77</ele>
        <time>2025-09-15T12:35:22.477Z</time>
      </trkpt>
      <trkpt lat="45.91103" lon="4.7014">
        <ele>219.98</ele>
        <time>2025-09-15T12:35:23.711Z</time>
      </trkpt>
      <trkpt lat="45.91084" lon="4.70139">
        <ele>220.24</ele>
        <time>2025-09-15T12:35:24.953Z</time>
      </trkpt>
      <trkpt lat="45.9107" lon="4.70126">
        <ele>220.6</ele>
        <time>2025-09-15T12:35:26.203Z</time>
      </trkpt>
      <trkpt lat="45.91067" lon="4.7012">
        <ele>220.98</ele>
        <time>2025-09-15T12:35:27.455Z</time>
      </trkpt>
      <trkpt lat="45.91062" lon="4.7011">
        <ele>221.43</ele>
        <time>2025-09-15T12:35:28.710Z</time>
      </trkpt>
      <trkpt lat="45.91062" lon="4.70104">
        <ele>221.9</ele>
        <time>2025-09-15T12:35:29.967Z</time>
      </trkpt>
      <trkpt lat="45.91061" lon="4.7009">
        <ele>222.47</ele>
        <time>2025-09-15T12:35:31.229Z</time>
      </trkpt>
      <trkpt lat="45.91062" lon="4.70075">
        <ele>223.02</ele>
        <time>2025-09-15T12:35:32.495Z</time>
      </trkpt>
      <trkpt lat="45.91063" lon="4.70066">
        <ele>223.58</ele>
        <time>2025-09-15T12:35:33.764Z</time>
      </trkpt>
      <trkpt lat="45.91063" lon="4.70059">
        <ele>224.17</ele>
        <time>2025-09-15T12:35:35.035Z</time>
      </trkpt>
      <trkpt lat="45.91064" lon="4.70052">
        <ele>224.8</ele>
        <time>2025-09-15T12:35:36.308Z</time>
      </trkpt>
      <trkpt lat="45.91064" lon="4.70039">
        <ele>225.47</ele>
        <time>2025-09-15T12:35:37.585Z</time>
      </trkpt>
      <trkpt lat="45.91065" lon="4.70025">
        <ele>226.15</ele>
        <time>2025-09-15T12:35:38.867Z</time>
      </trkpt>
      <trkpt lat="45.91066" lon="4.70018">
        <ele>226.81</ele>
        <time>2025-09-15T12:35:40.151Z</time>
      </trkpt>
      <trkpt lat="45.91067" lon="4.70004">
        <ele>227.48</ele>
        <time>2025-09-15T12:35:41.439Z</time>
      </trkpt>
      <trkpt lat="45.91067" lon="4.70002">
        <ele>228.15</ele>
        <time>2025-09-15T12:35:42.728Z</time>
      </trkpt>
      <trkpt lat="45.91068" lon="4.69989">
        <ele>228.85</ele>
        <time>2025-09-15T12:35:44.021Z</time>
      </trkpt>
      <trkpt lat="45.9107" lon="4.69974">
        <ele>229.56</ele>
        <time>2025-09-15T12:35:45.318Z</time>
      </trkpt>
      <trkpt lat="45.9107" lon="4.69968">
        <ele>230.23</ele>
        <time>2025-09-15T12:35:46.617Z</time>
      </trkpt>
      <trkpt lat="45.91071" lon="4.69961">
        <ele>230.88</ele>
        <time>2025-09-15T12:35:47.918Z</time>
      </trkpt>
      <trkpt lat="45.91071" lon="4.69959">
        <ele>231.51</ele>
        <time>2025-09-15T12:35:49.220Z</time>
      </trkpt>
      <trkpt lat="45.91072" lon="4.69945">
        <ele>232.18</ele>
        <time>2025-09-15T12:35:50.526Z</time>
      </trkpt>
      <trkpt lat="45.91067" lon="4.69933">
        <ele>232.85</ele>
        <time>2025-09-15T12:35:51.836Z</time>
      </trkpt>
      <trkpt lat="45.91066" lon="4.69932">
        <ele>233.42</ele>
        <time>2025-09-15T12:35:53.147Z</time>
      </trkpt>
      <trkpt lat="45.91064" lon="4.69931">
        <ele>233.96</ele>
        <time>2025-09-15T12:35:54.459Z</time>
      </trkpt>
      <trkpt lat="45.91054" lon="4.69928">
        <ele>234.52</ele>
        <time>2025-09-15T12:35:55.776Z</time>
      </trkpt>
      <trkpt lat="45.91052" lon="4.69927">
        <ele>235.01</ele>
        <time>2025-09-15T12:35:57.094Z</time>
      </trkpt>
      <trkpt lat="45.9105" lon="4.69926">
        <ele>235.48</ele>
        <time>2025-09-15T12:35:58.412Z</time>
      </trkpt>
      <trkpt lat="45.91037" lon="4.69922">
        <ele>235.95</ele>
        <time>2025-09-15T12:35:59.736Z</time>
      </trkpt>
      <trkpt lat="45.91034" lon="4.6992">
        <ele>236.36</ele>
        <time>2025-09-15T12:36:01.062Z</time>
      </trkpt>
      <trkpt lat="45.91023" lon="4.69916">
        <ele>236.73</ele>
        <time>2025-09-15T12:36:02.392Z</time>
      </trkpt>
      <trkpt lat="45.91012" lon="4.69915">
        <ele>237.07</ele>
        <time>2025-09-15T12:36:03.727Z</time>
      </trkpt>
      <trkpt lat="45.91008" lon="4.69914">
        <ele>237.41</ele>
        <time>2025-09-15T12:36:05.064Z</time>
      </trkpt>
      <trkpt lat="45.90992" lon="4.69916">
        <ele>237.71</ele>
        <time>2025-09-15T12:36:06.408Z</time>
      </trkpt>
      <trkpt lat="45.90984" lon="4.69917">
        <ele>238</ele>
        <time>2025-09-15T12:36:07.756Z</time>
      </trkpt>
      <trkpt lat="45.90979" lon="4.69918">
        <ele>238.28</ele>
        <time>2025-09-15T12:36:09.106Z</time>
      </trkpt>
      <trkpt lat="45.90967" lon="4.6992">
        <ele>238.57</ele>
        <time>2025-09-15T12:36:10.461Z</time>
      </trkpt>
      <trkpt lat="45.90963" lon="4.69921">
        <ele>238.81</ele>
        <time>2025-09-15T12:36:11.818Z</time>
      </trkpt>
      <trkpt lat="45.90956" lon="4.6992">
        <ele>239.05</ele>
        <time>2025-09-15T12:36:13.178Z</time>
      </trkpt>
      <trkpt lat="45.90944" lon="4.69918">
        <ele>239.29</ele>
        <time>2025-09-15T12:36:14.543Z</time>
      </trkpt>
      <trkpt lat="45.90934" lon="4.69917">
        <ele>239.49</ele>
        <time>2025-09-15T12:36:15.913Z</time>
      </trkpt>
      <trkpt lat="45.90929" lon="4.69916">
        <ele>239.65</ele>
        <time>2025-09-15T12:36:17.285Z</time>
      </trkpt>
      <trkpt lat="45.90921" lon="4.69916">
        <ele>239.77</ele>
        <time>2025-09-15T12:36:18.661Z</time>
      </trkpt>
      <trkpt lat="45.90916" lon="4.69916">
        <ele>239.84</ele>
        <time>2025-09-15T12:36:20.039Z</time>
      </trkpt>
      <trkpt lat="45.90914" lon="4.69916">
        <ele>239.89</ele>
        <time>2025-09-15T12:36:21.417Z</time>
      </trkpt>
      <trkpt lat="45.90912" lon="4.69916">
        <ele>239.9</ele>
        <time>2025-09-15T12:36:22.796Z</time>
      </trkpt>
      <trkpt lat="45.90894" lon="4.69912">
        <ele>239.92</ele>
        <time>2025-09-15T12:36:24.184Z</time>
      </trkpt>
      <trkpt lat="45.90888" lon="4.69911">
        <ele>239.89</ele>
        <time>2025-09-15T12:36:25.574Z</time>
      </trkpt>
      <trkpt lat="45.90875" lon="4.69907">
        <ele>239.83</ele>
        <time>2025-09-15T12:36:26.970Z</time>
      </trkpt>
      <trkpt lat="45.90864" lon="4.69901">
        <ele>239.77</ele>
        <time>2025-09-15T12:36:28.371Z</time>
      </trkpt>
      <trkpt lat="45.90862" lon="4.69899">
        <ele>239.67</ele>
        <time>2025-09-15T12:36:29.773Z</time>
      </trkpt>
      <trkpt lat="45.90853" lon="4.69892">
        <ele>239.56</ele>
        <time>2025-09-15T12:36:31.180Z</time>
      </trkpt>
      <trkpt lat="45.90836" lon="4.69887">
        <ele>239.38</ele>
        <time>2025-09-15T12:36:32.594Z</time>
      </trkpt>
      <trkpt lat="45.90818" lon="4.6989">
        <ele>239.18</ele>
        <time>2025-09-15T12:36:34.016Z</time>
      </trkpt>
      <trkpt lat="45.90803" lon="4.6989">
        <ele>238.95</ele>
        <time>2025-09-15T12:36:35.445Z</time>
      </trkpt>
      <trkpt lat="45.9079" lon="4.6989">
        <ele>238.72</ele>
        <time>2025-09-15T12:36:36.879Z</time>
      </trkpt>
      <trkpt lat="45.90786" lon="4.69893">
        <ele>238.53</ele>
        <time>2025-09-15T12:36:38.316Z</time>
      </trkpt>
      <trkpt lat="45.90774" lon="4.69896">
        <ele>238.36</ele>
        <time>2025-09-15T12:36:39.758Z</time>
      </trkpt>
      <trkpt lat="45.90768" lon="4.69896">
        <ele>238.21</ele>
        <time>2025-09-15T12:36:41.203Z</time>
      </trkpt>
      <trkpt lat="45.90757" lon="4.69896">
        <ele>238.07</ele>
        <time>2025-09-15T12:36:42.652Z</time>
      </trkpt>
      <trkpt lat="45.90755" lon="4.69897">
        <ele>237.95</ele>
        <time>2025-09-15T12:36:44.102Z</time>
      </trkpt>
      <trkpt lat="45.90748" lon="4.69898">
        <ele>237.86</ele>
        <time>2025-09-15T12:36:45.556Z</time>
      </trkpt>
      <trkpt lat="45.90742" lon="4.699">
        <ele>237.79</ele>
        <time>2025-09-15T12:36:47.012Z</time>
      </trkpt>
      <trkpt lat="45.90734" lon="4.69903">
        <ele>237.73</ele>
        <time>2025-09-15T12:36:48.472Z</time>
      </trkpt>
      <trkpt lat="45.90715" lon="4.69905">
        <ele>237.73</ele>
        <time>2025-09-15T12:36:49.940Z</time>
      </trkpt>
      <trkpt lat="45.90709" lon="4.69905">
        <ele>237.77</ele>
        <time>2025-09-15T12:36:51.411Z</time>
      </trkpt>
      <trkpt lat="45.907" lon="4.69896">
        <ele>237.89</ele>
        <time>2025-09-15T12:36:52.887Z</time>
      </trkpt>
      <trkpt lat="45.90697" lon="4.69891">
        <ele>238.03</ele>
        <time>2025-09-15T12:36:54.365Z</time>
      </trkpt>
      <trkpt lat="45.90696" lon="4.6988">
        <ele>238.21</ele>
        <time>2025-09-15T12:36:55.846Z</time>
      </trkpt>
      <trkpt lat="45.90694" lon="4.69854">
        <ele>238.46</ele>
        <time>2025-09-15T12:36:57.335Z</time>
      </trkpt>
      <trkpt lat="45.90694" lon="4.69847">
        <ele>238.7</ele>
        <time>2025-09-15T12:36:58.826Z</time>
      </trkpt>
      <trkpt lat="45.90693" lon="4.69845">
        <ele>238.96</ele>
        <time>2025-09-15T12:37:00.318Z</time>
      </trkpt>
      <trkpt lat="45.90692" lon="4.69836">
        <ele>239.27</ele>
        <time>2025-09-15T12:37:01.813Z</time>
      </trkpt>
      <trkpt lat="45.90692" lon="4.69825">
        <ele>239.64</ele>
        <time>2025-09-15T12:37:03.311Z</time>
      </trkpt>
      <trkpt lat="45.90692" lon="4.69822">
        <ele>239.99</ele>
        <time>2025-09-15T12:37:04.810Z</time>
      </trkpt>
      <trkpt lat="45.9069" lon="4.69811">
        <ele>240.39</ele>
        <time>2025-09-15T12:37:06.312Z</time>
      </trkpt>
      <trkpt lat="45.90689" lon="4.69801">
        <ele>240.81</ele>
        <time>2025-09-15T12:37:07.817Z</time>
      </trkpt>
      <trkpt lat="45.9069" lon="4.69798">
        <ele>241.23</ele>
        <time>2025-09-15T12:37:09.323Z</time>
      </trkpt>
      <trkpt lat="45.9069" lon="4.6979">
        <ele>241.71</ele>
        <time>2025-09-15T12:37:10.832Z</time>
      </trkpt>
      <trkpt lat="45.9069" lon="4.69787">
        <ele>242.19</ele>
        <time>2025-09-15T12:37:12.342Z</time>
      </trkpt>
      <trkpt lat="45.90691" lon="4.69779">
        <ele>242.7</ele>
        <time>2025-09-15T12:37:13.854Z</time>
      </trkpt>
      <trkpt lat="45.90692" lon="4.69773">
        <ele>243.21</ele>
        <time>2025-09-15T12:37:15.368Z</time>
      </trkpt>
      <trkpt lat="45.90693" lon="4.69758">
        <ele>243.74</ele>
        <time>2025-09-15T12:37:16.886Z</time>
      </trkpt>
      <trkpt lat="45.90693" lon="4.69753">
        <ele>244.25</ele>
        <time>2025-09-15T12:37:18.406Z</time>
      </trkpt>
      <trkpt lat="45.90693" lon="4.69744">
        <ele>244.78</ele>
        <time>2025-09-15T12:37:19.929Z</time>
      </trkpt>
      <trkpt lat="45.90693" lon="4.69729">
        <ele>245.33</ele>
        <time>2025-09-15T12:37:21.456Z</time>
      </trkpt>
      <trkpt lat="45.90692" lon="4.69721">
        <ele>245.88</ele>
        <time>2025-09-15T12:37:22.986Z</time>
      </trkpt>
      <trkpt lat="45.90692" lon="4.69718">
        <ele>246.42</ele>
        <time>2025-09-15T12:37:24.517Z</time>
      </trkpt>
      <trkpt lat="45.90691" lon="4.69704">
        <ele>247</ele>
        <time>2025-09-15T12:37:26.052Z</time>
      </trkpt>
      <trkpt lat="45.90689" lon="4.69693">
        <ele>247.57</ele>
        <time>2025-09-15T12:37:27.591Z</time>
      </trkpt>
      <trkpt lat="45.90688" lon="4.6969">
        <ele>248.11</ele>
        <time>2025-09-15T12:37:29.131Z</time>
      </trkpt>
      <trkpt lat="45.90684" lon="4.6968">
        <ele>248.68</ele>
        <time>2025-09-15T12:37:30.674Z</time>
      </trkpt>
      <trkpt lat="45.90682" lon="4.69674">
        <ele>249.21</ele>
        <time>2025-09-15T12:37:32.219Z</time>
      </trkpt>
      <trkpt lat="45.9068" lon="4.69669">
        <ele>249.75</ele>
        <time>2025-09-15T12:37:33.766Z</time>
      </trkpt>
      <trkpt lat="45.90674" lon="4.69657">
        <ele>250.32</ele>
        <time>2025-09-15T12:37:35.318Z</time>
      </trkpt>
      <trkpt lat="45.9067" lon="4.69647">
        <ele>250.87</ele>
        <time>2025-09-15T12:37:36.873Z</time>
      </trkpt>
      <trkpt lat="45.90667" lon="4.69638">
        <ele>251.41</ele>
        <time>2025-09-15T12:37:38.431Z</time>
      </trkpt>
      <trkpt lat="45.90663" lon="4.69627">
        <ele>251.96</ele>
        <time>2025-09-15T12:37:39.993Z</time>
      </trkpt>
      <trkpt lat="45.90659" lon="4.69613">
        <ele>252.5</ele>
        <time>2025-09-15T12:37:41.559Z</time>
      </trkpt>
      <trkpt lat="45.90657" lon="4.69605">
        <ele>253.02</ele>
        <time>2025-09-15T12:37:43.128Z</time>
      </trkpt>
      <trkpt lat="45.90653" lon="4.69594">
        <ele>253.53</ele>
        <time>2025-09-15T12:37:44.701Z</time>
      </trkpt>
      <trkpt lat="45.90652" lon="4.69591">
        <ele>254.03</ele>
        <time>2025-09-15T12:37:46.275Z</time>
      </trkpt>
      <trkpt lat="45.90649" lon="4.6958">
        <ele>254.57</ele>
        <time>2025-09-15T12:37:47.853Z</time>
      </trkpt>
      <trkpt lat="45.90647" lon="4.69572">
        <ele>255.1</ele>
        <time>2025-09-15T12:37:49.433Z</time>
      </trkpt>
      <trkpt lat="45.90643" lon="4.69553">
        <ele>255.65</ele>
        <time>2025-09-15T12:37:51.019Z</time>
      </trkpt>
      <trkpt lat="45.90642" lon="4.69547">
        <ele>256.17</ele>
        <time>2025-09-15T12:37:52.607Z</time>
      </trkpt>
      <trkpt lat="45.90641" lon="4.69544">
        <ele>256.71</ele>
        <time>2025-09-15T12:37:54.196Z</time>
      </trkpt>
      <trkpt lat="45.9064" lon="4.69541">
        <ele>257.26</ele>
        <time>2025-09-15T12:37:55.786Z</time>
      </trkpt>
      <trkpt lat="45.90639" lon="4.69529">
        <ele>257.84</ele>
        <time>2025-09-15T12:37:57.380Z</time>
      </trkpt>
      <trkpt lat="45.90639" lon="4.69523">
        <ele>258.45</ele>
        <time>2025-09-15T12:37:58.976Z</time>
      </trkpt>
      <trkpt lat="45.90635" lon="4.69496">
        <ele>259.16</ele>
        <time>2025-09-15T12:38:00.580Z</time>
      </trkpt>
      <trkpt lat="45.90632" lon="4.69487">
        <ele>259.83</ele>
        <time>2025-09-15T12:38:02.187Z</time>
      </trkpt>
      <trkpt lat="45.90627" lon="4.69469">
        <ele>260.56</ele>
        <time>2025-09-15T12:38:03.800Z</time>
      </trkpt>
      <trkpt lat="45.90623" lon="4.69447">
        <ele>261.36</ele>
        <time>2025-09-15T12:38:05.420Z</time>
      </trkpt>
      <trkpt lat="45.90622" lon="4.69441">
        <ele>262.07</ele>
        <time>2025-09-15T12:38:07.042Z</time>
      </trkpt>
      <trkpt lat="45.90619" lon="4.69418">
        <ele>262.81</ele>
        <time>2025-09-15T12:38:08.671Z</time>
      </trkpt>
      <trkpt lat="45.90616" lon="4.69393">
        <ele>263.61</ele>
        <time>2025-09-15T12:38:10.308Z</time>
      </trkpt>
      <trkpt lat="45.90613" lon="4.69376">
        <ele>264.41</ele>
        <time>2025-09-15T12:38:11.950Z</time>
      </trkpt>
      <trkpt lat="45.90612" lon="4.69366">
        <ele>265.22</ele>
        <time>2025-09-15T12:38:13.595Z</time>
      </trkpt>
      <trkpt lat="45.90611" lon="4.69356">
        <ele>266.09</ele>
        <time>2025-09-15T12:38:15.244Z</time>
      </trkpt>
      <trkpt lat="45.90609" lon="4.69337">
        <ele>266.99</ele>
        <time>2025-09-15T12:38:16.899Z</time>
      </trkpt>
      <trkpt lat="45.90609" lon="4.69334">
        <ele>267.84</ele>
        <time>2025-09-15T12:38:18.554Z</time>
      </trkpt>
      <trkpt lat="45.90608" lon="4.69331">
        <ele>268.69</ele>
        <time>2025-09-15T12:38:20.210Z</time>
      </trkpt>
      <trkpt lat="45.90607" lon="4.69312">
        <ele>269.63</ele>
        <time>2025-09-15T12:38:21.872Z</time>
      </trkpt>
      <trkpt lat="45.90603" lon="4.69292">
        <ele>270.54</ele>
        <time>2025-09-15T12:38:23.540Z</time>
      </trkpt>
      <trkpt lat="45.90602" lon="4.69283">
        <ele>271.41</ele>
        <time>2025-09-15T12:38:25.211Z</time>
      </trkpt>
      <trkpt lat="45.90601" lon="4.6928">
        <ele>272.21</ele>
        <time>2025-09-15T12:38:26.883Z</time>
      </trkpt>
      <trkpt lat="45.906" lon="4.69266">
        <ele>273.01</ele>
        <time>2025-09-15T12:38:28.560Z</time>
      </trkpt>
      <trkpt lat="45.90599" lon="4.69253">
        <ele>273.81</ele>
        <time>2025-09-15T12:38:30.240Z</time>
      </trkpt>
      <trkpt lat="45.90599" lon="4.69238">
        <ele>274.63</ele>
        <time>2025-09-15T12:38:31.925Z</time>
      </trkpt>
      <trkpt lat="45.90599" lon="4.69228">
        <ele>275.38</ele>
        <time>2025-09-15T12:38:33.613Z</time>
      </trkpt>
      <trkpt lat="45.90599" lon="4.69219">
        <ele>276.08</ele>
        <time>2025-09-15T12:38:35.304Z</time>
      </trkpt>
      <trkpt lat="45.906" lon="4.69217">
        <ele>276.7</ele>
        <time>2025-09-15T12:38:36.996Z</time>
      </trkpt>
      <trkpt lat="45.90602" lon="4.69204">
        <ele>277.35</ele>
        <time>2025-09-15T12:38:38.692Z</time>
      </trkpt>
      <trkpt lat="45.90602" lon="4.69201">
        <ele>277.87</ele>
        <time>2025-09-15T12:38:40.389Z</time>
      </trkpt>
      <trkpt lat="45.90602" lon="4.69191">
        <ele>278.42</ele>
        <time>2025-09-15T12:38:42.089Z</time>
      </trkpt>
      <trkpt lat="45.906" lon="4.69188">
        <ele>278.84</ele>
        <time>2025-09-15T12:38:43.790Z</time>
      </trkpt>
      <trkpt lat="45.90596" lon="4.69189">
        <ele>279.18</ele>
        <time>2025-09-15T12:38:45.493Z</time>
      </trkpt>
      <trkpt lat="45.90593" lon="4.6919">
        <ele>279.48</ele>
        <time>2025-09-15T12:38:47.197Z</time>
      </trkpt>
      <trkpt lat="45.90592" lon="4.6919">
        <ele>279.75</ele>
        <time>2025-09-15T12:38:48.902Z</time>
      </trkpt>
      <trkpt lat="45.90592" lon="4.69188">
        <ele>279.99</ele>
        <time>2025-09-15T12:38:50.607Z</time>
      </trkpt>
      <trkpt lat="45.90592" lon="4.69188">
        <ele>280.18</ele>
        <time>2025-09-15T12:38:52.312Z</time>
      </trkpt>
      <trkpt lat="45.90585" lon="4.69194">
        <ele>280.29</ele>
        <time>2025-09-15T12:38:54.021Z</time>
      </trkpt>
      <trkpt lat="45.90568" lon="4.69202">
        <ele>280.33</ele>
        <time>2025-09-15T12:38:55.738Z</time>
      </trkpt>
      <trkpt lat="45.90566" lon="4.69203">
        <ele>280.42</ele>
        <time>2025-09-15T12:38:57.456Z</time>
      </trkpt>
      <trkpt lat="45.90555" lon="4.69206">
        <ele>280.49</ele>
        <time>2025-09-15T12:38:59.178Z</time>
      </trkpt>
      <trkpt lat="45.9054" lon="4.69211">
        <ele>280.57</ele>
        <time>2025-09-15T12:39:00.907Z</time>
      </trkpt>
      <trkpt lat="45.90522" lon="4.69216">
        <ele>280.61</ele>
        <time>2025-09-15T12:39:02.644Z</time>
      </trkpt>
      <trkpt lat="45.90516" lon="4.69217">
        <ele>280.64</ele>
        <time>2025-09-15T12:39:04.384Z</time>
      </trkpt>
      <trkpt lat="45.90514" lon="4.69217">
        <ele>280.67</ele>
        <time>2025-09-15T12:39:06.125Z</time>
      </trkpt>
      <trkpt lat="45.90497" lon="4.69218">
        <ele>280.78</ele>
        <time>2025-09-15T12:39:07.873Z</time>
      </trkpt>
      <trkpt lat="45.90485" lon="4.69216">
        <ele>280.9</ele>
        <time>2025-09-15T12:39:09.627Z</time>
      </trkpt>
      <trkpt lat="45.90475" lon="4.69216">
        <ele>280.9</ele>
        <time>2025-09-15T12:39:11.385Z</time>
      </trkpt>
      <trkpt lat="45.90472" lon="4.69216">
        <ele>280.89</ele>
        <time>2025-09-15T12:39:13.144Z</time>
      </trkpt>
      <trkpt lat="45.90465" lon="4.69215">
        <ele>280.9</ele>
        <time>2025-09-15T12:39:14.906Z</time>
      </trkpt>
      <trkpt lat="45.90456" lon="4.69212">
        <ele>280.91</ele>
        <time>2025-09-15T12:39:16.672Z</time>
      </trkpt>
      <trkpt lat="45.90449" lon="4.69211">
        <ele>280.86</ele>
        <time>2025-09-15T12:39:18.441Z</time>
      </trkpt>
      <trkpt lat="45.90445" lon="4.6921">
        <ele>280.81</ele>
        <time>2025-09-15T12:39:20.212Z</time>
      </trkpt>
      <trkpt lat="45.90443" lon="4.69209">
        <ele>280.74</ele>
        <time>2025-09-15T12:39:21.984Z</time>
      </trkpt>
      <trkpt lat="45.9043" lon="4.69204">
        <ele>280.65</ele>
        <time>2025-09-15T12:39:23.762Z</time>
      </trkpt>
      <trkpt lat="45.90419" lon="4.69197">
        <ele>280.61</ele>
        <time>2025-09-15T12:39:25.545Z</time>
      </trkpt>
      <trkpt lat="45.90411" lon="4.69191">
        <ele>280.54</ele>
        <time>2025-09-15T12:39:27.332Z</time>
      </trkpt>
      <trkpt lat="45.90407" lon="4.69189">
        <ele>280.42</ele>
        <time>2025-09-15T12:39:29.121Z</time>
      </trkpt>
      <trkpt lat="45.90398" lon="4.69182">
        <ele>280.3</ele>
        <time>2025-09-15T12:39:30.915Z</time>
      </trkpt>
      <trkpt lat="45.90396" lon="4.69181">
        <ele>280.12</ele>
        <time>2025-09-15T12:39:32.709Z</time>
      </trkpt>
      <trkpt lat="45.90382" lon="4.69176">
        <ele>279.88</ele>
        <time>2025-09-15T12:39:34.510Z</time>
      </trkpt>
      <trkpt lat="45.90377" lon="4.69175">
        <ele>279.65</ele>
        <time>2025-09-15T12:39:36.313Z</time>
      </trkpt>
      <trkpt lat="45.9036" lon="4.69172">
        <ele>279.36</ele>
        <time>2025-09-15T12:39:38.124Z</time>
      </trkpt>
      <trkpt lat="45.90342" lon="4.69167">
        <ele>279.07</ele>
        <time>2025-09-15T12:39:39.943Z</time>
      </trkpt>
      <trkpt lat="45.90337" lon="4.69166">
        <ele>278.86</ele>
        <time>2025-09-15T12:39:41.764Z</time>
      </trkpt>
      <trkpt lat="45.90319" lon="4.69162">
        <ele>278.62</ele>
        <time>2025-09-15T12:39:43.593Z</time>
      </trkpt>
      <trkpt lat="45.90317" lon="4.6916">
        <ele>278.46</ele>
        <time>2025-09-15T12:39:45.423Z</time>
      </trkpt>
      <trkpt lat="45.90308" lon="4.69154">
        <ele>278.34</ele>
        <time>2025-09-15T12:39:47.257Z</time>
      </trkpt>
      <trkpt lat="45.90296" lon="4.69145">
        <ele>278.25</ele>
        <time>2025-09-15T12:39:49.097Z</time>
      </trkpt>
      <trkpt lat="45.90279" lon="4.69132">
        <ele>278.17</ele>
        <time>2025-09-15T12:39:50.946Z</time>
      </trkpt>
      <trkpt lat="45.90274" lon="4.69129">
        <ele>278.14</ele>
        <time>2025-09-15T12:39:52.797Z</time>
      </trkpt>
      <trkpt lat="45.90256" lon="4.69118">
        <ele>278.15</ele>
        <time>2025-09-15T12:39:54.657Z</time>
      </trkpt>
      <trkpt lat="45.90254" lon="4.69116">
        <ele>278.21</ele>
        <time>2025-09-15T12:39:56.518Z</time>
      </trkpt>
      <trkpt lat="45.90252" lon="4.69115">
        <ele>278.31</ele>
        <time>2025-09-15T12:39:58.380Z</time>
      </trkpt>
      <trkpt lat="45.90239" lon="4.69104">
        <ele>278.48</ele>
        <time>2025-09-15T12:40:00.248Z</time>
      </trkpt>
      <trkpt lat="45.90237" lon="4.69102">
        <ele>278.68</ele>
        <time>2025-09-15T12:40:02.117Z</time>
      </trkpt>
      <trkpt lat="45.9022" lon="4.69088">
        <ele>278.95</ele>
        <time>2025-09-15T12:40:03.995Z</time>
      </trkpt>
      <trkpt lat="45.90204" lon="4.69075">
        <ele>279.32</ele>
        <time>2025-09-15T12:40:05.881Z</time>
      </trkpt>
      <trkpt lat="45.90203" lon="4.69073">
        <ele>279.66</ele>
        <time>2025-09-15T12:40:07.768Z</time>
      </trkpt>
      <trkpt lat="45.90193" lon="4.69057">
        <ele>280.13</ele>
        <time>2025-09-15T12:40:09.661Z</time>
      </trkpt>
      <trkpt lat="45.90194" lon="4.69053">
        <ele>280.56</ele>
        <time>2025-09-15T12:40:11.556Z</time>
      </trkpt>
      <trkpt lat="45.90198" lon="4.6905">
        <ele>281.01</ele>
        <time>2025-09-15T12:40:13.453Z</time>
      </trkpt>
      <trkpt lat="45.90203" lon="4.69043">
        <ele>281.52</ele>
        <time>2025-09-15T12:40:15.353Z</time>
      </trkpt>
      <trkpt lat="45.90204" lon="4.69042">
        <ele>282.04</ele>
        <time>2025-09-15T12:40:17.253Z</time>
      </trkpt>
      <trkpt lat="45.9021" lon="4.69037">
        <ele>282.58</ele>
        <time>2025-09-15T12:40:19.157Z</time>
      </trkpt>
      <trkpt lat="45.9022" lon="4.69025">
        <ele>283.2</ele>
        <time>2025-09-15T12:40:21.066Z</time>
      </trkpt>
      <trkpt lat="45.90221" lon="4.69022">
        <ele>283.8</ele>
        <time>2025-09-15T12:40:22.976Z</time>
      </trkpt>
      <trkpt lat="45.90227" lon="4.69014">
        <ele>284.47</ele>
        <time>2025-09-15T12:40:24.890Z</time>
      </trkpt>
      <trkpt lat="45.90231" lon="4.69007">
        <ele>285.16</ele>
        <time>2025-09-15T12:40:26.806Z</time>
      </trkpt>
      <trkpt lat="45.90244" lon="4.68999">
        <ele>285.84</ele>
        <time>2025-09-15T12:40:28.729Z</time>
      </trkpt>
      <trkpt lat="45.90254" lon="4.68989">
        <ele>286.55</ele>
        <time>2025-09-15T12:40:30.657Z</time>
      </trkpt>
      <trkpt lat="45.90264" lon="4.68981">
        <ele>287.3</ele>
        <time>2025-09-15T12:40:32.590Z</time>
      </trkpt>
      <trkpt lat="45.90266" lon="4.6898">
        <ele>288.01</ele>
        <time>2025-09-15T12:40:34.524Z</time>
      </trkpt>
      <trkpt lat="45.90278" lon="4.68967">
        <ele>288.82</ele>
        <time>2025-09-15T12:40:36.465Z</time>
      </trkpt>
      <trkpt lat="45.90286" lon="4.68958">
        <ele>289.6</ele>
        <time>2025-09-15T12:40:38.410Z</time>
      </trkpt>
      <trkpt lat="45.90292" lon="4.68952">
        <ele>290.35</ele>
        <time>2025-09-15T12:40:40.358Z</time>
      </trkpt>
      <trkpt lat="45.903" lon="4.68947">
        <ele>291.09</ele>
        <time>2025-09-15T12:40:42.310Z</time>
      </trkpt>
      <trkpt lat="45.90303" lon="4.68939">
        <ele>291.85</ele>
        <time>2025-09-15T12:40:44.265Z</time>
      </trkpt>
      <trkpt lat="45.90306" lon="4.68934">
        <ele>292.55</ele>
        <time>2025-09-15T12:40:46.222Z</time>
      </trkpt>
      <trkpt lat="45.9031" lon="4.68928">
        <ele>293.24</ele>
        <time>2025-09-15T12:40:48.182Z</time>
      </trkpt>
      <trkpt lat="45.9032" lon="4.68921">
        <ele>293.89</ele>
        <time>2025-09-15T12:40:50.146Z</time>
      </trkpt>
      <trkpt lat="45.90322" lon="4.6892">
        <ele>294.55</ele>
        <time>2025-09-15T12:40:52.111Z</time>
      </trkpt>
      <trkpt lat="45.90337" lon="4.68905">
        <ele>295.29</ele>
        <time>2025-09-15T12:40:54.084Z</time>
      </trkpt>
      <trkpt lat="45.90341" lon="4.68903">
        <ele>295.94</ele>
        <time>2025-09-15T12:40:56.059Z</time>
      </trkpt>
      <trkpt lat="45.90354" lon="4.68894">
        <ele>296.62</ele>
        <time>2025-09-15T12:40:58.041Z</time>
      </trkpt>
      <trkpt lat="45.90357" lon="4.68893">
        <ele>297.23</ele>
        <time>2025-09-15T12:41:00.024Z</time>
      </trkpt>
      <trkpt lat="45.90367" lon="4.68887">
        <ele>297.88</ele>
        <time>2025-09-15T12:41:02.012Z</time>
      </trkpt>
      <trkpt lat="45.90377" lon="4.68866">
        <ele>298.56</ele>
        <time>2025-09-15T12:41:04.007Z</time>
      </trkpt>
      <trkpt lat="45.90381" lon="4.68852">
        <ele>299.18</ele>
        <time>2025-09-15T12:41:06.007Z</time>
      </trkpt>
      <trkpt lat="45.90384" lon="4.68846">
        <ele>299.75</ele>
        <time>2025-09-15T12:41:08.009Z</time>
      </trkpt>
      <trkpt lat="45.90386" lon="4.68843">
        <ele>300.31</ele>
        <time>2025-09-15T12:41:10.012Z</time>
      </trkpt>
      <trkpt lat="45.90388" lon="4.68841">
        <ele>300.87</ele>
        <time>2025-09-15T12:41:12.017Z</time>
      </trkpt>
      <trkpt lat="45.9039" lon="4.68838">
        <ele>301.41</ele>
        <time>2025-09-15T12:41:14.023Z</time>
      </trkpt>
      <trkpt lat="45.90393" lon="4.68834">
        <ele>301.96</ele>
        <time>2025-09-15T12:41:16.031Z</time>
      </trkpt>
      <trkpt lat="45.90397" lon="4.68825">
        <ele>302.55</ele>
        <time>2025-09-15T12:41:18.042Z</time>
      </trkpt>
      <trkpt lat="45.90401" lon="4.68814">
        <ele>303.16</ele>
        <time>2025-09-15T12:41:20.057Z</time>
      </trkpt>
      <trkpt lat="45.90405" lon="4.68804">
        <ele>303.75</ele>
        <time>2025-09-15T12:41:22.075Z</time>
      </trkpt>
      <trkpt lat="45.90406" lon="4.68801">
        <ele>304.31</ele>
        <time>2025-09-15T12:41:24.094Z</time>
      </trkpt>
      <trkpt lat="45.90409" lon="4.68787">
        <ele>304.93</ele>
        <time>2025-09-15T12:41:26.118Z</time>
      </trkpt>
      <trkpt lat="45.9041" lon="4.68785">
        <ele>305.51</ele>
        <time>2025-09-15T12:41:28.143Z</time>
      </trkpt>
      <trkpt lat="45.90415" lon="4.68776">
        <ele>306.13</ele>
        <time>2025-09-15T12:41:30.171Z</time>
      </trkpt>
      <trkpt lat="45.90419" lon="4.6877">
        <ele>306.74</ele>
        <time>2025-09-15T12:41:32.202Z</time>
      </trkpt>
      <trkpt lat="45.90421" lon="4.68768">
        <ele>307.34</ele>
        <time>2025-09-15T12:41:34.234Z</time>
      </trkpt>
      <trkpt lat="45.90427" lon="4.68757">
        <ele>308.01</ele>
        <time>2025-09-15T12:41:36.270Z</time>
      </trkpt>
      <trkpt lat="45.90432" lon="4.68751">
        <ele>308.66</ele>
        <time>2025-09-15T12:41:38.309Z</time>
      </trkpt>
      <trkpt lat="45.90433" lon="4.68749">
        <ele>309.28</ele>
        <time>2025-09-15T12:41:40.349Z</time>
      </trkpt>
      <trkpt lat="45.90438" lon="4.6874">
        <ele>309.95</ele>
        <time>2025-09-15T12:41:42.392Z</time>
      </trkpt>
      <trkpt lat="45.90438" lon="4.68736">
        <ele>310.58</ele>
        <time>2025-09-15T12:41:44.436Z</time>
      </trkpt>
      <trkpt lat="45.90438" lon="4.68735">
        <ele>311.19</ele>
        <time>2025-09-15T12:41:46.481Z</time>
      </trkpt>
      <trkpt lat="45.90436" lon="4.68726">
        <ele>311.86</ele>
        <time>2025-09-15T12:41:48.529Z</time>
      </trkpt>
      <trkpt lat="45.90434" lon="4.68707">
        <ele>312.55</ele>
        <time>2025-09-15T12:41:50.582Z</time>
      </trkpt>
      <trkpt lat="45.90435" lon="4.68703">
        <ele>313.18</ele>
        <time>2025-09-15T12:41:52.637Z</time>
      </trkpt>
      <trkpt lat="45.90437" lon="4.68689">
        <ele>313.86</ele>
        <time>2025-09-15T12:41:54.696Z</time>
      </trkpt>
      <trkpt lat="45.90438" lon="4.68684">
        <ele>314.49</ele>
        <time>2025-09-15T12:41:56.757Z</time>
      </trkpt>
      <trkpt lat="45.90438" lon="4.68681">
        <ele>315.1</ele>
        <time>2025-09-15T12:41:58.819Z</time>
      </trkpt>
      <trkpt lat="45.90438" lon="4.68675">
        <ele>315.74</ele>
        <time>2025-09-15T12:42:00.882Z</time>
      </trkpt>
      <trkpt lat="45.90439" lon="4.6867">
        <ele>316.38</ele>
        <time>2025-09-15T12:42:02.947Z</time>
      </trkpt>
      <trkpt lat="45.90439" lon="4.68667">
        <ele>316.98</ele>
        <time>2025-09-15T12:42:05.013Z</time>
      </trkpt>
      <trkpt lat="45.90441" lon="4.68664">
        <ele>317.59</ele>
        <time>2025-09-15T12:42:07.080Z</time>
      </trkpt>
      <trkpt lat="45.90442" lon="4.68662">
        <ele>318.18</ele>
        <time>2025-09-15T12:42:09.148Z</time>
      </trkpt>
      <trkpt lat="45.90447" lon="4.68659">
        <ele>318.78</ele>
        <time>2025-09-15T12:42:11.218Z</time>
      </trkpt>
      <trkpt lat="45.90449" lon="4.68659">
        <ele>319.33</ele>
        <time>2025-09-15T12:42:13.289Z</time>
      </trkpt>
      <trkpt lat="45.90455" lon="4.68658">
        <ele>319.9</ele>
        <time>2025-09-15T12:42:15.363Z</time>
      </trkpt>
      <trkpt lat="45.90457" lon="4.68657">
        <ele>320.44</ele>
        <time>2025-09-15T12:42:17.438Z</time>
      </trkpt>
      <trkpt lat="45.90464" lon="4.68653">
        <ele>320.99</ele>
        <time>2025-09-15T12:42:19.516Z</time>
      </trkpt>
      <trkpt lat="45.90469" lon="4.68652">
        <ele>321.54</ele>
        <time>2025-09-15T12:42:21.596Z</time>
      </trkpt>
      <trkpt lat="45.90477" lon="4.68649">
        <ele>322.1</ele>
        <time>2025-09-15T12:42:23.680Z</time>
      </trkpt>
      <trkpt lat="45.90479" lon="4.68649">
        <ele>322.62</ele>
        <time>2025-09-15T12:42:25.765Z</time>
      </trkpt>
      <trkpt lat="45.90483" lon="4.68646">
        <ele>323.16</ele>
        <time>2025-09-15T12:42:27.852Z</time>
      </trkpt>
      <trkpt lat="45.90485" lon="4.68645">
        <ele>323.68</ele>
        <time>2025-09-15T12:42:29.940Z</time>
      </trkpt>
      <trkpt lat="45.9049" lon="4.68644">
        <ele>324.21</ele>
        <time>2025-09-15T12:42:32.030Z</time>
      </trkpt>
      <trkpt lat="45.90491" lon="4.68642">
        <ele>324.73</ele>
        <time>2025-09-15T12:42:34.120Z</time>
      </trkpt>
      <trkpt lat="45.90496" lon="4.68636">
        <ele>325.27</ele>
        <time>2025-09-15T12:42:36.213Z</time>
      </trkpt>
      <trkpt lat="45.90498" lon="4.68635">
        <ele>325.79</ele>
        <time>2025-09-15T12:42:38.307Z</time>
      </trkpt>
      <trkpt lat="45.90506" lon="4.68629">
        <ele>326.34</ele>
        <time>2025-09-15T12:42:40.405Z</time>
      </trkpt>
      <trkpt lat="45.90511" lon="4.68624">
        <ele>326.88</ele>
        <time>2025-09-15T12:42:42.506Z</time>
      </trkpt>
      <trkpt lat="45.90512" lon="4.68622">
        <ele>327.38</ele>
        <time>2025-09-15T12:42:44.608Z</time>
      </trkpt>
      <trkpt lat="45.90518" lon="4.68615">
        <ele>327.91</ele>
        <time>2025-09-15T12:42:46.713Z</time>
      </trkpt>
      <trkpt lat="45.9052" lon="4.68611">
        <ele>328.43</ele>
        <time>2025-09-15T12:42:48.820Z</time>
      </trkpt>
      <trkpt lat="45.90527" lon="4.68604">
        <ele>328.96</ele>
        <time>2025-09-15T12:42:50.930Z</time>
      </trkpt>
      <trkpt lat="45.90534" lon="4.68596">
        <ele>329.51</ele>
        <time>2025-09-15T12:42:53.044Z</time>
      </trkpt>
      <trkpt lat="45.90537" lon="4.68591">
        <ele>330.01</ele>
        <time>2025-09-15T12:42:55.160Z</time>
      </trkpt>
      <trkpt lat="45.90538" lon="4.68589">
        <ele>330.48</ele>
        <time>2025-09-15T12:42:57.277Z</time>
      </trkpt>
      <trkpt lat="45.9054" lon="4.68586">
        <ele>330.95</ele>
        <time>2025-09-15T12:42:59.395Z</time>
      </trkpt>
      <trkpt lat="45.90544" lon="4.68584">
        <ele>331.38</ele>
        <time>2025-09-15T12:43:01.515Z</time>
      </trkpt>
      <trkpt lat="45.9055" lon="4.68575">
        <ele>331.83</ele>
        <time>2025-09-15T12:43:03.639Z</time>
      </trkpt>
      <trkpt lat="45.90553" lon="4.68572">
        <ele>332.27</ele>
        <time>2025-09-15T12:43:05.764Z</time>
      </trkpt>
      <trkpt lat="45.90555" lon="4.68564">
        <ele>332.76</ele>
        <time>2025-09-15T12:43:07.892Z</time>
      </trkpt>
      <trkpt lat="45.90555" lon="4.68562">
        <ele>333.18</ele>
        <time>2025-09-15T12:43:10.021Z</time>
      </trkpt>
      <trkpt lat="45.90554" lon="4.68561">
        <ele>333.58</ele>
        <time>2025-09-15T12:43:12.150Z</time>
      </trkpt>
      <trkpt lat="45.90554" lon="4.68557">
        <ele>333.98</ele>
        <time>2025-09-15T12:43:14.280Z</time>
      </trkpt>
      <trkpt lat="45.90556" lon="4.6855">
        <ele>334.38</ele>
        <time>2025-09-15T12:43:16.413Z</time>
      </trkpt>
      <trkpt lat="45.90558" lon="4.68541">
        <ele>334.76</ele>
        <time>2025-09-15T12:43:18.548Z</time>
      </trkpt>
      <trkpt lat="45.90558" lon="4.68539">
        <ele>335.12</ele>
        <time>2025-09-15T12:43:20.684Z</time>
      </trkpt>
      <trkpt lat="45.9056" lon="4.68535">
        <ele>335.48</ele>
        <time>2025-09-15T12:43:22.822Z</time>
      </trkpt>
      <trkpt lat="45.90561" lon="4.68533">
        <ele>335.83</ele>
        <time>2025-09-15T12:43:24.960Z</time>
      </trkpt>
      <trkpt lat="45.90562" lon="4.68532">
        <ele>336.19</ele>
        <time>2025-09-15T12:43:27.099Z</time>
      </trkpt>
      <trkpt lat="45.90563" lon="4.68533">
        <ele>336.53</ele>
        <time>2025-09-15T12:43:29.238Z</time>
      </trkpt>
      <trkpt lat="45.90569" lon="4.6853">
        <ele>336.9</ele>
        <time>2025-09-15T12:43:31.380Z</time>
      </trkpt>
      <trkpt lat="45.90573" lon="4.68526">
        <ele>337.27</ele>
        <time>2025-09-15T12:43:33.524Z</time>
      </trkpt>
      <trkpt lat="45.90573" lon="4.68525">
        <ele>337.64</ele>
        <time>2025-09-15T12:43:35.669Z</time>
      </trkpt>
      <trkpt lat="45.90573" lon="4.68523">
        <ele>338.01</ele>
        <time>2025-09-15T12:43:37.814Z</time>
      </trkpt>
      <trkpt lat="45.90573" lon="4.6852">
        <ele>338.39</ele>
        <time>2025-09-15T12:43:39.960Z</time>
      </trkpt>
      <trkpt lat="45.90571" lon="4.68517">
        <ele>338.77</ele>
        <time>2025-09-15T12:43:42.107Z</time>
      </trkpt>
      <trkpt lat="45.9057" lon="4.68515">
        <ele>339.15</ele>
        <time>2025-09-15T12:43:44.255Z</time>
      </trkpt>
      <trkpt lat="45.90566" lon="4.68508">
        <ele>339.54</ele>
        <time>2025-09-15T12:43:46.406Z</time>
      </trkpt>
      <trkpt lat="45.90565" lon="4.68507">
        <ele>339.91</ele>
        <time>2025-09-15T12:43:48.557Z</time>
      </trkpt>
      <trkpt lat="45.90562" lon="4.68504">
        <ele>340.29</ele>
        <time>2025-09-15T12:43:50.710Z</time>
      </trkpt>
      <trkpt lat="45.90558" lon="4.685">
        <ele>340.67</ele>
        <time>2025-09-15T12:43:52.865Z</time>
      </trkpt>
      <trkpt lat="45.90558" lon="4.68498">
        <ele>340.99</ele>
        <time>2025-09-15T12:43:55.020Z</time>
      </trkpt>
      <trkpt lat="45.9055" lon="4.68494">
        <ele>341.35</ele>
        <time>2025-09-15T12:43:57.179Z</time>
      </trkpt>
      <trkpt lat="45.90544" lon="4.68495">
        <ele>341.62</ele>
        <time>2025-09-15T12:43:59.341Z</time>
      </trkpt>
      <trkpt lat="45.90534" lon="4.68494">
        <ele>341.86</ele>
        <time>2025-09-15T12:44:01.507Z</time>
      </trkpt>
      <trkpt lat="45.90526" lon="4.68491">
        <ele>342.05</ele>
        <time>2025-09-15T12:44:03.677Z</time>
      </trkpt>
      <trkpt lat="45.90519" lon="4.68489">
        <ele>342.2</ele>
        <time>2025-09-15T12:44:05.850Z</time>
      </trkpt>
      <trkpt lat="45.90511" lon="4.68484">
        <ele>342.3</ele>
        <time>2025-09-15T12:44:08.027Z</time>
      </trkpt>
      <trkpt lat="45.90509" lon="4.68485">
        <ele>342.3</ele>
        <time>2025-09-15T12:44:10.205Z</time>
      </trkpt>
      <trkpt lat="45.90495" lon="4.68483">
        <ele>342.23</ele>
        <time>2025-09-15T12:44:12.389Z</time>
      </trkpt>
      <trkpt lat="45.90479" lon="4.6848">
        <ele>342.12</ele>
        <time>2025-09-15T12:44:14.580Z</time>
      </trkpt>
      <trkpt lat="45.90467" lon="4.68481">
        <ele>341.93</ele>
        <time>2025-09-15T12:44:16.776Z</time>
      </trkpt>
      <trkpt lat="45.90453" lon="4.68481">
        <ele>341.67</ele>
        <time>2025-09-15T12:44:18.978Z</time>
      </trkpt>
      <trkpt lat="45.90438" lon="4.68479">
        <ele>341.3</ele>
        <time>2025-09-15T12:44:21.187Z</time>
      </trkpt>
      <trkpt lat="45.90433" lon="4.68476">
        <ele>340.9</ele>
        <time>2025-09-15T12:44:23.398Z</time>
      </trkpt>
      <trkpt lat="45.9043" lon="4.68474">
        <ele>340.44</ele>
        <time>2025-09-15T12:44:25.611Z</time>
      </trkpt>
      <trkpt lat="45.90423" lon="4.68468">
        <ele>339.88</ele>
        <time>2025-09-15T12:44:27.827Z</time>
      </trkpt>
      <trkpt lat="45.90421" lon="4.68467">
        <ele>339.28</ele>
        <time>2025-09-15T12:44:30.044Z</time>
      </trkpt>
      <trkpt lat="45.90411" lon="4.6846">
        <ele>338.58</ele>
        <time>2025-09-15T12:44:32.266Z</time>
      </trkpt>
      <trkpt lat="45.9041" lon="4.68457">
        <ele>337.88</ele>
        <time>2025-09-15T12:44:34.489Z</time>
      </trkpt>
      <trkpt lat="45.90409" lon="4.68456">
        <ele>337.14</ele>
        <time>2025-09-15T12:44:36.712Z</time>
      </trkpt>
      <trkpt lat="45.90406" lon="4.68455">
        <ele>336.32</ele>
        <time>2025-09-15T12:44:38.937Z</time>
      </trkpt>
      <trkpt lat="45.9039" lon="4.68458">
        <ele>335.33</ele>
        <time>2025-09-15T12:44:41.169Z</time>
      </trkpt>
      <trkpt lat="45.90384" lon="4.68458">
        <ele>334.41</ele>
        <time>2025-09-15T12:44:43.404Z</time>
      </trkpt>
      <trkpt lat="45.90374" lon="4.68458">
        <ele>333.46</ele>
        <time>2025-09-15T12:44:45.643Z</time>
      </trkpt>
      <trkpt lat="45.90367" lon="4.68458">
        <ele>332.54</ele>
        <time>2025-09-15T12:44:47.885Z</time>
      </trkpt>
      <trkpt lat="45.90357" lon="4.68457">
        <ele>331.62</ele>
        <time>2025-09-15T12:44:50.132Z</time>
      </trkpt>
      <trkpt lat="45.90349" lon="4.68457">
        <ele>330.69</ele>
        <time>2025-09-15T12:44:52.382Z</time>
      </trkpt>
      <trkpt lat="45.90341" lon="4.68457">
        <ele>329.77</ele>
        <time>2025-09-15T12:44:54.636Z</time>
      </trkpt>
      <trkpt lat="45.90338" lon="4.68457">
        <ele>328.89</ele>
        <time>2025-09-15T12:44:56.891Z</time>
      </trkpt>
      <trkpt lat="45.90335" lon="4.68457">
        <ele>328.05</ele>
        <time>2025-09-15T12:44:59.147Z</time>
      </trkpt>
      <trkpt lat="45.90331" lon="4.68455">
        <ele>327.22</ele>
        <time>2025-09-15T12:45:01.405Z</time>
      </trkpt>
      <trkpt lat="45.90322" lon="4.68455">
        <ele>326.4</ele>
        <time>2025-09-15T12:45:03.667Z</time>
      </trkpt>
      <trkpt lat="45.90317" lon="4.68454">
        <ele>325.61</ele>
        <time>2025-09-15T12:45:05.931Z</time>
      </trkpt>
      <trkpt lat="45.90309" lon="4.68453">
        <ele>324.91</ele>
        <time>2025-09-15T12:45:08.199Z</time>
      </trkpt>
      <trkpt lat="45.903" lon="4.68452">
        <ele>324.26</ele>
        <time>2025-09-15T12:45:10.471Z</time>
      </trkpt>
      <trkpt lat="45.90297" lon="4.68452">
        <ele>323.66</ele>
        <time>2025-09-15T12:45:12.744Z</time>
      </trkpt>
      <trkpt lat="45.90291" lon="4.68451">
        <ele>323.12</ele>
        <time>2025-09-15T12:45:15.020Z</time>
      </trkpt>
      <trkpt lat="45.90282" lon="4.6845">
        <ele>322.62</ele>
        <time>2025-09-15T12:45:17.299Z</time>
      </trkpt>
      <trkpt lat="45.90277" lon="4.68449">
        <ele>322.19</ele>
        <time>2025-09-15T12:45:19.581Z</time>
      </trkpt>
      <trkpt lat="45.90269" lon="4.68446">
        <ele>321.83</ele>
        <time>2025-09-15T12:45:21.867Z</time>
      </trkpt>
      <trkpt lat="45.90266" lon="4.68444">
        <ele>321.55</ele>
        <time>2025-09-15T12:45:24.154Z</time>
      </trkpt>
      <trkpt lat="45.90254" lon="4.68438">
        <ele>321.33</ele>
        <time>2025-09-15T12:45:26.447Z</time>
      </trkpt>
      <trkpt lat="45.90235" lon="4.68431">
        <ele>321.2</ele>
        <time>2025-09-15T12:45:28.748Z</time>
      </trkpt>
      <trkpt lat="45.90229" lon="4.6843">
        <ele>321.14</ele>
        <time>2025-09-15T12:45:31.052Z</time>
      </trkpt>
      <trkpt lat="45.9022" lon="4.68428">
        <ele>321.13</ele>
        <time>2025-09-15T12:45:33.360Z</time>
      </trkpt>
      <trkpt lat="45.90209" lon="4.68428">
        <ele>321.2</ele>
        <time>2025-09-15T12:45:35.673Z</time>
      </trkpt>
      <trkpt lat="45.90194" lon="4.68428">
        <ele>321.34</ele>
        <time>2025-09-15T12:45:37.992Z</time>
      </trkpt>
      <trkpt lat="45.90191" lon="4.68416">
        <ele>321.63</ele>
        <time>2025-09-15T12:45:40.315Z</time>
      </trkpt>
      <trkpt lat="45.90188" lon="4.68408">
        <ele>322</ele>
        <time>2025-09-15T12:45:42.641Z</time>
      </trkpt>
      <trkpt lat="45.90185" lon="4.68393">
        <ele>322.46</ele>
        <time>2025-09-15T12:45:44.972Z</time>
      </trkpt>
      <trkpt lat="45.90182" lon="4.68376">
        <ele>323.12</ele>
        <time>2025-09-15T12:45:47.308Z</time>
      </trkpt>
      <trkpt lat="45.9018" lon="4.68365">
        <ele>323.81</ele>
        <time>2025-09-15T12:45:49.647Z</time>
      </trkpt>
      <trkpt lat="45.90179" lon="4.68362">
        <ele>324.55</ele>
        <time>2025-09-15T12:45:51.987Z</time>
      </trkpt>
      <trkpt lat="45.90177" lon="4.68349">
        <ele>325.45</ele>
        <time>2025-09-15T12:45:54.332Z</time>
      </trkpt>
      <trkpt lat="45.90177" lon="4.68347">
        <ele>326.32</ele>
        <time>2025-09-15T12:45:56.677Z</time>
      </trkpt>
      <trkpt lat="45.90174" lon="4.68336">
        <ele>327.35</ele>
        <time>2025-09-15T12:45:59.026Z</time>
      </trkpt>
      <trkpt lat="45.90172" lon="4.68325">
        <ele>328.44</ele>
        <time>2025-09-15T12:46:01.378Z</time>
      </trkpt>
      <trkpt lat="45.90171" lon="4.68315">
        <ele>329.56</ele>
        <time>2025-09-15T12:46:03.733Z</time>
      </trkpt>
      <trkpt lat="45.90169" lon="4.68307">
        <ele>330.68</ele>
        <time>2025-09-15T12:46:06.091Z</time>
      </trkpt>
      <trkpt lat="45.90169" lon="4.68302">
        <ele>331.79</ele>
        <time>2025-09-15T12:46:08.451Z</time>
      </trkpt>
      <trkpt lat="45.90173" lon="4.68293">
        <ele>332.89</ele>
        <time>2025-09-15T12:46:10.814Z</time>
      </trkpt>
      <trkpt lat="45.90175" lon="4.68287">
        <ele>333.98</ele>
        <time>2025-09-15T12:46:13.179Z</time>
      </trkpt>
      <trkpt lat="45.90181" lon="4.68282">
        <ele>335.07</ele>
        <time>2025-09-15T12:46:15.547Z</time>
      </trkpt>
      <trkpt lat="45.90183" lon="4.68281">
        <ele>336.16</ele>
        <time>2025-09-15T12:46:17.916Z</time>
      </trkpt>
      <trkpt lat="45.90189" lon="4.68275">
        <ele>337.29</ele>
        <time>2025-09-15T12:46:20.288Z</time>
      </trkpt>
      <trkpt lat="45.90194" lon="4.6827">
        <ele>338.41</ele>
        <time>2025-09-15T12:46:22.663Z</time>
      </trkpt>
      <trkpt lat="45.90196" lon="4.68269">
        <ele>339.48</ele>
        <time>2025-09-15T12:46:25.038Z</time>
      </trkpt>
      <trkpt lat="45.90204" lon="4.68257">
        <ele>340.65</ele>
        <time>2025-09-15T12:46:27.419Z</time>
      </trkpt>
      <trkpt lat="45.90207" lon="4.68251">
        <ele>341.74</ele>
        <time>2025-09-15T12:46:29.802Z</time>
      </trkpt>
      <trkpt lat="45.9021" lon="4.68246">
        <ele>342.78</ele>
        <time>2025-09-15T12:46:32.187Z</time>
      </trkpt>
      <trkpt lat="45.90212" lon="4.68242">
        <ele>343.79</ele>
        <time>2025-09-15T12:46:34.574Z</time>
      </trkpt>
      <trkpt lat="45.90216" lon="4.68237">
        <ele>344.79</ele>
        <time>2025-09-15T12:46:36.963Z</time>
      </trkpt>
      <trkpt lat="45.90222" lon="4.68231">
        <ele>345.74</ele>
        <time>2025-09-15T12:46:39.355Z</time>
      </trkpt>
      <trkpt lat="45.90237" lon="4.68216">
        <ele>346.73</ele>
        <time>2025-09-15T12:46:41.755Z</time>
      </trkpt>
      <trkpt lat="45.90241" lon="4.68213">
        <ele>347.62</ele>
        <time>2025-09-15T12:46:44.157Z</time>
      </trkpt>
      <trkpt lat="45.90245" lon="4.68211">
        <ele>348.48</ele>
        <time>2025-09-15T12:46:46.561Z</time>
      </trkpt>
      <trkpt lat="45.90253" lon="4.68202">
        <ele>349.41</ele>
        <time>2025-09-15T12:46:48.969Z</time>
      </trkpt>
      <trkpt lat="45.90257" lon="4.68191">
        <ele>350.32</ele>
        <time>2025-09-15T12:46:51.381Z</time>
      </trkpt>
      <trkpt lat="45.90266" lon="4.68177">
        <ele>351.29</ele>
        <time>2025-09-15T12:46:53.799Z</time>
      </trkpt>
      <trkpt lat="45.9027" lon="4.68169">
        <ele>352.12</ele>
        <time>2025-09-15T12:46:56.220Z</time>
      </trkpt>
      <trkpt lat="45.90275" lon="4.68158">
        <ele>352.93</ele>
        <time>2025-09-15T12:46:58.645Z</time>
      </trkpt>
      <trkpt lat="45.90276" lon="4.68157">
        <ele>353.6</ele>
        <time>2025-09-15T12:47:01.071Z</time>
      </trkpt>
      <trkpt lat="45.90279" lon="4.68153">
        <ele>354.24</ele>
        <time>2025-09-15T12:47:03.498Z</time>
      </trkpt>
      <trkpt lat="45.90287" lon="4.68144">
        <ele>354.87</ele>
        <time>2025-09-15T12:47:05.930Z</time>
      </trkpt>
      <trkpt lat="45.90288" lon="4.68141">
        <ele>355.45</ele>
        <time>2025-09-15T12:47:08.363Z</time>
      </trkpt>
      <trkpt lat="45.9029" lon="4.68137">
        <ele>356.01</ele>
        <time>2025-09-15T12:47:10.797Z</time>
      </trkpt>
      <trkpt lat="45.90295" lon="4.68128">
        <ele>356.56</ele>
        <time>2025-09-15T12:47:13.235Z</time>
      </trkpt>
      <trkpt lat="45.90296" lon="4.68126">
        <ele>357.08</ele>
        <time>2025-09-15T12:47:15.674Z</time>
      </trkpt>
      <trkpt lat="45.903" lon="4.68119">
        <ele>357.56</ele>
        <time>2025-09-15T12:47:18.115Z</time>
      </trkpt>
      <trkpt lat="45.90306" lon="4.68106">
        <ele>358.09</ele>
        <time>2025-09-15T12:47:20.561Z</time>
      </trkpt>
      <trkpt lat="45.90306" lon="4.68104">
        <ele>358.58</ele>
        <time>2025-09-15T12:47:23.008Z</time>
      </trkpt>
      <trkpt lat="45.9031" lon="4.68096">
        <ele>359.06</ele>
        <time>2025-09-15T12:47:25.458Z</time>
      </trkpt>
      <trkpt lat="45.90313" lon="4.68088">
        <ele>359.54</ele>
        <time>2025-09-15T12:47:27.910Z</time>
      </trkpt>
      <trkpt lat="45.90316" lon="4.68084">
        <ele>360.05</ele>
        <time>2025-09-15T12:47:30.364Z</time>
      </trkpt>
      <trkpt lat="45.90319" lon="4.6807">
        <ele>360.64</ele>
        <time>2025-09-15T12:47:32.823Z</time>
      </trkpt>
      <trkpt lat="45.9032" lon="4.68067">
        <ele>361.21</ele>
        <time>2025-09-15T12:47:35.283Z</time>
      </trkpt>
      <trkpt lat="45.90322" lon="4.68054">
        <ele>361.84</ele>
        <time>2025-09-15T12:47:37.747Z</time>
      </trkpt>
      <trkpt lat="45.90322" lon="4.6805">
        <ele>362.47</ele>
        <time>2025-09-15T12:47:40.212Z</time>
      </trkpt>
      <trkpt lat="45.90324" lon="4.68033">
        <ele>363.19</ele>
        <time>2025-09-15T12:47:42.682Z</time>
      </trkpt>
      <trkpt lat="45.90325" lon="4.68025">
        <ele>363.9</ele>
        <time>2025-09-15T12:47:45.155Z</time>
      </trkpt>
      <trkpt lat="45.90325" lon="4.68011">
        <ele>364.67</ele>
        <time>2025-09-15T12:47:47.632Z</time>
      </trkpt>
      <trkpt lat="45.90325" lon="4.68002">
        <ele>365.42</ele>
        <time>2025-09-15T12:47:50.112Z</time>
      </trkpt>
      <trkpt lat="45.90325" lon="4.67997">
        <ele>366.18</ele>
        <time>2025-09-15T12:47:52.593Z</time>
      </trkpt>
      <trkpt lat="45.90324" lon="4.67991">
        <ele>366.98</ele>
        <time>2025-09-15T12:47:55.076Z</time>
      </trkpt>
      <trkpt lat="45.90326" lon="4.67981">
        <ele>367.79</ele>
        <time>2025-09-15T12:47:57.562Z</time>
      </trkpt>
      <trkpt lat="45.90325" lon="4.67973">
        <ele>368.61</ele>
        <time>2025-09-15T12:48:00.051Z</time>
      </trkpt>
      <trkpt lat="45.90326" lon="4.67962">
        <ele>369.45</ele>
        <time>2025-09-15T12:48:02.543Z</time>
      </trkpt>
      <trkpt lat="45.90327" lon="4.67951">
        <ele>370.3</ele>
        <time>2025-09-15T12:48:05.039Z</time>
      </trkpt>
      <trkpt lat="45.90327" lon="4.67948">
        <ele>371.09</ele>
        <time>2025-09-15T12:48:07.535Z</time>
      </trkpt>
      <trkpt lat="45.90324" lon="4.67944">
        <ele>371.93</ele>
        <time>2025-09-15T12:48:10.033Z</time>
      </trkpt>
      <trkpt lat="45.90319" lon="4.67942">
        <ele>372.76</ele>
        <time>2025-09-15T12:48:12.534Z</time>
      </trkpt>
      <trkpt lat="45.90315" lon="4.67942">
        <ele>373.55</ele>
        <time>2025-09-15T12:48:15.036Z</time>
      </trkpt>
      <trkpt lat="45.90313" lon="4.67942">
        <ele>374.28</ele>
        <time>2025-09-15T12:48:17.539Z</time>
      </trkpt>
      <trkpt lat="45.90311" lon="4.67942">
        <ele>374.98</ele>
        <time>2025-09-15T12:48:20.043Z</time>
      </trkpt>
      <trkpt lat="45.90309" lon="4.67942">
        <ele>375.65</ele>
        <time>2025-09-15T12:48:22.548Z</time>
      </trkpt>
      <trkpt lat="45.90306" lon="4.67942">
        <ele>376.31</ele>
        <time>2025-09-15T12:48:25.054Z</time>
      </trkpt>
      <trkpt lat="45.90302" lon="4.67943">
        <ele>376.92</ele>
        <time>2025-09-15T12:48:27.562Z</time>
      </trkpt>
      <trkpt lat="45.90298" lon="4.67944">
        <ele>377.49</ele>
        <time>2025-09-15T12:48:30.072Z</time>
      </trkpt>
      <trkpt lat="45.90296" lon="4.67946">
        <ele>378</ele>
        <time>2025-09-15T12:48:32.583Z</time>
      </trkpt>
      <trkpt lat="45.90292" lon="4.67949">
        <ele>378.46</ele>
        <time>2025-09-15T12:48:35.096Z</time>
      </trkpt>
      <trkpt lat="45.90286" lon="4.67953">
        <ele>378.87</ele>
        <time>2025-09-15T12:48:37.612Z</time>
      </trkpt>
      <trkpt lat="45.90284" lon="4.67954">
        <ele>379.2</ele>
        <time>2025-09-15T12:48:40.129Z</time>
      </trkpt>
      <trkpt lat="45.90279" lon="4.67954">
        <ele>379.49</ele>
        <time>2025-09-15T12:48:42.648Z</time>
      </trkpt>
      <trkpt lat="45.90275" lon="4.67958">
        <ele>379.7</ele>
        <time>2025-09-15T12:48:45.169Z</time>
      </trkpt>
      <trkpt lat="45.90271" lon="4.67961">
        <ele>379.83</ele>
        <time>2025-09-15T12:48:47.692Z</time>
      </trkpt>
      <trkpt lat="45.90267" lon="4.67969">
        <ele>379.88</ele>
        <time>2025-09-15T12:48:50.218Z</time>
      </trkpt>
      <trkpt lat="45.90265" lon="4.67971">
        <ele>379.87</ele>
        <time>2025-09-15T12:48:52.745Z</time>
      </trkpt>
      <trkpt lat="45.90263" lon="4.67972">
        <ele>379.79</ele>
        <time>2025-09-15T12:48:55.273Z</time>
      </trkpt>
      <trkpt lat="45.9026" lon="4.67975">
        <ele>379.62</ele>
        <time>2025-09-15T12:48:57.803Z</time>
      </trkpt>
      <trkpt lat="45.9026" lon="4.6798">
        <ele>379.37</ele>
        <time>2025-09-15T12:49:00.334Z</time>
      </trkpt>
      <trkpt lat="45.90259" lon="4.67985">
        <ele>379.04</ele>
        <time>2025-09-15T12:49:02.867Z</time>
      </trkpt>
      <trkpt lat="45.90258" lon="4.67996">
        <ele>378.61</ele>
        <time>2025-09-15T12:49:05.403Z</time>
      </trkpt>
      <trkpt lat="45.90257" lon="4.67999">
        <ele>378.17</ele>
        <time>2025-09-15T12:49:07.940Z</time>
      </trkpt>
      <trkpt lat="45.90255" lon="4.68011">
        <ele>377.61</ele>
        <time>2025-09-15T12:49:10.481Z</time>
      </trkpt>
      <trkpt lat="45.90254" lon="4.68013">
        <ele>377.07</ele>
        <time>2025-09-15T12:49:13.023Z</time>
      </trkpt>
      <trkpt lat="45.90251" lon="4.68016">
        <ele>376.48</ele>
        <time>2025-09-15T12:49:15.566Z</time>
      </trkpt>
      <trkpt lat="45.90238" lon="4.68027">
        <ele>375.76</ele>
        <time>2025-09-15T12:49:18.116Z</time>
      </trkpt>
      <trkpt lat="45.90236" lon="4.68031">
        <ele>375.08</ele>
        <time>2025-09-15T12:49:20.667Z</time>
      </trkpt>
      <trkpt lat="45.90227" lon="4.68038">
        <ele>374.37</ele>
        <time>2025-09-15T12:49:23.223Z</time>
      </trkpt>
      <trkpt lat="45.90223" lon="4.68041">
        <ele>373.66</ele>
        <time>2025-09-15T12:49:25.781Z</time>
      </trkpt>
      <trkpt lat="45.9022" lon="4.68042">
        <ele>372.93</ele>
        <time>2025-09-15T12:49:28.340Z</time>
      </trkpt>
      <trkpt lat="45.90207" lon="4.68048">
        <ele>372.17</ele>
        <time>2025-09-15T12:49:30.905Z</time>
      </trkpt>
      <trkpt lat="45.9019" lon="4.68053">
        <ele>371.37</ele>
        <time>2025-09-15T12:49:33.478Z</time>
      </trkpt>
      <trkpt lat="45.90177" lon="4.68059">
        <ele>370.55</ele>
        <time>2025-09-15T12:49:36.057Z</time>
      </trkpt>
      <trkpt lat="45.90172" lon="4.6806">
        <ele>369.75</ele>
        <time>2025-09-15T12:49:38.638Z</time>
      </trkpt>
      <trkpt lat="45.90166" lon="4.68063">
        <ele>368.95</ele>
        <time>2025-09-15T12:49:41.222Z</time>
      </trkpt>
      <trkpt lat="45.90163" lon="4.68064">
        <ele>368.16</ele>
        <time>2025-09-15T12:49:43.807Z</time>
      </trkpt>
      <trkpt lat="45.90148" lon="4.68067">
        <ele>367.31</ele>
        <time>2025-09-15T12:49:46.398Z</time>
      </trkpt>
      <trkpt lat="45.90137" lon="4.68068">
        <ele>366.45</ele>
        <time>2025-09-15T12:49:48.994Z</time>
      </trkpt>
      <trkpt lat="45.90131" lon="4.6807">
        <ele>365.63</ele>
        <time>2025-09-15T12:49:51.593Z</time>
      </trkpt>
      <trkpt lat="45.90115" lon="4.6808">
        <ele>364.74</ele>
        <time>2025-09-15T12:49:54.200Z</time>
      </trkpt>
      <trkpt lat="45.90106" lon="4.68084">
        <ele>363.95</ele>
        <time>2025-09-15T12:49:56.811Z</time>
      </trkpt>
      <trkpt lat="45.90093" lon="4.68086">
        <ele>363.17</ele>
        <time>2025-09-15T12:49:59.428Z</time>
      </trkpt>
      <trkpt lat="45.90087" lon="4.68088">
        <ele>362.43</ele>
        <time>2025-09-15T12:50:02.047Z</time>
      </trkpt>
      <trkpt lat="45.90079" lon="4.68089">
        <ele>361.7</ele>
        <time>2025-09-15T12:50:04.670Z</time>
      </trkpt>
      <trkpt lat="45.90077" lon="4.6809">
        <ele>360.99</ele>
        <time>2025-09-15T12:50:07.294Z</time>
      </trkpt>
      <trkpt lat="45.90067" lon="4.68091">
        <ele>360.26</ele>
        <time>2025-09-15T12:50:09.922Z</time>
      </trkpt>
      <trkpt lat="45.90064" lon="4.68089">
        <ele>359.53</ele>
        <time>2025-09-15T12:50:12.551Z</time>
      </trkpt>
      <trkpt lat="45.90062" lon="4.68086">
        <ele>358.81</ele>
        <time>2025-09-15T12:50:15.182Z</time>
      </trkpt>
      <trkpt lat="45.90059" lon="4.68071">
        <ele>358.07</ele>
        <time>2025-09-15T12:50:17.818Z</time>
      </trkpt>
      <trkpt lat="45.90056" lon="4.68049">
        <ele>357.41</ele>
        <time>2025-09-15T12:50:20.461Z</time>
      </trkpt>
      <trkpt lat="45.90054" lon="4.68047">
        <ele>356.66</ele>
        <time>2025-09-15T12:50:23.105Z</time>
      </trkpt>
      <trkpt lat="45.90042" lon="4.68046">
        <ele>355.82</ele>
        <time>2025-09-15T12:50:25.754Z</time>
      </trkpt>
      <trkpt lat="45.90035" lon="4.68044">
        <ele>354.96</ele>
        <time>2025-09-15T12:50:28.406Z</time>
      </trkpt>
      <trkpt lat="45.90022" lon="4.68039">
        <ele>354.02</ele>
        <time>2025-09-15T12:50:31.064Z</time>
      </trkpt>
      <trkpt lat="45.9002" lon="4.68038">
        <ele>353.14</ele>
        <time>2025-09-15T12:50:33.723Z</time>
      </trkpt>
      <trkpt lat="45.90008" lon="4.68031">
        <ele>352.16</ele>
        <time>2025-09-15T12:50:36.387Z</time>
      </trkpt>
      <trkpt lat="45.90001" lon="4.68027">
        <ele>351.18</ele>
        <time>2025-09-15T12:50:39.055Z</time>
      </trkpt>
      <trkpt lat="45.89999" lon="4.68025">
        <ele>350.24</ele>
        <time>2025-09-15T12:50:41.724Z</time>
      </trkpt>
      <trkpt lat="45.89983" lon="4.68013">
        <ele>349.14</ele>
        <time>2025-09-15T12:50:44.401Z</time>
      </trkpt>
      <trkpt lat="45.89981" lon="4.68011">
        <ele>348.17</ele>
        <time>2025-09-15T12:50:47.079Z</time>
      </trkpt>
      <trkpt lat="45.89979" lon="4.6801">
        <ele>347.19</ele>
        <time>2025-09-15T12:50:49.758Z</time>
      </trkpt>
      <trkpt lat="45.89972" lon="4.68009">
        <ele>346.16</ele>
        <time>2025-09-15T12:50:52.440Z</time>
      </trkpt>
      <trkpt lat="45.89962" lon="4.68007">
        <ele>345.09</ele>
        <time>2025-09-15T12:50:55.126Z</time>
      </trkpt>
      <trkpt lat="45.89954" lon="4.68004">
        <ele>344.06</ele>
        <time>2025-09-15T12:50:57.816Z</time>
      </trkpt>
      <trkpt lat="45.89945" lon="4.67999">
        <ele>343.03</ele>
        <time>2025-09-15T12:51:00.510Z</time>
      </trkpt>
      <trkpt lat="45.89943" lon="4.67997">
        <ele>342.06</ele>
        <time>2025-09-15T12:51:03.205Z</time>
      </trkpt>
      <trkpt lat="45.89941" lon="4.67995">
        <ele>341.12</ele>
        <time>2025-09-15T12:51:05.901Z</time>
      </trkpt>
      <trkpt lat="45.89935" lon="4.67991">
        <ele>340.16</ele>
        <time>2025-09-15T12:51:08.600Z</time>
      </trkpt>
      <trkpt lat="45.89933" lon="4.67989">
        <ele>339.24</ele>
        <time>2025-09-15T12:51:11.300Z</time>
      </trkpt>
      <trkpt lat="45.89929" lon="4.67986">
        <ele>338.34</ele>
        <time>2025-09-15T12:51:14.002Z</time>
      </trkpt>
      <trkpt lat="45.89926" lon="4.67982">
        <ele>337.49</ele>
        <time>2025-09-15T12:51:16.706Z</time>
      </trkpt>
      <trkpt lat="45.8992" lon="4.67972">
        <ele>336.63</ele>
        <time>2025-09-15T12:51:19.414Z</time>
      </trkpt>
      <trkpt lat="45.89917" lon="4.67962">
        <ele>335.82</ele>
        <time>2025-09-15T12:51:22.125Z</time>
      </trkpt>
      <trkpt lat="45.89916" lon="4.67959">
        <ele>335.06</ele>
        <time>2025-09-15T12:51:24.837Z</time>
      </trkpt>
      <trkpt lat="45.89913" lon="4.67955">
        <ele>334.32</ele>
        <time>2025-09-15T12:51:27.551Z</time>
      </trkpt>
      <trkpt lat="45.89908" lon="4.67949">
        <ele>333.61</ele>
        <time>2025-09-15T12:51:30.268Z</time>
      </trkpt>
      <trkpt lat="45.89905" lon="4.67947">
        <ele>332.97</ele>
        <time>2025-09-15T12:51:32.987Z</time>
      </trkpt>
      <trkpt lat="45.89903" lon="4.67948">
        <ele>332.39</ele>
        <time>2025-09-15T12:51:35.706Z</time>
      </trkpt>
      <trkpt lat="45.89896" lon="4.67951">
        <ele>331.82</ele>
        <time>2025-09-15T12:51:38.429Z</time>
      </trkpt>
      <trkpt lat="45.89885" lon="4.67955">
        <ele>331.3</ele>
        <time>2025-09-15T12:51:41.157Z</time>
      </trkpt>
      <trkpt lat="45.89878" lon="4.67958">
        <ele>330.85</ele>
        <time>2025-09-15T12:51:43.888Z</time>
      </trkpt>
      <trkpt lat="45.89861" lon="4.67962">
        <ele>330.44</ele>
        <time>2025-09-15T12:51:46.626Z</time>
      </trkpt>
      <trkpt lat="45.89844" lon="4.67966">
        <ele>330.11</ele>
        <time>2025-09-15T12:51:49.372Z</time>
      </trkpt>
      <trkpt lat="45.89839" lon="4.67967">
        <ele>329.93</ele>
        <time>2025-09-15T12:51:52.120Z</time>
      </trkpt>
      <trkpt lat="45.89825" lon="4.67967">
        <ele>329.82</ele>
        <time>2025-09-15T12:51:54.874Z</time>
      </trkpt>
      <trkpt lat="45.89809" lon="4.67962">
        <ele>329.8</ele>
        <time>2025-09-15T12:51:57.636Z</time>
      </trkpt>
      <trkpt lat="45.89804" lon="4.67951">
        <ele>329.94</ele>
        <time>2025-09-15T12:52:00.402Z</time>
      </trkpt>
      <trkpt lat="45.89804" lon="4.67948">
        <ele>330.11</ele>
        <time>2025-09-15T12:52:03.168Z</time>
      </trkpt>
      <trkpt lat="45.89805" lon="4.67937">
        <ele>330.4</ele>
        <time>2025-09-15T12:52:05.938Z</time>
      </trkpt>
      <trkpt lat="45.89805" lon="4.67932">
        <ele>330.74</ele>
        <time>2025-09-15T12:52:08.709Z</time>
      </trkpt>
      <trkpt lat="45.89804" lon="4.67924">
        <ele>331.18</ele>
        <time>2025-09-15T12:52:11.483Z</time>
      </trkpt>
      <trkpt lat="45.89805" lon="4.67912">
        <ele>331.73</ele>
        <time>2025-09-15T12:52:14.261Z</time>
      </trkpt>
      <trkpt lat="45.89806" lon="4.67907">
        <ele>332.31</ele>
        <time>2025-09-15T12:52:17.040Z</time>
      </trkpt>
      <trkpt lat="45.89805" lon="4.67897">
        <ele>332.98</ele>
        <time>2025-09-15T12:52:19.822Z</time>
      </trkpt>
      <trkpt lat="45.89805" lon="4.67892">
        <ele>333.69</ele>
        <time>2025-09-15T12:52:22.606Z</time>
      </trkpt>
      <trkpt lat="45.89805" lon="4.6789">
        <ele>334.45</ele>
        <time>2025-09-15T12:52:25.390Z</time>
      </trkpt>
      <trkpt lat="45.89805" lon="4.67885">
        <ele>335.26</ele>
        <time>2025-09-15T12:52:28.176Z</time>
      </trkpt>
      <trkpt lat="45.89805" lon="4.67877">
        <ele>336.16</ele>
        <time>2025-09-15T12:52:30.964Z</time>
      </trkpt>
      <trkpt lat="45.89805" lon="4.67868">
        <ele>337.12</ele>
        <time>2025-09-15T12:52:33.755Z</time>
      </trkpt>
      <trkpt lat="45.89805" lon="4.67866">
        <ele>338.08</ele>
        <time>2025-09-15T12:52:36.547Z</time>
      </trkpt>
      <trkpt lat="45.89805" lon="4.67864">
        <ele>339.09</ele>
        <time>2025-09-15T12:52:39.339Z</time>
      </trkpt>
      <trkpt lat="45.89805" lon="4.67854">
        <ele>340.19</ele>
        <time>2025-09-15T12:52:42.134Z</time>
      </trkpt>
      <trkpt lat="45.89804" lon="4.67844">
        <ele>341.31</ele>
        <time>2025-09-15T12:52:44.932Z</time>
      </trkpt>
      <trkpt lat="45.89803" lon="4.67839">
        <ele>342.42</ele>
        <time>2025-09-15T12:52:47.732Z</time>
      </trkpt>
      <trkpt lat="45.89804" lon="4.67828">
        <ele>343.64</ele>
        <time>2025-09-15T12:52:50.536Z</time>
      </trkpt>
      <trkpt lat="45.89804" lon="4.67825">
        <ele>344.77</ele>
        <time>2025-09-15T12:52:53.340Z</time>
      </trkpt>
      <trkpt lat="45.89803" lon="4.67816">
        <ele>345.95</ele>
        <time>2025-09-15T12:52:56.147Z</time>
      </trkpt>
      <trkpt lat="45.89803" lon="4.67804">
        <ele>347.16</ele>
        <time>2025-09-15T12:52:58.958Z</time>
      </trkpt>
      <trkpt lat="45.89802" lon="4.67798">
        <ele>348.33</ele>
        <time>2025-09-15T12:53:01.771Z</time>
      </trkpt>
      <trkpt lat="45.89802" lon="4.67794">
        <ele>349.47</ele>
        <time>2025-09-15T12:53:04.585Z</time>
      </trkpt>
      <trkpt lat="45.89802" lon="4.67789">
        <ele>350.61</ele>
        <time>2025-09-15T12:53:07.400Z</time>
      </trkpt>
      <trkpt lat="45.89802" lon="4.67785">
        <ele>351.73</ele>
        <time>2025-09-15T12:53:10.217Z</time>
      </trkpt>
      <trkpt lat="45.89802" lon="4.67781">
        <ele>352.8</ele>
        <time>2025-09-15T12:53:13.035Z</time>
      </trkpt>
      <trkpt lat="45.89802" lon="4.67776">
        <ele>353.85</ele>
        <time>2025-09-15T12:53:15.855Z</time>
      </trkpt>
      <trkpt lat="45.89802" lon="4.67771">
        <ele>354.86</ele>
        <time>2025-09-15T12:53:18.676Z</time>
      </trkpt>
      <trkpt lat="45.89802" lon="4.67763">
        <ele>355.85</ele>
        <time>2025-09-15T12:53:21.499Z</time>
      </trkpt>
      <trkpt lat="45.89802" lon="4.67751">
        <ele>356.86</ele>
        <time>2025-09-15T12:53:24.326Z</time>
      </trkpt>
      <trkpt lat="45.89802" lon="4.67741">
        <ele>357.78</ele>
        <time>2025-09-15T12:53:27.156Z</time>
      </trkpt>
      <trkpt lat="45.89802" lon="4.67735">
        <ele>358.59</ele>
        <time>2025-09-15T12:53:29.988Z</time>
      </trkpt>
      <trkpt lat="45.89802" lon="4.67728">
        <ele>359.34</ele>
        <time>2025-09-15T12:53:32.822Z</time>
      </trkpt>
      <trkpt lat="45.89802" lon="4.67726">
        <ele>359.99</ele>
        <time>2025-09-15T12:53:35.657Z</time>
      </trkpt>
      <trkpt lat="45.89802" lon="4.67721">
        <ele>360.6</ele>
        <time>2025-09-15T12:53:38.493Z</time>
      </trkpt>
      <trkpt lat="45.89802" lon="4.67714">
        <ele>361.17</ele>
        <time>2025-09-15T12:53:41.331Z</time>
      </trkpt>
      <trkpt lat="45.89801" lon="4.67708">
        <ele>361.66</ele>
        <time>2025-09-15T12:53:44.171Z</time>
      </trkpt>
      <trkpt lat="45.898" lon="4.67708">
        <ele>362.01</ele>
        <time>2025-09-15T12:53:47.012Z</time>
      </trkpt>
      <trkpt lat="45.898" lon="4.67704">
        <ele>362.33</ele>
        <time>2025-09-15T12:53:49.854Z</time>
      </trkpt>
      <trkpt lat="45.89801" lon="4.67705">
        <ele>362.54</ele>
        <time>2025-09-15T12:53:52.696Z</time>
      </trkpt>
      <trkpt lat="45.89804" lon="4.67708">
        <ele>362.66</ele>
        <time>2025-09-15T12:53:55.540Z</time>
      </trkpt>
      <trkpt lat="45.89804" lon="4.67712">
        <ele>362.73</ele>
        <time>2025-09-15T12:53:58.385Z</time>
      </trkpt>
      <trkpt lat="45.89804" lon="4.67721">
        <ele>362.7</ele>
        <time>2025-09-15T12:54:01.232Z</time>
      </trkpt>
      <trkpt lat="45.89803" lon="4.67729">
        <ele>362.65</ele>
        <time>2025-09-15T12:54:04.082Z</time>
      </trkpt>
      <trkpt lat="45.89804" lon="4.67737">
        <ele>362.62</ele>
        <time>2025-09-15T12:54:06.935Z</time>
      </trkpt>
      <trkpt lat="45.89806" lon="4.67745">
        <ele>362.59</ele>
        <time>2025-09-15T12:54:09.790Z</time>
      </trkpt>
      <trkpt lat="45.89805" lon="4.67747">
        <ele>362.59</ele>
        <time>2025-09-15T12:54:12.646Z</time>
      </trkpt>
      <trkpt lat="45.89804" lon="4.67743">
        <ele>362.68</ele>
        <time>2025-09-15T12:54:15.503Z</time>
      </trkpt>
      <trkpt lat="45.89802" lon="4.67731">
        <ele>362.83</ele>
        <time>2025-09-15T12:54:18.364Z</time>
      </trkpt>
      <trkpt lat="45.89802" lon="4.67729">
        <ele>362.92</ele>
        <time>2025-09-15T12:54:21.226Z</time>
      </trkpt>
      <trkpt lat="45.89802" lon="4.67724">
        <ele>363.07</ele>
        <time>2025-09-15T12:54:24.089Z</time>
      </trkpt>
      <trkpt lat="45.89802" lon="4.67716">
        <ele>363.28</ele>
        <time>2025-09-15T12:54:26.955Z</time>
      </trkpt>
      <trkpt lat="45.89802" lon="4.67711">
        <ele>363.47</ele>
        <time>2025-09-15T12:54:29.822Z</time>
      </trkpt>
      <trkpt lat="45.89802" lon="4.67708">
        <ele>363.65</ele>
        <time>2025-09-15T12:54:32.690Z</time>
      </trkpt>
      <trkpt lat="45.89801" lon="4.67706">
        <ele>363.85</ele>
        <time>2025-09-15T12:54:35.559Z</time>
      </trkpt>
      <trkpt lat="45.89797" lon="4.67704">
        <ele>364.05</ele>
        <time>2025-09-15T12:54:38.430Z</time>
      </trkpt>
      <trkpt lat="45.89791" lon="4.67707">
        <ele>364.22</ele>
        <time>2025-09-15T12:54:41.303Z</time>
      </trkpt>
      <trkpt lat="45.89787" lon="4.67711">
        <ele>364.39</ele>
        <time>2025-09-15T12:54:44.179Z</time>
      </trkpt>
      <trkpt lat="45.89785" lon="4.67714">
        <ele>364.59</ele>
        <time>2025-09-15T12:54:47.056Z</time>
      </trkpt>
      <trkpt lat="45.89782" lon="4.67715">
        <ele>364.82</ele>
        <time>2025-09-15T12:54:49.934Z</time>
      </trkpt>
      <trkpt lat="45.89777" lon="4.67714">
        <ele>365.11</ele>
        <time>2025-09-15T12:54:52.815Z</time>
      </trkpt>
      <trkpt lat="45.89768" lon="4.67705">
        <ele>365.49</ele>
        <time>2025-09-15T12:54:55.700Z</time>
      </trkpt>
      <trkpt lat="45.89764" lon="4.67705">
        <ele>365.78</ele>
        <time>2025-09-15T12:54:58.587Z</time>
      </trkpt>
      <trkpt lat="45.89756" lon="4.67706">
        <ele>366.06</ele>
        <time>2025-09-15T12:55:01.477Z</time>
      </trkpt>
      <trkpt lat="45.89754" lon="4.67704">
        <ele>366.38</ele>
        <time>2025-09-15T12:55:04.368Z</time>
      </trkpt>
      <trkpt lat="45.89753" lon="4.67702">
        <ele>366.71</ele>
        <time>2025-09-15T12:55:07.260Z</time>
      </trkpt>
      <trkpt lat="45.89749" lon="4.67695">
        <ele>367.12</ele>
        <time>2025-09-15T12:55:10.155Z</time>
      </trkpt>
      <trkpt lat="45.89735" lon="4.67696">
        <ele>367.38</ele>
        <time>2025-09-15T12:55:13.056Z</time>
      </trkpt>
      <trkpt lat="45.89726" lon="4.67697">
        <ele>367.64</ele>
        <time>2025-09-15T12:55:15.961Z</time>
      </trkpt>
      <trkpt lat="45.89721" lon="4.67698">
        <ele>367.9</ele>
        <time>2025-09-15T12:55:18.869Z</time>
      </trkpt>
      <trkpt lat="45.89716" lon="4.67696">
        <ele>368.17</ele>
        <time>2025-09-15T12:55:21.779Z</time>
      </trkpt>
      <trkpt lat="45.89713" lon="4.67694">
        <ele>368.41</ele>
        <time>2025-09-15T12:55:24.690Z</time>
      </trkpt>
      <trkpt lat="45.89697" lon="4.67688">
        <ele>368.66</ele>
        <time>2025-09-15T12:55:27.608Z</time>
      </trkpt>
      <trkpt lat="45.89683" lon="4.67687">
        <ele>368.68</ele>
        <time>2025-09-15T12:55:30.533Z</time>
      </trkpt>
      <trkpt lat="45.89669" lon="4.67684">
        <ele>368.71</ele>
        <time>2025-09-15T12:55:33.464Z</time>
      </trkpt>
      <trkpt lat="45.89666" lon="4.67684">
        <ele>368.74</ele>
        <time>2025-09-15T12:55:36.396Z</time>
      </trkpt>
      <trkpt lat="45.89648" lon="4.6768">
        <ele>368.75</ele>
        <time>2025-09-15T12:55:39.336Z</time>
      </trkpt>
      <trkpt lat="45.8963" lon="4.67681">
        <ele>368.68</ele>
        <time>2025-09-15T12:55:42.284Z</time>
      </trkpt>
      <trkpt lat="45.89613" lon="4.67675">
        <ele>368.62</ele>
        <time>2025-09-15T12:55:45.240Z</time>
      </trkpt>
      <trkpt lat="45.89594" lon="4.6767">
        <ele>368.5</ele>
        <time>2025-09-15T12:55:48.204Z</time>
      </trkpt>
      <trkpt lat="45.89584" lon="4.67667">
        <ele>368.35</ele>
        <time>2025-09-15T12:55:51.173Z</time>
      </trkpt>
      <trkpt lat="45.89579" lon="4.67665">
        <ele>368.19</ele>
        <time>2025-09-15T12:55:54.144Z</time>
      </trkpt>
      <trkpt lat="45.8956" lon="4.6767">
        <ele>367.81</ele>
        <time>2025-09-15T12:55:57.123Z</time>
      </trkpt>
      <trkpt lat="45.89551" lon="4.67675">
        <ele>367.53</ele>
        <time>2025-09-15T12:56:00.107Z</time>
      </trkpt>
      <trkpt lat="45.8954" lon="4.67675">
        <ele>367.28</ele>
        <time>2025-09-15T12:56:03.095Z</time>
      </trkpt>
      <trkpt lat="45.89538" lon="4.67676">
        <ele>367.01</ele>
        <time>2025-09-15T12:56:06.084Z</time>
      </trkpt>
      <trkpt lat="45.89533" lon="4.67676">
        <ele>366.73</ele>
        <time>2025-09-15T12:56:09.076Z</time>
      </trkpt>
      <trkpt lat="45.89528" lon="4.67676">
        <ele>366.44</ele>
        <time>2025-09-15T12:56:12.070Z</time>
      </trkpt>
      <trkpt lat="45.89521" lon="4.67676">
        <ele>366.15</ele>
        <time>2025-09-15T12:56:15.067Z</time>
      </trkpt>
      <trkpt lat="45.89516" lon="4.67676">
        <ele>365.83</ele>
        <time>2025-09-15T12:56:18.066Z</time>
      </trkpt>
      <trkpt lat="45.89502" lon="4.6768">
        <ele>365.51</ele>
        <time>2025-09-15T12:56:21.071Z</time>
      </trkpt>
      <trkpt lat="45.895" lon="4.6768">
        <ele>365.17</ele>
        <time>2025-09-15T12:56:24.077Z</time>
      </trkpt>
      <trkpt lat="45.89489" lon="4.67684">
        <ele>364.79</ele>
        <time>2025-09-15T12:56:27.088Z</time>
      </trkpt>
      <trkpt lat="45.89487" lon="4.67684">
        <ele>364.41</ele>
        <time>2025-09-15T12:56:30.100Z</time>
      </trkpt>
      <trkpt lat="45.89486" lon="4.67684">
        <ele>364.01</ele>
        <time>2025-09-15T12:56:33.113Z</time>
      </trkpt>
      <trkpt lat="45.89481" lon="4.67683">
        <ele>363.61</ele>
        <time>2025-09-15T12:56:36.128Z</time>
      </trkpt>
      <trkpt lat="45.89476" lon="4.67683">
        <ele>363.16</ele>
        <time>2025-09-15T12:56:39.145Z</time>
      </trkpt>
      <trkpt lat="45.89472" lon="4.67684">
        <ele>362.67</ele>
        <time>2025-09-15T12:56:42.164Z</time>
      </trkpt>
      <trkpt lat="45.89467" lon="4.67685">
        <ele>362.15</ele>
        <time>2025-09-15T12:56:45.185Z</time>
      </trkpt>
      <trkpt lat="45.8946" lon="4.67684">
        <ele>361.64</ele>
        <time>2025-09-15T12:56:48.209Z</time>
      </trkpt>
      <trkpt lat="45.89446" lon="4.67684">
        <ele>361.02</ele>
        <time>2025-09-15T12:56:51.239Z</time>
      </trkpt>
      <trkpt lat="45.89444" lon="4.67684">
        <ele>360.43</ele>
        <time>2025-09-15T12:56:54.270Z</time>
      </trkpt>
      <trkpt lat="45.89432" lon="4.67683">
        <ele>359.78</ele>
        <time>2025-09-15T12:56:57.306Z</time>
      </trkpt>
      <trkpt lat="45.89423" lon="4.67681">
        <ele>359.14</ele>
        <time>2025-09-15T12:57:00.346Z</time>
      </trkpt>
      <trkpt lat="45.89407" lon="4.67681">
        <ele>358.43</ele>
        <time>2025-09-15T12:57:03.393Z</time>
      </trkpt>
      <trkpt lat="45.89405" lon="4.67681">
        <ele>357.76</ele>
        <time>2025-09-15T12:57:06.441Z</time>
      </trkpt>
      <trkpt lat="45.89397" lon="4.6768">
        <ele>357.06</ele>
        <time>2025-09-15T12:57:09.493Z</time>
      </trkpt>
      <trkpt lat="45.89381" lon="4.67682">
        <ele>356.29</ele>
        <time>2025-09-15T12:57:12.552Z</time>
      </trkpt>
      <trkpt lat="45.89379" lon="4.67682">
        <ele>355.6</ele>
        <time>2025-09-15T12:57:15.612Z</time>
      </trkpt>
      <trkpt lat="45.89368" lon="4.67679">
        <ele>354.88</ele>
        <time>2025-09-15T12:57:18.677Z</time>
      </trkpt>
      <trkpt lat="45.89362" lon="4.67678">
        <ele>354.17</ele>
        <time>2025-09-15T12:57:21.744Z</time>
      </trkpt>
      <trkpt lat="45.89351" lon="4.67677">
        <ele>353.42</ele>
        <time>2025-09-15T12:57:24.816Z</time>
      </trkpt>
      <trkpt lat="45.89338" lon="4.67674">
        <ele>352.67</ele>
        <time>2025-09-15T12:57:27.894Z</time>
      </trkpt>
      <trkpt lat="45.89335" lon="4.67673">
        <ele>352</ele>
        <time>2025-09-15T12:57:30.973Z</time>
      </trkpt>
      <trkpt lat="45.89317" lon="4.67665">
        <ele>351.29</ele>
        <time>2025-09-15T12:57:34.061Z</time>
      </trkpt>
      <trkpt lat="45.89314" lon="4.67664">
        <ele>350.67</ele>
        <time>2025-09-15T12:57:37.150Z</time>
      </trkpt>
      <trkpt lat="45.89297" lon="4.67654">
        <ele>350.06</ele>
        <time>2025-09-15T12:57:40.247Z</time>
      </trkpt>
      <trkpt lat="45.89287" lon="4.67656">
        <ele>349.46</ele>
        <time>2025-09-15T12:57:43.348Z</time>
      </trkpt>
      <trkpt lat="45.89282" lon="4.67658">
        <ele>348.9</ele>
        <time>2025-09-15T12:57:46.452Z</time>
      </trkpt>
      <trkpt lat="45.89274" lon="4.67659">
        <ele>348.36</ele>
        <time>2025-09-15T12:57:49.559Z</time>
      </trkpt>
      <trkpt lat="45.89266" lon="4.67657">
        <ele>347.87</ele>
        <time>2025-09-15T12:57:52.670Z</time>
      </trkpt>
      <trkpt lat="45.8925" lon="4.67648">
        <ele>347.4</ele>
        <time>2025-09-15T12:57:55.788Z</time>
      </trkpt>
      <trkpt lat="45.89232" lon="4.67636">
        <ele>347.05</ele>
        <time>2025-09-15T12:57:58.915Z</time>
      </trkpt>
      <trkpt lat="45.8923" lon="4.67635">
        <ele>346.71</ele>
        <time>2025-09-15T12:58:02.043Z</time>
      </trkpt>
      <trkpt lat="45.89217" lon="4.67626">
        <ele>346.49</ele>
        <time>2025-09-15T12:58:05.177Z</time>
      </trkpt>
      <trkpt lat="45.89204" lon="4.67619">
        <ele>346.25</ele>
        <time>2025-09-15T12:58:08.317Z</time>
      </trkpt>
      <trkpt lat="45.8919" lon="4.67613">
        <ele>346.04</ele>
        <time>2025-09-15T12:58:11.464Z</time>
      </trkpt>
      <trkpt lat="45.89188" lon="4.67612">
        <ele>345.78</ele>
        <time>2025-09-15T12:58:14.612Z</time>
      </trkpt>
      <trkpt lat="45.89169" lon="4.67603">
        <ele>345.56</ele>
        <time>2025-09-15T12:58:17.768Z</time>
      </trkpt>
      <trkpt lat="45.89149" lon="4.67602">
        <ele>345.25</ele>
        <time>2025-09-15T12:58:20.933Z</time>
      </trkpt>
      <trkpt lat="45.89144" lon="4.67605">
        <ele>344.91</ele>
        <time>2025-09-15T12:58:24.100Z</time>
      </trkpt>
      <trkpt lat="45.89142" lon="4.67605">
        <ele>344.64</ele>
        <time>2025-09-15T12:58:27.268Z</time>
      </trkpt>
      <trkpt lat="45.89138" lon="4.67605">
        <ele>344.37</ele>
        <time>2025-09-15T12:58:30.438Z</time>
      </trkpt>
      <trkpt lat="45.8913" lon="4.67604">
        <ele>344.09</ele>
        <time>2025-09-15T12:58:33.612Z</time>
      </trkpt>
      <trkpt lat="45.89124" lon="4.67602">
        <ele>343.87</ele>
        <time>2025-09-15T12:58:36.788Z</time>
      </trkpt>
      <trkpt lat="45.89116" lon="4.67594">
        <ele>343.69</ele>
        <time>2025-09-15T12:58:39.969Z</time>
      </trkpt>
      <trkpt lat="45.89111" lon="4.67588">
        <ele>343.56</ele>
        <time>2025-09-15T12:58:43.153Z</time>
      </trkpt>
      <trkpt lat="45.89105" lon="4.67578">
        <ele>343.48</ele>
        <time>2025-09-15T12:58:46.341Z</time>
      </trkpt>
      <trkpt lat="45.89099" lon="4.67569">
        <ele>343.44</ele>
        <time>2025-09-15T12:58:49.532Z</time>
      </trkpt>
      <trkpt lat="45.89098" lon="4.67567">
        <ele>343.46</ele>
        <time>2025-09-15T12:58:52.724Z</time>
      </trkpt>
      <trkpt lat="45.89091" lon="4.67556">
        <ele>343.53</ele>
        <time>2025-09-15T12:58:55.921Z</time>
      </trkpt>
      <trkpt lat="45.89089" lon="4.67554">
        <ele>343.68</ele>
        <time>2025-09-15T12:58:59.119Z</time>
      </trkpt>
      <trkpt lat="45.89084" lon="4.67548">
        <ele>343.89</ele>
        <time>2025-09-15T12:59:02.320Z</time>
      </trkpt>
      <trkpt lat="45.89082" lon="4.67543">
        <ele>344.17</ele>
        <time>2025-09-15T12:59:05.522Z</time>
      </trkpt>
      <trkpt lat="45.89077" lon="4.67537">
        <ele>344.51</ele>
        <time>2025-09-15T12:59:08.727Z</time>
      </trkpt>
      <trkpt lat="45.89076" lon="4.67535">
        <ele>344.92</ele>
        <time>2025-09-15T12:59:11.933Z</time>
      </trkpt>
      <trkpt lat="45.89067" lon="4.67521">
        <ele>345.44</ele>
        <time>2025-09-15T12:59:15.145Z</time>
      </trkpt>
      <trkpt lat="45.89065" lon="4.67519">
        <ele>345.97</ele>
        <time>2025-09-15T12:59:18.358Z</time>
      </trkpt>
      <trkpt lat="45.89059" lon="4.6751">
        <ele>346.61</ele>
        <time>2025-09-15T12:59:21.575Z</time>
      </trkpt>
      <trkpt lat="45.89053" lon="4.67501">
        <ele>347.3</ele>
        <time>2025-09-15T12:59:24.796Z</time>
      </trkpt>
      <trkpt lat="45.89046" lon="4.67489">
        <ele>348.07</ele>
        <time>2025-09-15T12:59:28.021Z</time>
      </trkpt>
      <trkpt lat="45.8904" lon="4.6748">
        <ele>348.88</ele>
        <time>2025-09-15T12:59:31.250Z</time>
      </trkpt>
      <trkpt lat="45.89029" lon="4.67458">
        <ele>349.8</ele>
        <time>2025-09-15T12:59:34.487Z</time>
      </trkpt>
      <trkpt lat="45.89026" lon="4.67446">
        <ele>350.7</ele>
        <time>2025-09-15T12:59:37.728Z</time>
      </trkpt>
      <trkpt lat="45.89024" lon="4.67445">
        <ele>351.55</ele>
        <time>2025-09-15T12:59:40.970Z</time>
      </trkpt>
      <trkpt lat="45.89019" lon="4.67434">
        <ele>352.43</ele>
        <time>2025-09-15T12:59:44.216Z</time>
      </trkpt>
      <trkpt lat="45.89017" lon="4.67429">
        <ele>353.34</ele>
        <time>2025-09-15T12:59:47.464Z</time>
      </trkpt>
      <trkpt lat="45.89011" lon="4.67418">
        <ele>354.27</ele>
        <time>2025-09-15T12:59:50.716Z</time>
      </trkpt>
      <trkpt lat="45.89008" lon="4.67413">
        <ele>355.23</ele>
        <time>2025-09-15T12:59:53.970Z</time>
      </trkpt>
      <trkpt lat="45.89005" lon="4.67404">
        <ele>356.24</ele>
        <time>2025-09-15T12:59:57.227Z</time>
      </trkpt>
      <trkpt lat="45.89005" lon="4.67395">
        <ele>357.28</ele>
        <time>2025-09-15T13:00:00.487Z</time>
      </trkpt>
      <trkpt lat="45.89004" lon="4.6739">
        <ele>358.32</ele>
        <time>2025-09-15T13:00:03.748Z</time>
      </trkpt>
      <trkpt lat="45.89004" lon="4.67382">
        <ele>359.4</ele>
        <time>2025-09-15T13:00:07.012Z</time>
      </trkpt>
      <trkpt lat="45.89003" lon="4.67375">
        <ele>360.47</ele>
        <time>2025-09-15T13:00:10.278Z</time>
      </trkpt>
      <trkpt lat="45.89002" lon="4.67372">
        <ele>361.49</ele>
        <time>2025-09-15T13:00:13.545Z</time>
      </trkpt>
      <trkpt lat="45.89" lon="4.67364">
        <ele>362.54</ele>
        <time>2025-09-15T13:00:16.815Z</time>
      </trkpt>
      <trkpt lat="45.88999" lon="4.67353">
        <ele>363.61</ele>
        <time>2025-09-15T13:00:20.088Z</time>
      </trkpt>
      <trkpt lat="45.88998" lon="4.67342">
        <ele>364.66</ele>
        <time>2025-09-15T13:00:23.364Z</time>
      </trkpt>
      <trkpt lat="45.88997" lon="4.67335">
        <ele>365.64</ele>
        <time>2025-09-15T13:00:26.643Z</time>
      </trkpt>
      <trkpt lat="45.88997" lon="4.67332">
        <ele>366.53</ele>
        <time>2025-09-15T13:00:29.922Z</time>
      </trkpt>
      <trkpt lat="45.88997" lon="4.67327">
        <ele>367.39</ele>
        <time>2025-09-15T13:00:33.203Z</time>
      </trkpt>
      <trkpt lat="45.88997" lon="4.67315">
        <ele>368.27</ele>
        <time>2025-09-15T13:00:36.488Z</time>
      </trkpt>
      <trkpt lat="45.88996" lon="4.6731">
        <ele>369.05</ele>
        <time>2025-09-15T13:00:39.774Z</time>
      </trkpt>
      <trkpt lat="45.88996" lon="4.67304">
        <ele>369.77</ele>
        <time>2025-09-15T13:00:43.062Z</time>
      </trkpt>
      <trkpt lat="45.88998" lon="4.67291">
        <ele>370.48</ele>
        <time>2025-09-15T13:00:46.354Z</time>
      </trkpt>
      <trkpt lat="45.88998" lon="4.6728">
        <ele>371.08</ele>
        <time>2025-09-15T13:00:49.649Z</time>
      </trkpt>
      <trkpt lat="45.89" lon="4.67273">
        <ele>371.61</ele>
        <time>2025-09-15T13:00:52.947Z</time>
      </trkpt>
      <trkpt lat="45.89" lon="4.6727">
        <ele>372.04</ele>
        <time>2025-09-15T13:00:56.246Z</time>
      </trkpt>
      <trkpt lat="45.89003" lon="4.67263">
        <ele>372.41</ele>
        <time>2025-09-15T13:00:59.547Z</time>
      </trkpt>
      <trkpt lat="45.89003" lon="4.6726">
        <ele>372.7</ele>
        <time>2025-09-15T13:01:02.849Z</time>
      </trkpt>
      <trkpt lat="45.89002" lon="4.67254">
        <ele>372.94</ele>
        <time>2025-09-15T13:01:06.153Z</time>
      </trkpt>
      <trkpt lat="45.89005" lon="4.67257">
        <ele>373.11</ele>
        <time>2025-09-15T13:01:09.458Z</time>
      </trkpt>
      <trkpt lat="45.89006" lon="4.67262">
        <ele>373.21</ele>
        <time>2025-09-15T13:01:12.765Z</time>
      </trkpt>
      <trkpt lat="45.89005" lon="4.67268">
        <ele>373.25</ele>
        <time>2025-09-15T13:01:16.074Z</time>
      </trkpt>
      <trkpt lat="45.89001" lon="4.67287">
        <ele>373.19</ele>
        <time>2025-09-15T13:01:19.389Z</time>
      </trkpt>
      <trkpt lat="45.89001" lon="4.67292">
        <ele>373.15</ele>
        <time>2025-09-15T13:01:22.706Z</time>
      </trkpt>
      <trkpt lat="45.89001" lon="4.67295">
        <ele>373.09</ele>
        <time>2025-09-15T13:01:26.024Z</time>
      </trkpt>
      <trkpt lat="45.89001" lon="4.67309">
        <ele>372.93</ele>
        <time>2025-09-15T13:01:29.346Z</time>
      </trkpt>
      <trkpt lat="45.89001" lon="4.6731">
        <ele>372.84</ele>
        <time>2025-09-15T13:01:32.668Z</time>
      </trkpt>
      <trkpt lat="45.89001" lon="4.67308">
        <ele>372.78</ele>
        <time>2025-09-15T13:01:35.991Z</time>
      </trkpt>
      <trkpt lat="45.89" lon="4.67296">
        <ele>372.76</ele>
        <time>2025-09-15T13:01:39.318Z</time>
      </trkpt>
      <trkpt lat="45.89" lon="4.67289">
        <ele>372.7</ele>
        <time>2025-09-15T13:01:42.647Z</time>
      </trkpt>
      <trkpt lat="45.89002" lon="4.67281">
        <ele>372.66</ele>
        <time>2025-09-15T13:01:45.978Z</time>
      </trkpt>
      <trkpt lat="45.89002" lon="4.67278">
        <ele>372.59</ele>
        <time>2025-09-15T13:01:49.310Z</time>
      </trkpt>
      <trkpt lat="45.89003" lon="4.67273">
        <ele>372.54</ele>
        <time>2025-09-15T13:01:52.644Z</time>
      </trkpt>
      <trkpt lat="45.89004" lon="4.67268">
        <ele>372.49</ele>
        <time>2025-09-15T13:01:55.979Z</time>
      </trkpt>
      <trkpt lat="45.89005" lon="4.67265">
        <ele>372.46</ele>
        <time>2025-09-15T13:01:59.316Z</time>
      </trkpt>
      <trkpt lat="45.89006" lon="4.67257">
        <ele>372.44</ele>
        <time>2025-09-15T13:02:02.655Z</time>
      </trkpt>
      <trkpt lat="45.89006" lon="4.67257">
        <ele>372.42</ele>
        <time>2025-09-15T13:02:05.994Z</time>
      </trkpt>
      <trkpt lat="45.89" lon="4.67254">
        <ele>372.41</ele>
        <time>2025-09-15T13:02:09.336Z</time>
      </trkpt>
      <trkpt lat="45.88997" lon="4.67253">
        <ele>372.44</ele>
        <time>2025-09-15T13:02:12.679Z</time>
      </trkpt>
      <trkpt lat="45.88995" lon="4.67253">
        <ele>372.49</ele>
        <time>2025-09-15T13:02:16.023Z</time>
      </trkpt>
      <trkpt lat="45.88984" lon="4.6725">
        <ele>372.54</ele>
        <time>2025-09-15T13:02:19.372Z</time>
      </trkpt>
      <trkpt lat="45.88976" lon="4.6725">
        <ele>372.66</ele>
        <time>2025-09-15T13:02:22.724Z</time>
      </trkpt>
      <trkpt lat="45.88963" lon="4.67247">
        <ele>372.85</ele>
        <time>2025-09-15T13:02:26.082Z</time>
      </trkpt>
      <trkpt lat="45.88961" lon="4.67247">
        <ele>373.04</ele>
        <time>2025-09-15T13:02:29.441Z</time>
      </trkpt>
      <trkpt lat="45.88945" lon="4.67244">
        <ele>373.34</ele>
        <time>2025-09-15T13:02:32.807Z</time>
      </trkpt>
      <trkpt lat="45.88943" lon="4.67243">
        <ele>373.62</ele>
        <time>2025-09-15T13:02:36.174Z</time>
      </trkpt>
      <trkpt lat="45.88941" lon="4.6724">
        <ele>373.92</ele>
        <time>2025-09-15T13:02:39.542Z</time>
      </trkpt>
      <trkpt lat="45.88941" lon="4.67235">
        <ele>374.27</ele>
        <time>2025-09-15T13:02:42.912Z</time>
      </trkpt>
      <trkpt lat="45.88941" lon="4.67232">
        <ele>374.64</ele>
        <time>2025-09-15T13:02:46.282Z</time>
      </trkpt>
      <trkpt lat="45.88942" lon="4.67227">
        <ele>375.06</ele>
        <time>2025-09-15T13:02:49.654Z</time>
      </trkpt>
      <trkpt lat="45.88942" lon="4.67221">
        <ele>375.51</ele>
        <time>2025-09-15T13:02:53.028Z</time>
      </trkpt>
      <trkpt lat="45.88942" lon="4.67219">
        <ele>375.99</ele>
        <time>2025-09-15T13:02:56.403Z</time>
      </trkpt>
      <trkpt lat="45.88942" lon="4.67213">
        <ele>376.51</ele>
        <time>2025-09-15T13:02:59.779Z</time>
      </trkpt>
      <trkpt lat="45.88942" lon="4.67208">
        <ele>377.07</ele>
        <time>2025-09-15T13:03:03.157Z</time>
      </trkpt>
      <trkpt lat="45.88941" lon="4.67205">
        <ele>377.66</ele>
        <time>2025-09-15T13:03:06.536Z</time>
      </trkpt>
      <trkpt lat="45.88941" lon="4.67202">
        <ele>378.28</ele>
        <time>2025-09-15T13:03:09.916Z</time>
      </trkpt>
      <trkpt lat="45.8894" lon="4.67193">
        <ele>378.98</ele>
        <time>2025-09-15T13:03:13.298Z</time>
      </trkpt>
      <trkpt lat="45.88941" lon="4.67188">
        <ele>379.68</ele>
        <time>2025-09-15T13:03:16.682Z</time>
      </trkpt>
      <trkpt lat="45.88941" lon="4.67182">
        <ele>380.42</ele>
        <time>2025-09-15T13:03:20.068Z</time>
      </trkpt>
      <trkpt lat="45.88941" lon="4.67174">
        <ele>381.2</ele>
        <time>2025-09-15T13:03:23.456Z</time>
      </trkpt>
      <trkpt lat="45.8894" lon="4.67166">
        <ele>382.01</ele>
        <time>2025-09-15T13:03:26.847Z</time>
      </trkpt>
      <trkpt lat="45.8894" lon="4.67164">
        <ele>382.8</ele>
        <time>2025-09-15T13:03:30.239Z</time>
      </trkpt>
      <trkpt lat="45.88941" lon="4.67156">
        <ele>383.65</ele>
        <time>2025-09-15T13:03:33.633Z</time>
      </trkpt>
      <trkpt lat="45.88941" lon="4.67149">
        <ele>384.54</ele>
        <time>2025-09-15T13:03:37.029Z</time>
      </trkpt>
      <trkpt lat="45.88942" lon="4.6714">
        <ele>385.46</ele>
        <time>2025-09-15T13:03:40.428Z</time>
      </trkpt>
      <trkpt lat="45.88943" lon="4.67135">
        <ele>386.32</ele>
        <time>2025-09-15T13:03:43.828Z</time>
      </trkpt>
      <trkpt lat="45.88943" lon="4.67131">
        <ele>387.19</ele>
        <time>2025-09-15T13:03:47.230Z</time>
      </trkpt>
      <trkpt lat="45.88943" lon="4.67129">
        <ele>388.02</ele>
        <time>2025-09-15T13:03:50.632Z</time>
      </trkpt>
      <trkpt lat="45.88944" lon="4.67121">
        <ele>388.93</ele>
        <time>2025-09-15T13:03:54.037Z</time>
      </trkpt>
      <trkpt lat="45.88945" lon="4.67112">
        <ele>389.81</ele>
        <time>2025-09-15T13:03:57.445Z</time>
      </trkpt>
      <trkpt lat="45.88945" lon="4.67109">
        <ele>390.62</ele>
        <time>2025-09-15T13:04:00.853Z</time>
      </trkpt>
      <trkpt lat="45.88945" lon="4.67104">
        <ele>391.42</ele>
        <time>2025-09-15T13:04:04.263Z</time>
      </trkpt>
      <trkpt lat="45.88945" lon="4.671">
        <ele>392.22</ele>
        <time>2025-09-15T13:04:07.674Z</time>
      </trkpt>
      <trkpt lat="45.88945" lon="4.67095">
        <ele>393.02</ele>
        <time>2025-09-15T13:04:11.087Z</time>
      </trkpt>
      <trkpt lat="45.88946" lon="4.67093">
        <ele>393.79</ele>
        <time>2025-09-15T13:04:14.500Z</time>
      </trkpt>
      <trkpt lat="45.88946" lon="4.67089">
        <ele>394.57</ele>
        <time>2025-09-15T13:04:17.915Z</time>
      </trkpt>
      <trkpt lat="45.88946" lon="4.67081">
        <ele>395.36</ele>
        <time>2025-09-15T13:04:21.332Z</time>
      </trkpt>
      <trkpt lat="45.88946" lon="4.67076">
        <ele>396.13</ele>
        <time>2025-09-15T13:04:24.751Z</time>
      </trkpt>
      <trkpt lat="45.88946" lon="4.67071">
        <ele>396.9</ele>
        <time>2025-09-15T13:04:28.171Z</time>
      </trkpt>
      <trkpt lat="45.88947" lon="4.67063">
        <ele>397.68</ele>
        <time>2025-09-15T13:04:31.594Z</time>
      </trkpt>
      <trkpt lat="45.88947" lon="4.67055">
        <ele>398.47</ele>
        <time>2025-09-15T13:04:35.019Z</time>
      </trkpt>
      <trkpt lat="45.88947" lon="4.67051">
        <ele>399.24</ele>
        <time>2025-09-15T13:04:38.445Z</time>
      </trkpt>
      <trkpt lat="45.88948" lon="4.67046">
        <ele>400.01</ele>
        <time>2025-09-15T13:04:41.873Z</time>
      </trkpt>
      <trkpt lat="45.88949" lon="4.67039">
        <ele>400.8</ele>
        <time>2025-09-15T13:04:45.303Z</time>
      </trkpt>
      <trkpt lat="45.8895" lon="4.67032">
        <ele>401.59</ele>
        <time>2025-09-15T13:04:48.735Z</time>
      </trkpt>
      <trkpt lat="45.88951" lon="4.6703">
        <ele>402.36</ele>
        <time>2025-09-15T13:04:52.168Z</time>
      </trkpt>
      <trkpt lat="45.88952" lon="4.67025">
        <ele>403.16</ele>
        <time>2025-09-15T13:04:55.602Z</time>
      </trkpt>
      <trkpt lat="45.88953" lon="4.67018">
        <ele>403.99</ele>
        <time>2025-09-15T13:04:59.039Z</time>
      </trkpt>
      <trkpt lat="45.88953" lon="4.67009">
        <ele>404.83</ele>
        <time>2025-09-15T13:05:02.478Z</time>
      </trkpt>
      <trkpt lat="45.88954" lon="4.67005">
        <ele>405.63</ele>
        <time>2025-09-15T13:05:05.919Z</time>
      </trkpt>
      <trkpt lat="45.88954" lon="4.67">
        <ele>406.44</ele>
        <time>2025-09-15T13:05:09.361Z</time>
      </trkpt>
      <trkpt lat="45.88954" lon="4.66995">
        <ele>407.24</ele>
        <time>2025-09-15T13:05:12.805Z</time>
      </trkpt>
      <trkpt lat="45.88954" lon="4.66993">
        <ele>408.03</ele>
        <time>2025-09-15T13:05:16.249Z</time>
      </trkpt>
      <trkpt lat="45.88955" lon="4.66985">
        <ele>408.85</ele>
        <time>2025-09-15T13:05:19.696Z</time>
      </trkpt>
      <trkpt lat="45.88956" lon="4.66975">
        <ele>409.68</ele>
        <time>2025-09-15T13:05:23.146Z</time>
      </trkpt>
      <trkpt lat="45.88956" lon="4.6697">
        <ele>410.48</ele>
        <time>2025-09-15T13:05:26.598Z</time>
      </trkpt>
      <trkpt lat="45.88957" lon="4.66962">
        <ele>411.28</ele>
        <time>2025-09-15T13:05:30.052Z</time>
      </trkpt>
      <trkpt lat="45.88959" lon="4.66951">
        <ele>412.09</ele>
        <time>2025-09-15T13:05:33.509Z</time>
      </trkpt>
      <trkpt lat="45.88959" lon="4.66948">
        <ele>412.83</ele>
        <time>2025-09-15T13:05:36.967Z</time>
      </trkpt>
      <trkpt lat="45.8896" lon="4.66943">
        <ele>413.56</ele>
        <time>2025-09-15T13:05:40.427Z</time>
      </trkpt>
      <trkpt lat="45.88962" lon="4.66931">
        <ele>414.31</ele>
        <time>2025-09-15T13:05:43.891Z</time>
      </trkpt>
      <trkpt lat="45.88963" lon="4.66928">
        <ele>414.99</ele>
        <time>2025-09-15T13:05:47.356Z</time>
      </trkpt>
      <trkpt lat="45.88964" lon="4.66917">
        <ele>415.68</ele>
        <time>2025-09-15T13:05:50.824Z</time>
      </trkpt>
      <trkpt lat="45.88965" lon="4.66914">
        <ele>416.29</ele>
        <time>2025-09-15T13:05:54.293Z</time>
      </trkpt>
      <trkpt lat="45.88966" lon="4.66904">
        <ele>416.9</ele>
        <time>2025-09-15T13:05:57.765Z</time>
      </trkpt>
      <trkpt lat="45.88967" lon="4.66898">
        <ele>417.47</ele>
        <time>2025-09-15T13:06:01.239Z</time>
      </trkpt>
      <trkpt lat="45.88969" lon="4.66886">
        <ele>417.99</ele>
        <time>2025-09-15T13:06:04.717Z</time>
      </trkpt>
      <trkpt lat="45.8897" lon="4.6688">
        <ele>418.43</ele>
        <time>2025-09-15T13:06:08.197Z</time>
      </trkpt>
      <trkpt lat="45.8897" lon="4.66874">
        <ele>418.81</ele>
        <time>2025-09-15T13:06:11.679Z</time>
      </trkpt>
      <trkpt lat="45.88972" lon="4.66865">
        <ele>419.15</ele>
        <time>2025-09-15T13:06:15.164Z</time>
      </trkpt>
      <trkpt lat="45.88973" lon="4.66863">
        <ele>419.4</ele>
        <time>2025-09-15T13:06:18.649Z</time>
      </trkpt>
      <trkpt lat="45.88977" lon="4.6686">
        <ele>419.6</ele>
        <time>2025-09-15T13:06:22.136Z</time>
      </trkpt>
      <trkpt lat="45.88977" lon="4.66859">
        <ele>419.73</ele>
        <time>2025-09-15T13:06:25.623Z</time>
      </trkpt>
      <trkpt lat="45.88978" lon="4.66857">
        <ele>419.8</ele>
        <time>2025-09-15T13:06:29.111Z</time>
      </trkpt>
      <trkpt lat="45.8898" lon="4.66851">
        <ele>419.83</ele>
        <time>2025-09-15T13:06:32.601Z</time>
      </trkpt>
      <trkpt lat="45.88988" lon="4.66839">
        <ele>419.79</ele>
        <time>2025-09-15T13:06:36.096Z</time>
      </trkpt>
      <trkpt lat="45.89" lon="4.66821">
        <ele>419.66</ele>
        <time>2025-09-15T13:06:39.599Z</time>
      </trkpt>
      <trkpt lat="45.89008" lon="4.66807">
        <ele>419.52</ele>
        <time>2025-09-15T13:06:43.107Z</time>
      </trkpt>
      <trkpt lat="45.89016" lon="4.66804">
        <ele>419.32</ele>
        <time>2025-09-15T13:06:46.619Z</time>
      </trkpt>
      <trkpt lat="45.89022" lon="4.66805">
        <ele>419.11</ele>
        <time>2025-09-15T13:06:50.134Z</time>
      </trkpt>
      <trkpt lat="45.89035" lon="4.66808">
        <ele>418.87</ele>
        <time>2025-09-15T13:06:53.655Z</time>
      </trkpt>
      <trkpt lat="45.89041" lon="4.66806">
        <ele>418.58</ele>
        <time>2025-09-15T13:06:57.178Z</time>
      </trkpt>
      <trkpt lat="45.89053" lon="4.66802">
        <ele>418.24</ele>
        <time>2025-09-15T13:07:00.707Z</time>
      </trkpt>
      <trkpt lat="45.89055" lon="4.66798">
        <ele>417.9</ele>
        <time>2025-09-15T13:07:04.237Z</time>
      </trkpt>
      <trkpt lat="45.89061" lon="4.6679">
        <ele>417.53</ele>
        <time>2025-09-15T13:07:07.771Z</time>
      </trkpt>
      <trkpt lat="45.89065" lon="4.66784">
        <ele>417.16</ele>
        <time>2025-09-15T13:07:11.307Z</time>
      </trkpt>
      <trkpt lat="45.89067" lon="4.66782">
        <ele>416.81</ele>
        <time>2025-09-15T13:07:14.845Z</time>
      </trkpt>
      <trkpt lat="45.89069" lon="4.66779">
        <ele>416.45</ele>
        <time>2025-09-15T13:07:18.384Z</time>
      </trkpt>
      <trkpt lat="45.89079" lon="4.66776">
        <ele>416.03</ele>
        <time>2025-09-15T13:07:21.927Z</time>
      </trkpt>
      <trkpt lat="45.89082" lon="4.66777">
        <ele>415.72</ele>
        <time>2025-09-15T13:07:25.471Z</time>
      </trkpt>
      <trkpt lat="45.89092" lon="4.66783">
        <ele>415.42</ele>
        <time>2025-09-15T13:07:29.020Z</time>
      </trkpt>
      <trkpt lat="45.89098" lon="4.66789">
        <ele>415.18</ele>
        <time>2025-09-15T13:07:32.572Z</time>
      </trkpt>
      <trkpt lat="45.89098" lon="4.6679">
        <ele>414.97</ele>
        <time>2025-09-15T13:07:36.125Z</time>
      </trkpt>
      <trkpt lat="45.891" lon="4.66793">
        <ele>414.79</ele>
        <time>2025-09-15T13:07:39.679Z</time>
      </trkpt>
      <trkpt lat="45.89101" lon="4.66794">
        <ele>414.64</ele>
        <time>2025-09-15T13:07:43.233Z</time>
      </trkpt>
      <trkpt lat="45.89101" lon="4.66795">
        <ele>414.52</ele>
        <time>2025-09-15T13:07:46.788Z</time>
      </trkpt>
      <trkpt lat="45.89091" lon="4.6682">
        <ele>414.59</ele>
        <time>2025-09-15T13:07:50.351Z</time>
      </trkpt>
      <trkpt lat="45.89087" lon="4.66825">
        <ele>414.52</ele>
        <time>2025-09-15T13:07:53.917Z</time>
      </trkpt>
      <trkpt lat="45.89084" lon="4.66836">
        <ele>414.45</ele>
        <time>2025-09-15T13:07:57.486Z</time>
      </trkpt>
      <trkpt lat="45.89083" lon="4.6684">
        <ele>414.39</ele>
        <time>2025-09-15T13:08:01.056Z</time>
      </trkpt>
      <trkpt lat="45.89084" lon="4.66846">
        <ele>414.33</ele>
        <time>2025-09-15T13:08:04.629Z</time>
      </trkpt>
      <trkpt lat="45.89087" lon="4.66849">
        <ele>414.27</ele>
        <time>2025-09-15T13:08:08.203Z</time>
      </trkpt>
      <trkpt lat="45.8909" lon="4.6685">
        <ele>414.21</ele>
        <time>2025-09-15T13:08:11.779Z</time>
      </trkpt>
      <trkpt lat="45.89098" lon="4.66851">
        <ele>414.15</ele>
        <time>2025-09-15T13:08:15.358Z</time>
      </trkpt>
      <trkpt lat="45.89107" lon="4.66852">
        <ele>414.08</ele>
        <time>2025-09-15T13:08:18.941Z</time>
      </trkpt>
      <trkpt lat="45.89116" lon="4.66856">
        <ele>414.03</ele>
        <time>2025-09-15T13:08:22.528Z</time>
      </trkpt>
      <trkpt lat="45.89118" lon="4.66857">
        <ele>414.01</ele>
        <time>2025-09-15T13:08:26.116Z</time>
      </trkpt>
      <trkpt lat="45.89122" lon="4.66861">
        <ele>413.99</ele>
        <time>2025-09-15T13:08:29.706Z</time>
      </trkpt>
      <trkpt lat="45.89141" lon="4.66873">
        <ele>414.04</ele>
        <time>2025-09-15T13:08:33.305Z</time>
      </trkpt>
      <trkpt lat="45.89144" lon="4.66874">
        <ele>414.07</ele>
        <time>2025-09-15T13:08:36.906Z</time>
      </trkpt>
      <trkpt lat="45.89151" lon="4.66874">
        <ele>414.11</ele>
        <time>2025-09-15T13:08:40.510Z</time>
      </trkpt>
      <trkpt lat="45.89152" lon="4.66871">
        <ele>414.15</ele>
        <time>2025-09-15T13:08:44.115Z</time>
      </trkpt>
      <trkpt lat="45.89152" lon="4.66868">
        <ele>414.2</ele>
        <time>2025-09-15T13:08:47.721Z</time>
      </trkpt>
      <trkpt lat="45.89157" lon="4.66856">
        <ele>414.24</ele>
        <time>2025-09-15T13:08:51.331Z</time>
      </trkpt>
      <trkpt lat="45.8916" lon="4.66855">
        <ele>414.31</ele>
        <time>2025-09-15T13:08:54.942Z</time>
      </trkpt>
      <trkpt lat="45.89172" lon="4.6686">
        <ele>414.43</ele>
        <time>2025-09-15T13:08:58.559Z</time>
      </trkpt>
      <trkpt lat="45.89182" lon="4.66865">
        <ele>414.55</ele>
        <time>2025-09-15T13:09:02.180Z</time>
      </trkpt>
      <trkpt lat="45.89185" lon="4.6687">
        <ele>414.66</ele>
        <time>2025-09-15T13:09:05.803Z</time>
      </trkpt>
      <trkpt lat="45.89191" lon="4.66874">
        <ele>414.78</ele>
        <time>2025-09-15T13:09:09.429Z</time>
      </trkpt>
      <trkpt lat="45.89193" lon="4.66875">
        <ele>414.91</ele>
        <time>2025-09-15T13:09:13.056Z</time>
      </trkpt>
      <trkpt lat="45.89196" lon="4.66877">
        <ele>415.06</ele>
        <time>2025-09-15T13:09:16.684Z</time>
      </trkpt>
      <trkpt lat="45.89205" lon="4.66881">
        <ele>415.24</ele>
        <time>2025-09-15T13:09:20.317Z</time>
      </trkpt>
      <trkpt lat="45.89209" lon="4.66881">
        <ele>415.41</ele>
        <time>2025-09-15T13:09:23.952Z</time>
      </trkpt>
      <trkpt lat="45.89213" lon="4.66883">
        <ele>415.61</ele>
        <time>2025-09-15T13:09:27.588Z</time>
      </trkpt>
      <trkpt lat="45.89218" lon="4.66886">
        <ele>415.83</ele>
        <time>2025-09-15T13:09:31.226Z</time>
      </trkpt>
      <trkpt lat="45.89226" lon="4.66889">
        <ele>416.07</ele>
        <time>2025-09-15T13:09:34.868Z</time>
      </trkpt>
      <trkpt lat="45.89229" lon="4.66892">
        <ele>416.34</ele>
        <time>2025-09-15T13:09:38.512Z</time>
      </trkpt>
      <trkpt lat="45.89234" lon="4.66893">
        <ele>416.64</ele>
        <time>2025-09-15T13:09:42.158Z</time>
      </trkpt>
      <trkpt lat="45.89243" lon="4.66896">
        <ele>417.01</ele>
        <time>2025-09-15T13:09:45.808Z</time>
      </trkpt>
      <trkpt lat="45.89247" lon="4.66898">
        <ele>417.4</ele>
        <time>2025-09-15T13:09:49.460Z</time>
      </trkpt>
      <trkpt lat="45.89251" lon="4.66901">
        <ele>417.81</ele>
        <time>2025-09-15T13:09:53.114Z</time>
      </trkpt>
      <trkpt lat="45.89255" lon="4.66903">
        <ele>418.26</ele>
        <time>2025-09-15T13:09:56.770Z</time>
      </trkpt>
      <trkpt lat="45.89259" lon="4.66906">
        <ele>418.75</ele>
        <time>2025-09-15T13:10:00.428Z</time>
      </trkpt>
      <trkpt lat="45.89261" lon="4.66908">
        <ele>419.26</ele>
        <time>2025-09-15T13:10:04.087Z</time>
      </trkpt>
      <trkpt lat="45.89271" lon="4.66911">
        <ele>419.86</ele>
        <time>2025-09-15T13:10:07.750Z</time>
      </trkpt>
      <trkpt lat="45.89273" lon="4.66911">
        <ele>420.44</ele>
        <time>2025-09-15T13:10:11.414Z</time>
      </trkpt>
      <trkpt lat="45.89277" lon="4.66913">
        <ele>421.07</ele>
        <time>2025-09-15T13:10:15.080Z</time>
      </trkpt>
      <trkpt lat="45.89287" lon="4.66917">
        <ele>421.78</ele>
        <time>2025-09-15T13:10:18.751Z</time>
      </trkpt>
      <trkpt lat="45.89294" lon="4.66918">
        <ele>422.46</ele>
        <time>2025-09-15T13:10:22.424Z</time>
      </trkpt>
      <trkpt lat="45.893" lon="4.6692">
        <ele>423.17</ele>
        <time>2025-09-15T13:10:26.100Z</time>
      </trkpt>
      <trkpt lat="45.89307" lon="4.66922">
        <ele>423.91</ele>
        <time>2025-09-15T13:10:29.780Z</time>
      </trkpt>
      <trkpt lat="45.89309" lon="4.66923">
        <ele>424.67</ele>
        <time>2025-09-15T13:10:33.461Z</time>
      </trkpt>
      <trkpt lat="45.89313" lon="4.66925">
        <ele>425.45</ele>
        <time>2025-09-15T13:10:37.143Z</time>
      </trkpt>
      <trkpt lat="45.89321" lon="4.66927">
        <ele>426.3</ele>
        <time>2025-09-15T13:10:40.829Z</time>
      </trkpt>
      <trkpt lat="45.89325" lon="4.66929">
        <ele>427.15</ele>
        <time>2025-09-15T13:10:44.517Z</time>
      </trkpt>
      <trkpt lat="45.8933" lon="4.66931">
        <ele>428.02</ele>
        <time>2025-09-15T13:10:48.207Z</time>
      </trkpt>
      <trkpt lat="45.89332" lon="4.66931">
        <ele>428.87</ele>
        <time>2025-09-15T13:10:51.898Z</time>
      </trkpt>
      <trkpt lat="45.89341" lon="4.66936">
        <ele>429.82</ele>
        <time>2025-09-15T13:10:55.593Z</time>
      </trkpt>
      <trkpt lat="45.89349" lon="4.66939">
        <ele>430.75</ele>
        <time>2025-09-15T13:10:59.292Z</time>
      </trkpt>
      <trkpt lat="45.89357" lon="4.66944">
        <ele>431.69</ele>
        <time>2025-09-15T13:11:02.995Z</time>
      </trkpt>
      <trkpt lat="45.89361" lon="4.66947">
        <ele>432.54</ele>
        <time>2025-09-15T13:11:06.699Z</time>
      </trkpt>
      <trkpt lat="45.89362" lon="4.66949">
        <ele>433.34</ele>
        <time>2025-09-15T13:11:10.404Z</time>
      </trkpt>
      <trkpt lat="45.89366" lon="4.66952">
        <ele>434.13</ele>
        <time>2025-09-15T13:11:14.111Z</time>
      </trkpt>
      <trkpt lat="45.89372" lon="4.66957">
        <ele>434.93</ele>
        <time>2025-09-15T13:11:17.821Z</time>
      </trkpt>
      <trkpt lat="45.89375" lon="4.6696">
        <ele>435.64</ele>
        <time>2025-09-15T13:11:21.533Z</time>
      </trkpt>
      <trkpt lat="45.89377" lon="4.66961">
        <ele>436.31</ele>
        <time>2025-09-15T13:11:25.246Z</time>
      </trkpt>
      <trkpt lat="45.89389" lon="4.66979">
        <ele>437.02</ele>
        <time>2025-09-15T13:11:28.966Z</time>
      </trkpt>
      <trkpt lat="45.8939" lon="4.6698">
        <ele>437.62</ele>
        <time>2025-09-15T13:11:32.687Z</time>
      </trkpt>
      <trkpt lat="45.89391" lon="4.66981">
        <ele>438.17</ele>
        <time>2025-09-15T13:11:36.408Z</time>
      </trkpt>
      <trkpt lat="45.89397" lon="4.66988">
        <ele>438.72</ele>
        <time>2025-09-15T13:11:40.133Z</time>
      </trkpt>
      <trkpt lat="45.89399" lon="4.6699">
        <ele>439.22</ele>
        <time>2025-09-15T13:11:43.859Z</time>
      </trkpt>
      <trkpt lat="45.89404" lon="4.66998">
        <ele>439.67</ele>
        <time>2025-09-15T13:11:47.588Z</time>
      </trkpt>
      <trkpt lat="45.89406" lon="4.66998">
        <ele>440.11</ele>
        <time>2025-09-15T13:11:51.318Z</time>
      </trkpt>
      <trkpt lat="45.89412" lon="4.67004">
        <ele>440.53</ele>
        <time>2025-09-15T13:11:55.051Z</time>
      </trkpt>
      <trkpt lat="45.89414" lon="4.67008">
        <ele>440.92</ele>
        <time>2025-09-15T13:11:58.786Z</time>
      </trkpt>
      <trkpt lat="45.89428" lon="4.67023">
        <ele>441.31</ele>
        <time>2025-09-15T13:12:02.528Z</time>
      </trkpt>
      <trkpt lat="45.89442" lon="4.67033">
        <ele>441.71</ele>
        <time>2025-09-15T13:12:06.277Z</time>
      </trkpt>
      <trkpt lat="45.89453" lon="4.67047">
        <ele>442.07</ele>
        <time>2025-09-15T13:12:10.033Z</time>
      </trkpt>
      <trkpt lat="45.89455" lon="4.67049">
        <ele>442.46</ele>
        <time>2025-09-15T13:12:13.790Z</time>
      </trkpt>
      <trkpt lat="45.89464" lon="4.67059">
        <ele>442.85</ele>
        <time>2025-09-15T13:12:17.552Z</time>
      </trkpt>
      <trkpt lat="45.89471" lon="4.67068">
        <ele>443.28</ele>
        <time>2025-09-15T13:12:21.318Z</time>
      </trkpt>
      <trkpt lat="45.89476" lon="4.67077">
        <ele>443.7</ele>
        <time>2025-09-15T13:12:25.087Z</time>
      </trkpt>
      <trkpt lat="45.89478" lon="4.67083">
        <ele>444.12</ele>
        <time>2025-09-15T13:12:28.859Z</time>
      </trkpt>
      <trkpt lat="45.89482" lon="4.67093">
        <ele>444.56</ele>
        <time>2025-09-15T13:12:32.634Z</time>
      </trkpt>
      <trkpt lat="45.89485" lon="4.67095">
        <ele>444.99</ele>
        <time>2025-09-15T13:12:36.410Z</time>
      </trkpt>
      <trkpt lat="45.89491" lon="4.6709">
        <ele>445.45</ele>
        <time>2025-09-15T13:12:40.189Z</time>
      </trkpt>
      <trkpt lat="45.89503" lon="4.67084">
        <ele>445.94</ele>
        <time>2025-09-15T13:12:43.974Z</time>
      </trkpt>
      <trkpt lat="45.89512" lon="4.6708">
        <ele>446.43</ele>
        <time>2025-09-15T13:12:47.763Z</time>
      </trkpt>
      <trkpt lat="45.89517" lon="4.67075">
        <ele>446.9</ele>
        <time>2025-09-15T13:12:51.555Z</time>
      </trkpt>
      <trkpt lat="45.89522" lon="4.67071">
        <ele>447.35</ele>
        <time>2025-09-15T13:12:55.349Z</time>
      </trkpt>
      <trkpt lat="45.89524" lon="4.6707">
        <ele>447.74</ele>
        <time>2025-09-15T13:12:59.144Z</time>
      </trkpt>
      <trkpt lat="45.89533" lon="4.6706">
        <ele>448.16</ele>
        <time>2025-09-15T13:13:02.944Z</time>
      </trkpt>
      <trkpt lat="45.89535" lon="4.67059">
        <ele>448.51</ele>
        <time>2025-09-15T13:13:06.745Z</time>
      </trkpt>
      <trkpt lat="45.89543" lon="4.67055">
        <ele>448.85</ele>
        <time>2025-09-15T13:13:10.550Z</time>
      </trkpt>
      <trkpt lat="45.89551" lon="4.67048">
        <ele>449.15</ele>
        <time>2025-09-15T13:13:14.359Z</time>
      </trkpt>
      <trkpt lat="45.89555" lon="4.67045">
        <ele>449.41</ele>
        <time>2025-09-15T13:13:18.170Z</time>
      </trkpt>
      <trkpt lat="45.89558" lon="4.67044">
        <ele>449.64</ele>
        <time>2025-09-15T13:13:21.982Z</time>
      </trkpt>
      <trkpt lat="45.89569" lon="4.67037">
        <ele>449.84</ele>
        <time>2025-09-15T13:13:25.799Z</time>
      </trkpt>
      <trkpt lat="45.89579" lon="4.6704">
        <ele>449.99</ele>
        <time>2025-09-15T13:13:29.621Z</time>
      </trkpt>
      <trkpt lat="45.89591" lon="4.67048">
        <ele>450.1</ele>
        <time>2025-09-15T13:13:33.449Z</time>
      </trkpt>
      <trkpt lat="45.89605" lon="4.67056">
        <ele>450.16</ele>
        <time>2025-09-15T13:13:37.283Z</time>
      </trkpt>
      <trkpt lat="45.89621" lon="4.67069">
        <ele>450.16</ele>
        <time>2025-09-15T13:13:41.125Z</time>
      </trkpt>
      <trkpt lat="45.89635" lon="4.67079">
        <ele>450.15</ele>
        <time>2025-09-15T13:13:44.974Z</time>
      </trkpt>
      <trkpt lat="45.89649" lon="4.6709">
        <ele>450.11</ele>
        <time>2025-09-15T13:13:48.830Z</time>
      </trkpt>
      <trkpt lat="45.89656" lon="4.67097">
        <ele>450.06</ele>
        <time>2025-09-15T13:13:52.690Z</time>
      </trkpt>
      <trkpt lat="45.89669" lon="4.67104">
        <ele>450</ele>
        <time>2025-09-15T13:13:56.556Z</time>
      </trkpt>
      <trkpt lat="45.89672" lon="4.67107">
        <ele>449.9</ele>
        <time>2025-09-15T13:14:00.424Z</time>
      </trkpt>
      <trkpt lat="45.89673" lon="4.67107">
        <ele>449.77</ele>
        <time>2025-09-15T13:14:04.292Z</time>
      </trkpt>
      <trkpt lat="45.8968" lon="4.67108">
        <ele>449.63</ele>
        <time>2025-09-15T13:14:08.163Z</time>
      </trkpt>
      <trkpt lat="45.89698" lon="4.67109">
        <ele>449.49</ele>
        <time>2025-09-15T13:14:12.042Z</time>
      </trkpt>
      <trkpt lat="45.89711" lon="4.67111">
        <ele>449.28</ele>
        <time>2025-09-15T13:14:15.927Z</time>
      </trkpt>
      <trkpt lat="45.89713" lon="4.67111">
        <ele>449.05</ele>
        <time>2025-09-15T13:14:19.813Z</time>
      </trkpt>
      <trkpt lat="45.8973" lon="4.67112">
        <ele>448.75</ele>
        <time>2025-09-15T13:14:23.706Z</time>
      </trkpt>
      <trkpt lat="45.89749" lon="4.67113">
        <ele>448.43</ele>
        <time>2025-09-15T13:14:27.608Z</time>
      </trkpt>
      <trkpt lat="45.89756" lon="4.67112">
        <ele>448.12</ele>
        <time>2025-09-15T13:14:31.513Z</time>
      </trkpt>
      <trkpt lat="45.89759" lon="4.67112">
        <ele>447.79</ele>
        <time>2025-09-15T13:14:35.419Z</time>
      </trkpt>
      <trkpt lat="45.8977" lon="4.67111">
        <ele>447.42</ele>
        <time>2025-09-15T13:14:39.330Z</time>
      </trkpt>
      <trkpt lat="45.89778" lon="4.67111">
        <ele>447.03</ele>
        <time>2025-09-15T13:14:43.244Z</time>
      </trkpt>
      <trkpt lat="45.89789" lon="4.67113">
        <ele>446.62</ele>
        <time>2025-09-15T13:14:47.163Z</time>
      </trkpt>
      <trkpt lat="45.89806" lon="4.67114">
        <ele>446.2</ele>
        <time>2025-09-15T13:14:51.090Z</time>
      </trkpt>
      <trkpt lat="45.89824" lon="4.67114">
        <ele>445.78</ele>
        <time>2025-09-15T13:14:55.025Z</time>
      </trkpt>
      <trkpt lat="45.89827" lon="4.67114">
        <ele>445.37</ele>
        <time>2025-09-15T13:14:58.961Z</time>
      </trkpt>
      <trkpt lat="45.89843" lon="4.67115">
        <ele>444.94</ele>
        <time>2025-09-15T13:15:02.904Z</time>
      </trkpt>
      <trkpt lat="45.89848" lon="4.67115">
        <ele>444.53</ele>
        <time>2025-09-15T13:15:06.849Z</time>
      </trkpt>
      <trkpt lat="45.89862" lon="4.67117">
        <ele>444.13</ele>
        <time>2025-09-15T13:15:10.801Z</time>
      </trkpt>
      <trkpt lat="45.8987" lon="4.67117">
        <ele>443.73</ele>
        <time>2025-09-15T13:15:14.756Z</time>
      </trkpt>
      <trkpt lat="45.89886" lon="4.67118">
        <ele>443.26</ele>
        <time>2025-09-15T13:15:18.718Z</time>
      </trkpt>
      <trkpt lat="45.89898" lon="4.6712">
        <ele>442.78</ele>
        <time>2025-09-15T13:15:22.685Z</time>
      </trkpt>
      <trkpt lat="45.89908" lon="4.67119">
        <ele>442.32</ele>
        <time>2025-09-15T13:15:26.657Z</time>
      </trkpt>
      <trkpt lat="45.89924" lon="4.67118">
        <ele>441.83</ele>
        <time>2025-09-15T13:15:30.636Z</time>
      </trkpt>
      <trkpt lat="45.89943" lon="4.67116">
        <ele>441.29</ele>
        <time>2025-09-15T13:15:34.623Z</time>
      </trkpt>
      <trkpt lat="45.89947" lon="4.67116">
        <ele>440.8</ele>
        <time>2025-09-15T13:15:38.612Z</time>
      </trkpt>
      <trkpt lat="45.8995" lon="4.67116">
        <ele>440.31</ele>
        <time>2025-09-15T13:15:42.602Z</time>
      </trkpt>
      <trkpt lat="45.89969" lon="4.67114">
        <ele>439.77</ele>
        <time>2025-09-15T13:15:46.601Z</time>
      </trkpt>
      <trkpt lat="45.89972" lon="4.67114">
        <ele>439.28</ele>
        <time>2025-09-15T13:15:50.601Z</time>
      </trkpt>
      <trkpt lat="45.89978" lon="4.67114">
        <ele>438.77</ele>
        <time>2025-09-15T13:15:54.603Z</time>
      </trkpt>
      <trkpt lat="45.89996" lon="4.67115">
        <ele>438.2</ele>
        <time>2025-09-15T13:15:58.613Z</time>
      </trkpt>
      <trkpt lat="45.89998" lon="4.67117">
        <ele>437.68</ele>
        <time>2025-09-15T13:16:02.624Z</time>
      </trkpt>
      <trkpt lat="45.90001" lon="4.67122">
        <ele>437.15</ele>
        <time>2025-09-15T13:16:06.637Z</time>
      </trkpt>
      <trkpt lat="45.90003" lon="4.67124">
        <ele>436.62</ele>
        <time>2025-09-15T13:16:10.652Z</time>
      </trkpt>
      <trkpt lat="45.90004" lon="4.67124">
        <ele>436.11</ele>
        <time>2025-09-15T13:16:14.667Z</time>
      </trkpt>
      <trkpt lat="45.90011" lon="4.67123">
        <ele>435.58</ele>
        <time>2025-09-15T13:16:18.685Z</time>
      </trkpt>
      <trkpt lat="45.90025" lon="4.67121">
        <ele>435.01</ele>
        <time>2025-09-15T13:16:22.709Z</time>
      </trkpt>
      <trkpt lat="45.90027" lon="4.67121">
        <ele>434.5</ele>
        <time>2025-09-15T13:16:26.734Z</time>
      </trkpt>
      <trkpt lat="45.90035" lon="4.67123">
        <ele>433.95</ele>
        <time>2025-09-15T13:16:30.763Z</time>
      </trkpt>
      <trkpt lat="45.90042" lon="4.67126">
        <ele>433.42</ele>
        <time>2025-09-15T13:16:34.795Z</time>
      </trkpt>
      <trkpt lat="45.90062" lon="4.6712">
        <ele>432.92</ele>
        <time>2025-09-15T13:16:38.836Z</time>
      </trkpt>
      <trkpt lat="45.90069" lon="4.67119">
        <ele>432.45</ele>
        <time>2025-09-15T13:16:42.880Z</time>
      </trkpt>
      <trkpt lat="45.90088" lon="4.67118">
        <ele>431.96</ele>
        <time>2025-09-15T13:16:46.932Z</time>
      </trkpt>
      <trkpt lat="45.90098" lon="4.67117">
        <ele>431.49</ele>
        <time>2025-09-15T13:16:50.989Z</time>
      </trkpt>
      <trkpt lat="45.90102" lon="4.67115">
        <ele>431.06</ele>
        <time>2025-09-15T13:16:55.048Z</time>
      </trkpt>
      <trkpt lat="45.90114" lon="4.67115">
        <ele>430.6</ele>
        <time>2025-09-15T13:16:59.112Z</time>
      </trkpt>
      <trkpt lat="45.90132" lon="4.67109">
        <ele>430.15</ele>
        <time>2025-09-15T13:17:03.184Z</time>
      </trkpt>
      <trkpt lat="45.90146" lon="4.67104">
        <ele>429.74</ele>
        <time>2025-09-15T13:17:07.262Z</time>
      </trkpt>
      <trkpt lat="45.90148" lon="4.67104">
        <ele>429.38</ele>
        <time>2025-09-15T13:17:11.341Z</time>
      </trkpt>
      <trkpt lat="45.90152" lon="4.67101">
        <ele>429.05</ele>
        <time>2025-09-15T13:17:15.422Z</time>
      </trkpt>
      <trkpt lat="45.90164" lon="4.67095">
        <ele>428.7</ele>
        <time>2025-09-15T13:17:19.509Z</time>
      </trkpt>
      <trkpt lat="45.90167" lon="4.67092">
        <ele>428.39</ele>
        <time>2025-09-15T13:17:23.597Z</time>
      </trkpt>
      <trkpt lat="45.90171" lon="4.67087">
        <ele>428.11</ele>
        <time>2025-09-15T13:17:27.688Z</time>
      </trkpt>
      <trkpt lat="45.90173" lon="4.67086">
        <ele>427.83</ele>
        <time>2025-09-15T13:17:31.780Z</time>
      </trkpt>
      <trkpt lat="45.90191" lon="4.67078">
        <ele>427.47</ele>
        <time>2025-09-15T13:17:35.880Z</time>
      </trkpt>
      <trkpt lat="45.90194" lon="4.67074">
        <ele>427.22</ele>
        <time>2025-09-15T13:17:39.982Z</time>
      </trkpt>
      <trkpt lat="45.90197" lon="4.6707">
        <ele>426.98</ele>
        <time>2025-09-15T13:17:44.086Z</time>
      </trkpt>
      <trkpt lat="45.90201" lon="4.67071">
        <ele>426.72</ele>
        <time>2025-09-15T13:17:48.191Z</time>
      </trkpt>
      <trkpt lat="45.90209" lon="4.67076">
        <ele>426.45</ele>
        <time>2025-09-15T13:17:52.300Z</time>
      </trkpt>
      <trkpt lat="45.90217" lon="4.67079">
        <ele>426.21</ele>
        <time>2025-09-15T13:17:56.413Z</time>
      </trkpt>
      <trkpt lat="45.9022" lon="4.6708">
        <ele>425.99</ele>
        <time>2025-09-15T13:18:00.527Z</time>
      </trkpt>
      <trkpt lat="45.90235" lon="4.67085">
        <ele>425.73</ele>
        <time>2025-09-15T13:18:04.648Z</time>
      </trkpt>
      <trkpt lat="45.90236" lon="4.67087">
        <ele>425.51</ele>
        <time>2025-09-15T13:18:08.770Z</time>
      </trkpt>
      <trkpt lat="45.90238" lon="4.67088">
        <ele>425.27</ele>
        <time>2025-09-15T13:18:12.893Z</time>
      </trkpt>
      <trkpt lat="45.90239" lon="4.6709">
        <ele>425.02</ele>
        <time>2025-09-15T13:18:17.016Z</time>
      </trkpt>
      <trkpt lat="45.9024" lon="4.67092">
        <ele>424.76</ele>
        <time>2025-09-15T13:18:21.140Z</time>
      </trkpt>
      <trkpt lat="45.90246" lon="4.671">
        <ele>424.46</ele>
        <time>2025-09-15T13:18:25.268Z</time>
      </trkpt>
      <trkpt lat="45.90253" lon="4.67106">
        <ele>424.16</ele>
        <time>2025-09-15T13:18:29.399Z</time>
      </trkpt>
      <trkpt lat="45.90257" lon="4.6711">
        <ele>423.85</ele>
        <time>2025-09-15T13:18:33.532Z</time>
      </trkpt>
      <trkpt lat="45.90263" lon="4.67114">
        <ele>423.51</ele>
        <time>2025-09-15T13:18:37.668Z</time>
      </trkpt>
      <trkpt lat="45.90266" lon="4.67117">
        <ele>423.13</ele>
        <time>2025-09-15T13:18:41.806Z</time>
      </trkpt>
      <trkpt lat="45.90274" lon="4.67128">
        <ele>422.67</ele>
        <time>2025-09-15T13:18:45.949Z</time>
      </trkpt>
      <trkpt lat="45.90278" lon="4.67131">
        <ele>422.25</ele>
        <time>2025-09-15T13:18:50.094Z</time>
      </trkpt>
      <trkpt lat="45.9028" lon="4.67133">
        <ele>421.81</ele>
        <time>2025-09-15T13:18:54.240Z</time>
      </trkpt>
      <trkpt lat="45.90282" lon="4.67137">
        <ele>421.34</ele>
        <time>2025-09-15T13:18:58.387Z</time>
      </trkpt>
      <trkpt lat="45.90284" lon="4.67137">
        <ele>420.87</ele>
        <time>2025-09-15T13:19:02.535Z</time>
      </trkpt>
      <trkpt lat="45.90286" lon="4.67138">
        <ele>420.38</ele>
        <time>2025-09-15T13:19:06.684Z</time>
      </trkpt>
      <trkpt lat="45.90287" lon="4.67139">
        <ele>419.86</ele>
        <time>2025-09-15T13:19:10.834Z</time>
      </trkpt>
      <trkpt lat="45.90291" lon="4.67146">
        <ele>419.28</ele>
        <time>2025-09-15T13:19:14.987Z</time>
      </trkpt>
      <trkpt lat="45.90298" lon="4.67166">
        <ele>418.61</ele>
        <time>2025-09-15T13:19:19.146Z</time>
      </trkpt>
      <trkpt lat="45.90299" lon="4.67179">
        <ele>418</ele>
        <time>2025-09-15T13:19:23.309Z</time>
      </trkpt>
      <trkpt lat="45.90303" lon="4.67182">
        <ele>417.42</ele>
        <time>2025-09-15T13:19:27.474Z</time>
      </trkpt>
      <trkpt lat="45.90305" lon="4.67184">
        <ele>416.83</ele>
        <time>2025-09-15T13:19:31.640Z</time>
      </trkpt>
      <trkpt lat="45.90323" lon="4.67193">
        <ele>416.2</ele>
        <time>2025-09-15T13:19:35.814Z</time>
      </trkpt>
      <trkpt lat="45.90325" lon="4.67194">
        <ele>415.59</ele>
        <time>2025-09-15T13:19:39.989Z</time>
      </trkpt>
      <trkpt lat="45.90327" lon="4.67195">
        <ele>414.96</ele>
        <time>2025-09-15T13:19:44.165Z</time>
      </trkpt>
      <trkpt lat="45.90335" lon="4.67201">
        <ele>414.31</ele>
        <time>2025-09-15T13:19:48.346Z</time>
      </trkpt>
      <trkpt lat="45.90337" lon="4.67208">
        <ele>413.66</ele>
        <time>2025-09-15T13:19:52.529Z</time>
      </trkpt>
      <trkpt lat="45.90336" lon="4.67211">
        <ele>413.02</ele>
        <time>2025-09-15T13:19:56.713Z</time>
      </trkpt>
      <trkpt lat="45.90332" lon="4.67232">
        <ele>412.32</ele>
        <time>2025-09-15T13:20:00.903Z</time>
      </trkpt>
      <trkpt lat="45.90329" lon="4.6725">
        <ele>411.62</ele>
        <time>2025-09-15T13:20:05.099Z</time>
      </trkpt>
      <trkpt lat="45.90324" lon="4.67272">
        <ele>410.91</ele>
        <time>2025-09-15T13:20:09.302Z</time>
      </trkpt>
      <trkpt lat="45.90323" lon="4.6728">
        <ele>410.29</ele>
        <time>2025-09-15T13:20:13.507Z</time>
      </trkpt>
      <trkpt lat="45.90319" lon="4.67301">
        <ele>409.67</ele>
        <time>2025-09-15T13:20:17.719Z</time>
      </trkpt>
      <trkpt lat="45.90318" lon="4.67304">
        <ele>409.1</ele>
        <time>2025-09-15T13:20:21.932Z</time>
      </trkpt>
      <trkpt lat="45.90316" lon="4.67314">
        <ele>408.55</ele>
        <time>2025-09-15T13:20:26.148Z</time>
      </trkpt>
      <trkpt lat="45.90311" lon="4.67336">
        <ele>408</ele>
        <time>2025-09-15T13:20:30.372Z</time>
      </trkpt>
      <trkpt lat="45.90308" lon="4.6735">
        <ele>407.51</ele>
        <time>2025-09-15T13:20:34.600Z</time>
      </trkpt>
      <trkpt lat="45.90307" lon="4.67354">
        <ele>407.04</ele>
        <time>2025-09-15T13:20:38.829Z</time>
      </trkpt>
      <trkpt lat="45.90301" lon="4.67378">
        <ele>406.55</ele>
        <time>2025-09-15T13:20:43.066Z</time>
      </trkpt>
      <trkpt lat="45.903" lon="4.67385">
        <ele>406.1</ele>
        <time>2025-09-15T13:20:47.305Z</time>
      </trkpt>
      <trkpt lat="45.90296" lon="4.67403">
        <ele>405.66</ele>
        <time>2025-09-15T13:20:51.550Z</time>
      </trkpt>
      <trkpt lat="45.90298" lon="4.67415">
        <ele>405.23</ele>
        <time>2025-09-15T13:20:55.799Z</time>
      </trkpt>
      <trkpt lat="45.90302" lon="4.6742">
        <ele>404.84</ele>
        <time>2025-09-15T13:21:00.050Z</time>
      </trkpt>
      <trkpt lat="45.90304" lon="4.67422">
        <ele>404.49</ele>
        <time>2025-09-15T13:21:04.302Z</time>
      </trkpt>
      <trkpt lat="45.90312" lon="4.6743">
        <ele>404.14</ele>
        <time>2025-09-15T13:21:08.558Z</time>
      </trkpt>
      <trkpt lat="45.90321" lon="4.67437">
        <ele>403.79</ele>
        <time>2025-09-15T13:21:12.819Z</time>
      </trkpt>
      <trkpt lat="45.90331" lon="4.67446">
        <ele>403.42</ele>
        <time>2025-09-15T13:21:17.085Z</time>
      </trkpt>
      <trkpt lat="45.90333" lon="4.67448">
        <ele>403.1</ele>
        <time>2025-09-15T13:21:21.352Z</time>
      </trkpt>
      <trkpt lat="45.90338" lon="4.67452">
        <ele>402.78</ele>
        <time>2025-09-15T13:21:25.622Z</time>
      </trkpt>
      <trkpt lat="45.90345" lon="4.67458">
        <ele>402.46</ele>
        <time>2025-09-15T13:21:29.895Z</time>
      </trkpt>
      <trkpt lat="45.90353" lon="4.67464">
        <ele>402.14</ele>
        <time>2025-09-15T13:21:34.172Z</time>
      </trkpt>
      <trkpt lat="45.90355" lon="4.67465">
        <ele>401.85</ele>
        <time>2025-09-15T13:21:38.450Z</time>
      </trkpt>
      <trkpt lat="45.9036" lon="4.67465">
        <ele>401.55</ele>
        <time>2025-09-15T13:21:42.730Z</time>
      </trkpt>
      <trkpt lat="45.90366" lon="4.67466">
        <ele>401.23</ele>
        <time>2025-09-15T13:21:47.013Z</time>
      </trkpt>
      <trkpt lat="45.90371" lon="4.67466">
        <ele>400.89</ele>
        <time>2025-09-15T13:21:51.298Z</time>
      </trkpt>
      <trkpt lat="45.90385" lon="4.67461">
        <ele>400.58</ele>
        <time>2025-09-15T13:21:55.590Z</time>
      </trkpt>
      <trkpt lat="45.90396" lon="4.67457">
        <ele>400.22</ele>
        <time>2025-09-15T13:21:59.886Z</time>
      </trkpt>
      <trkpt lat="45.90406" lon="4.67454">
        <ele>399.83</ele>
        <time>2025-09-15T13:22:04.187Z</time>
      </trkpt>
      <trkpt lat="45.90421" lon="4.67446">
        <ele>399.51</ele>
        <time>2025-09-15T13:22:08.495Z</time>
      </trkpt>
      <trkpt lat="45.90438" lon="4.67447">
        <ele>399.02</ele>
        <time>2025-09-15T13:22:12.811Z</time>
      </trkpt>
      <trkpt lat="45.90449" lon="4.67452">
        <ele>398.45</ele>
        <time>2025-09-15T13:22:17.131Z</time>
      </trkpt>
      <trkpt lat="45.90456" lon="4.67455">
        <ele>397.87</ele>
        <time>2025-09-15T13:22:21.455Z</time>
      </trkpt>
      <trkpt lat="45.90458" lon="4.67456">
        <ele>397.3</ele>
        <time>2025-09-15T13:22:25.780Z</time>
      </trkpt>
      <trkpt lat="45.90469" lon="4.67459">
        <ele>396.61</ele>
        <time>2025-09-15T13:22:30.110Z</time>
      </trkpt>
      <trkpt lat="45.9048" lon="4.67463">
        <ele>395.89</ele>
        <time>2025-09-15T13:22:34.444Z</time>
      </trkpt>
      <trkpt lat="45.90482" lon="4.67464">
        <ele>395.24</ele>
        <time>2025-09-15T13:22:38.780Z</time>
      </trkpt>
      <trkpt lat="45.90496" lon="4.67467">
        <ele>394.48</ele>
        <time>2025-09-15T13:22:43.122Z</time>
      </trkpt>
      <trkpt lat="45.90501" lon="4.67468">
        <ele>393.78</ele>
        <time>2025-09-15T13:22:47.466Z</time>
      </trkpt>
      <trkpt lat="45.90507" lon="4.67468">
        <ele>393.07</ele>
        <time>2025-09-15T13:22:51.812Z</time>
      </trkpt>
      <trkpt lat="45.90512" lon="4.6747">
        <ele>392.35</ele>
        <time>2025-09-15T13:22:56.161Z</time>
      </trkpt>
      <trkpt lat="45.90525" lon="4.67473">
        <ele>391.64</ele>
        <time>2025-09-15T13:23:00.516Z</time>
      </trkpt>
      <trkpt lat="45.90531" lon="4.67474">
        <ele>390.94</ele>
        <time>2025-09-15T13:23:04.873Z</time>
      </trkpt>
      <trkpt lat="45.90533" lon="4.67475">
        <ele>390.26</ele>
        <time>2025-09-15T13:23:09.231Z</time>
      </trkpt>
      <trkpt lat="45.90545" lon="4.67477">
        <ele>389.56</ele>
        <time>2025-09-15T13:23:13.594Z</time>
      </trkpt>
      <trkpt lat="45.90556" lon="4.67477">
        <ele>388.88</ele>
        <time>2025-09-15T13:23:17.962Z</time>
      </trkpt>
      <trkpt lat="45.90569" lon="4.67474">
        <ele>388.19</ele>
        <time>2025-09-15T13:23:22.336Z</time>
      </trkpt>
      <trkpt lat="45.90577" lon="4.67473">
        <ele>387.46</ele>
        <time>2025-09-15T13:23:26.714Z</time>
      </trkpt>
      <trkpt lat="45.90583" lon="4.67472">
        <ele>386.74</ele>
        <time>2025-09-15T13:23:31.094Z</time>
      </trkpt>
      <trkpt lat="45.90599" lon="4.67467">
        <ele>385.97</ele>
        <time>2025-09-15T13:23:35.481Z</time>
      </trkpt>
      <trkpt lat="45.90604" lon="4.67466">
        <ele>385.25</ele>
        <time>2025-09-15T13:23:39.871Z</time>
      </trkpt>
      <trkpt lat="45.90614" lon="4.67462">
        <ele>384.5</ele>
        <time>2025-09-15T13:23:44.265Z</time>
      </trkpt>
      <trkpt lat="45.90632" lon="4.67456">
        <ele>383.71</ele>
        <time>2025-09-15T13:23:48.667Z</time>
      </trkpt>
      <trkpt lat="45.90637" lon="4.67455">
        <ele>382.98</ele>
        <time>2025-09-15T13:23:53.071Z</time>
      </trkpt>
      <trkpt lat="45.90646" lon="4.67455">
        <ele>382.22</ele>
        <time>2025-09-15T13:23:57.480Z</time>
      </trkpt>
      <trkpt lat="45.90648" lon="4.67458">
        <ele>381.46</ele>
        <time>2025-09-15T13:24:01.890Z</time>
      </trkpt>
      <trkpt lat="45.90649" lon="4.67466">
        <ele>380.67</ele>
        <time>2025-09-15T13:24:06.302Z</time>
      </trkpt>
      <trkpt lat="45.9065" lon="4.67475">
        <ele>379.87</ele>
        <time>2025-09-15T13:24:10.717Z</time>
      </trkpt>
      <trkpt lat="45.9065" lon="4.6748">
        <ele>379.07</ele>
        <time>2025-09-15T13:24:15.133Z</time>
      </trkpt>
      <trkpt lat="45.90651" lon="4.67489">
        <ele>378.27</ele>
        <time>2025-09-15T13:24:19.552Z</time>
      </trkpt>
      <trkpt lat="45.90652" lon="4.67493">
        <ele>377.46</ele>
        <time>2025-09-15T13:24:23.973Z</time>
      </trkpt>
      <trkpt lat="45.90653" lon="4.67506">
        <ele>376.62</ele>
        <time>2025-09-15T13:24:28.398Z</time>
      </trkpt>
      <trkpt lat="45.90654" lon="4.67523">
        <ele>375.72</ele>
        <time>2025-09-15T13:24:32.828Z</time>
      </trkpt>
      <trkpt lat="45.90656" lon="4.67548">
        <ele>374.79</ele>
        <time>2025-09-15T13:24:37.266Z</time>
      </trkpt>
      <trkpt lat="45.90656" lon="4.67553">
        <ele>373.98</ele>
        <time>2025-09-15T13:24:41.705Z</time>
      </trkpt>
      <trkpt lat="45.90657" lon="4.67582">
        <ele>373.12</ele>
        <time>2025-09-15T13:24:46.153Z</time>
      </trkpt>
      <trkpt lat="45.90658" lon="4.67598">
        <ele>372.33</ele>
        <time>2025-09-15T13:24:50.606Z</time>
      </trkpt>
      <trkpt lat="45.90659" lon="4.67606">
        <ele>371.56</ele>
        <time>2025-09-15T13:24:55.061Z</time>
      </trkpt>
      <trkpt lat="45.90659" lon="4.6761">
        <ele>370.83</ele>
        <time>2025-09-15T13:24:59.518Z</time>
      </trkpt>
      <trkpt lat="45.90659" lon="4.67614">
        <ele>370.13</ele>
        <time>2025-09-15T13:25:03.976Z</time>
      </trkpt>
      <trkpt lat="45.90659" lon="4.67618">
        <ele>369.46</ele>
        <time>2025-09-15T13:25:08.435Z</time>
      </trkpt>
      <trkpt lat="45.90661" lon="4.67629">
        <ele>368.82</ele>
        <time>2025-09-15T13:25:12.898Z</time>
      </trkpt>
      <trkpt lat="45.90662" lon="4.67637">
        <ele>368.23</ele>
        <time>2025-09-15T13:25:17.363Z</time>
      </trkpt>
      <trkpt lat="45.90663" lon="4.67663">
        <ele>367.64</ele>
        <time>2025-09-15T13:25:21.836Z</time>
      </trkpt>
      <trkpt lat="45.90664" lon="4.67675">
        <ele>367.13</ele>
        <time>2025-09-15T13:25:26.313Z</time>
      </trkpt>
      <trkpt lat="45.90667" lon="4.67699">
        <ele>366.66</ele>
        <time>2025-09-15T13:25:30.797Z</time>
      </trkpt>
      <trkpt lat="45.90668" lon="4.67702">
        <ele>366.31</ele>
        <time>2025-09-15T13:25:35.282Z</time>
      </trkpt>
      <trkpt lat="45.90669" lon="4.67704">
        <ele>366.01</ele>
        <time>2025-09-15T13:25:39.768Z</time>
      </trkpt>
      <trkpt lat="45.9067" lon="4.67707">
        <ele>365.79</ele>
        <time>2025-09-15T13:25:44.255Z</time>
      </trkpt>
      <trkpt lat="45.90674" lon="4.67722">
        <ele>365.64</ele>
        <time>2025-09-15T13:25:48.747Z</time>
      </trkpt>
      <trkpt lat="45.90674" lon="4.67724">
        <ele>365.57</ele>
        <time>2025-09-15T13:25:53.239Z</time>
      </trkpt>
      <trkpt lat="45.90675" lon="4.6773">
        <ele>365.56</ele>
        <time>2025-09-15T13:25:57.733Z</time>
      </trkpt>
      <trkpt lat="45.90678" lon="4.67742">
        <ele>365.62</ele>
        <time>2025-09-15T13:26:02.231Z</time>
      </trkpt>
      <trkpt lat="45.90684" lon="4.67767">
        <ele>365.76</ele>
        <time>2025-09-15T13:26:06.737Z</time>
      </trkpt>
      <trkpt lat="45.90692" lon="4.6779">
        <ele>366.03</ele>
        <time>2025-09-15T13:26:11.251Z</time>
      </trkpt>
      <trkpt lat="45.90694" lon="4.67797">
        <ele>366.36</ele>
        <time>2025-09-15T13:26:15.767Z</time>
      </trkpt>
      <trkpt lat="45.90699" lon="4.67825">
        <ele>366.83</ele>
        <time>2025-09-15T13:26:20.292Z</time>
      </trkpt>
      <trkpt lat="45.90698" lon="4.67829">
        <ele>367.34</ele>
        <time>2025-09-15T13:26:24.818Z</time>
      </trkpt>
      <trkpt lat="45.90698" lon="4.67837">
        <ele>367.96</ele>
        <time>2025-09-15T13:26:29.347Z</time>
      </trkpt>
      <trkpt lat="45.90696" lon="4.67856">
        <ele>368.64</ele>
        <time>2025-09-15T13:26:33.882Z</time>
      </trkpt>
      <trkpt lat="45.90696" lon="4.67859">
        <ele>369.42</ele>
        <time>2025-09-15T13:26:38.418Z</time>
      </trkpt>
      <trkpt lat="45.90695" lon="4.67869">
        <ele>370.29</ele>
        <time>2025-09-15T13:26:42.957Z</time>
      </trkpt>
      <trkpt lat="45.90695" lon="4.67873">
        <ele>371.24</ele>
        <time>2025-09-15T13:26:47.497Z</time>
      </trkpt>
      <trkpt lat="45.90694" lon="4.67885">
        <ele>372.28</ele>
        <time>2025-09-15T13:26:52.041Z</time>
      </trkpt>
      <trkpt lat="45.90694" lon="4.67908">
        <ele>373.41</ele>
        <time>2025-09-15T13:26:56.592Z</time>
      </trkpt>
      <trkpt lat="45.90694" lon="4.67914">
        <ele>374.57</ele>
        <time>2025-09-15T13:27:01.145Z</time>
      </trkpt>
      <trkpt lat="45.90693" lon="4.67939">
        <ele>375.86</ele>
        <time>2025-09-15T13:27:05.705Z</time>
      </trkpt>
      <trkpt lat="45.90693" lon="4.67966">
        <ele>377.22</ele>
        <time>2025-09-15T13:27:10.273Z</time>
      </trkpt>
      <trkpt lat="45.90693" lon="4.67968">
        <ele>378.51</ele>
        <time>2025-09-15T13:27:14.842Z</time>
      </trkpt>
      <trkpt lat="45.90693" lon="4.67987">
        <ele>379.93</ele>
        <time>2025-09-15T13:27:19.417Z</time>
      </trkpt>
      <trkpt lat="45.90693" lon="4.67996">
        <ele>381.3</ele>
        <time>2025-09-15T13:27:23.995Z</time>
      </trkpt>
      <trkpt lat="45.90691" lon="4.6801">
        <ele>382.74</ele>
        <time>2025-09-15T13:27:28.577Z</time>
      </trkpt>
      <trkpt lat="45.90691" lon="4.68015">
        <ele>384.05</ele>
        <time>2025-09-15T13:27:33.161Z</time>
      </trkpt>
      <trkpt lat="45.9069" lon="4.68027">
        <ele>385.38</ele>
        <time>2025-09-15T13:27:37.748Z</time>
      </trkpt>
      <trkpt lat="45.90689" lon="4.68045">
        <ele>386.71</ele>
        <time>2025-09-15T13:27:42.341Z</time>
      </trkpt>
      <trkpt lat="45.90688" lon="4.68048">
        <ele>387.86</ele>
        <time>2025-09-15T13:27:46.935Z</time>
      </trkpt>
      <trkpt lat="45.90687" lon="4.6807">
        <ele>389.1</ele>
        <time>2025-09-15T13:27:51.536Z</time>
      </trkpt>
      <trkpt lat="45.90686" lon="4.68081">
        <ele>390.08</ele>
        <time>2025-09-15T13:27:56.140Z</time>
      </trkpt>
      <trkpt lat="45.90686" lon="4.68083">
        <ele>390.92</ele>
        <time>2025-09-15T13:28:00.745Z</time>
      </trkpt>
      <trkpt lat="45.90686" lon="4.68086">
        <ele>391.63</ele>
        <time>2025-09-15T13:28:05.350Z</time>
      </trkpt>
      <trkpt lat="45.90685" lon="4.68088">
        <ele>392.22</ele>
        <time>2025-09-15T13:28:09.956Z</time>
      </trkpt>
      <trkpt lat="45.90685" lon="4.68092">
        <ele>392.67</ele>
        <time>2025-09-15T13:28:14.564Z</time>
      </trkpt>
      <trkpt lat="45.90685" lon="4.68094">
        <ele>392.98</ele>
        <time>2025-09-15T13:28:19.172Z</time>
      </trkpt>
      <trkpt lat="45.90684" lon="4.68104">
        <ele>393.17</ele>
        <time>2025-09-15T13:28:23.783Z</time>
      </trkpt>
      <trkpt lat="45.90683" lon="4.68108">
        <ele>393.2</ele>
        <time>2025-09-15T13:28:28.396Z</time>
      </trkpt>
      <trkpt lat="45.90683" lon="4.68113">
        <ele>393.09</ele>
        <time>2025-09-15T13:28:33.010Z</time>
      </trkpt>
      <trkpt lat="45.90682" lon="4.68125">
        <ele>392.82</ele>
        <time>2025-09-15T13:28:37.628Z</time>
      </trkpt>
      <trkpt lat="45.90682" lon="4.68128">
        <ele>392.41</ele>
        <time>2025-09-15T13:28:42.246Z</time>
      </trkpt>
      <trkpt lat="45.90682" lon="4.68142">
        <ele>391.82</ele>
        <time>2025-09-15T13:28:46.869Z</time>
      </trkpt>
      <trkpt lat="45.90682" lon="4.68166">
        <ele>391.06</ele>
        <time>2025-09-15T13:28:51.499Z</time>
      </trkpt>
      <trkpt lat="45.90689" lon="4.6818">
        <ele>390.19</ele>
        <time>2025-09-15T13:28:56.135Z</time>
      </trkpt>
      <trkpt lat="45.90691" lon="4.68182">
        <ele>389.29</ele>
        <time>2025-09-15T13:29:00.772Z</time>
      </trkpt>
      <trkpt lat="45.90695" lon="4.68185">
        <ele>388.28</ele>
        <time>2025-09-15T13:29:05.411Z</time>
      </trkpt>
      <trkpt lat="45.90704" lon="4.6819">
        <ele>387.15</ele>
        <time>2025-09-15T13:29:10.054Z</time>
      </trkpt>
      <trkpt lat="45.9071" lon="4.68194">
        <ele>385.98</ele>
        <time>2025-09-15T13:29:14.700Z</time>
      </trkpt>
      <trkpt lat="45.90718" lon="4.682">
        <ele>384.72</ele>
        <time>2025-09-15T13:29:19.350Z</time>
      </trkpt>
      <trkpt lat="45.90724" lon="4.68205">
        <ele>383.44</ele>
        <time>2025-09-15T13:29:24.003Z</time>
      </trkpt>
      <trkpt lat="45.90731" lon="4.68209">
        <ele>382.13</ele>
        <time>2025-09-15T13:29:28.659Z</time>
      </trkpt>
      <trkpt lat="45.90739" lon="4.68216">
        <ele>380.78</ele>
        <time>2025-09-15T13:29:33.319Z</time>
      </trkpt>
      <trkpt lat="45.90746" lon="4.68221">
        <ele>379.45</ele>
        <time>2025-09-15T13:29:37.982Z</time>
      </trkpt>
      <trkpt lat="45.90752" lon="4.68225">
        <ele>378.15</ele>
        <time>2025-09-15T13:29:42.649Z</time>
      </trkpt>
      <trkpt lat="45.90754" lon="4.68226">
        <ele>376.92</ele>
        <time>2025-09-15T13:29:47.317Z</time>
      </trkpt>
      <trkpt lat="45.90761" lon="4.68231">
        <ele>375.66</ele>
        <time>2025-09-15T13:29:51.988Z</time>
      </trkpt>
      <trkpt lat="45.90766" lon="4.68233">
        <ele>374.49</ele>
        <time>2025-09-15T13:29:56.661Z</time>
      </trkpt>
      <trkpt lat="45.90768" lon="4.68234">
        <ele>373.4</ele>
        <time>2025-09-15T13:30:01.335Z</time>
      </trkpt>
      <trkpt lat="45.90773" lon="4.68236">
        <ele>372.36</ele>
        <time>2025-09-15T13:30:06.011Z</time>
      </trkpt>
      <trkpt lat="45.90778" lon="4.68236">
        <ele>371.41</ele>
        <time>2025-09-15T13:30:10.689Z</time>
      </trkpt>
      <trkpt lat="45.9078" lon="4.68237">
        <ele>370.56</ele>
        <time>2025-09-15T13:30:15.369Z</time>
      </trkpt>
      <trkpt lat="45.90791" lon="4.68237">
        <ele>369.75</ele>
        <time>2025-09-15T13:30:20.053Z</time>
      </trkpt>
      <trkpt lat="45.90796" lon="4.68237">
        <ele>369.11</ele>
        <time>2025-09-15T13:30:24.739Z</time>
      </trkpt>
      <trkpt lat="45.90798" lon="4.68237">
        <ele>368.56</ele>
        <time>2025-09-15T13:30:29.426Z</time>
      </trkpt>
      <trkpt lat="45.90803" lon="4.68237">
        <ele>368.11</ele>
        <time>2025-09-15T13:30:34.116Z</time>
      </trkpt>
      <trkpt lat="45.90806" lon="4.68237">
        <ele>367.76</ele>
        <time>2025-09-15T13:30:38.807Z</time>
      </trkpt>
      <trkpt lat="45.90811" lon="4.68237">
        <ele>367.5</ele>
        <time>2025-09-15T13:30:43.500Z</time>
      </trkpt>
      <trkpt lat="45.90824" lon="4.68242">
        <ele>367.35</ele>
        <time>2025-09-15T13:30:48.199Z</time>
      </trkpt>
      <trkpt lat="45.90826" lon="4.68244">
        <ele>367.3</ele>
        <time>2025-09-15T13:30:52.899Z</time>
      </trkpt>
      <trkpt lat="45.90835" lon="4.68259">
        <ele>367.31</ele>
        <time>2025-09-15T13:30:57.605Z</time>
      </trkpt>
      <trkpt lat="45.90842" lon="4.68281">
        <ele>367.4</ele>
        <time>2025-09-15T13:31:02.318Z</time>
      </trkpt>
      <trkpt lat="45.90853" lon="4.6829">
        <ele>367.7</ele>
        <time>2025-09-15T13:31:07.037Z</time>
      </trkpt>
      <trkpt lat="45.90859" lon="4.68295">
        <ele>368.05</ele>
        <time>2025-09-15T13:31:11.759Z</time>
      </trkpt>
      <trkpt lat="45.90865" lon="4.68301">
        <ele>368.47</ele>
        <time>2025-09-15T13:31:16.484Z</time>
      </trkpt>
      <trkpt lat="45.90867" lon="4.68302">
        <ele>368.93</ele>
        <time>2025-09-15T13:31:21.210Z</time>
      </trkpt>
      <trkpt lat="45.90875" lon="4.68308">
        <ele>369.49</ele>
        <time>2025-09-15T13:31:25.940Z</time>
      </trkpt>
      <trkpt lat="45.90883" lon="4.68313">
        <ele>370.11</ele>
        <time>2025-09-15T13:31:30.674Z</time>
      </trkpt>
      <trkpt lat="45.90895" lon="4.68323">
        <ele>370.77</ele>
        <time>2025-09-15T13:31:35.414Z</time>
      </trkpt>
      <trkpt lat="45.909" lon="4.68327">
        <ele>371.42</ele>
        <time>2025-09-15T13:31:40.157Z</time>
      </trkpt>
      <trkpt lat="45.90902" lon="4.68329">
        <ele>372.09</ele>
        <time>2025-09-15T13:31:44.901Z</time>
      </trkpt>
      <trkpt lat="45.90904" lon="4.68331">
        <ele>372.78</ele>
        <time>2025-09-15T13:31:49.645Z</time>
      </trkpt>
      <trkpt lat="45.90916" lon="4.68344">
        <ele>373.52</ele>
        <time>2025-09-15T13:31:54.396Z</time>
      </trkpt>
      <trkpt lat="45.90923" lon="4.68352">
        <ele>374.28</ele>
        <time>2025-09-15T13:31:59.151Z</time>
      </trkpt>
      <trkpt lat="45.90926" lon="4.68356">
        <ele>375.01</ele>
        <time>2025-09-15T13:32:03.908Z</time>
      </trkpt>
      <trkpt lat="45.90942" lon="4.68368">
        <ele>375.77</ele>
        <time>2025-09-15T13:32:08.673Z</time>
      </trkpt>
      <trkpt lat="45.9095" lon="4.68374">
        <ele>376.53</ele>
        <time>2025-09-15T13:32:13.442Z</time>
      </trkpt>
      <trkpt lat="45.90954" lon="4.68376">
        <ele>377.29</ele>
        <time>2025-09-15T13:32:18.213Z</time>
      </trkpt>
      <trkpt lat="45.90962" lon="4.68381">
        <ele>378.04</ele>
        <time>2025-09-15T13:32:22.987Z</time>
      </trkpt>
      <trkpt lat="45.90975" lon="4.68388">
        <ele>378.82</ele>
        <time>2025-09-15T13:32:27.767Z</time>
      </trkpt>
      <trkpt lat="45.90984" lon="4.68391">
        <ele>379.58</ele>
        <time>2025-09-15T13:32:32.551Z</time>
      </trkpt>
      <trkpt lat="45.91001" lon="4.68396">
        <ele>380.41</ele>
        <time>2025-09-15T13:32:37.343Z</time>
      </trkpt>
      <trkpt lat="45.91003" lon="4.68396">
        <ele>381.13</ele>
        <time>2025-09-15T13:32:42.136Z</time>
      </trkpt>
      <trkpt lat="45.91015" lon="4.68399">
        <ele>381.89</ele>
        <time>2025-09-15T13:32:46.934Z</time>
      </trkpt>
      <trkpt lat="45.91017" lon="4.684">
        <ele>382.57</ele>
        <time>2025-09-15T13:32:51.733Z</time>
      </trkpt>
      <trkpt lat="45.91029" lon="4.68403">
        <ele>383.26</ele>
        <time>2025-09-15T13:32:56.538Z</time>
      </trkpt>
      <trkpt lat="45.91035" lon="4.68405">
        <ele>383.92</ele>
        <time>2025-09-15T13:33:01.346Z</time>
      </trkpt>
      <trkpt lat="45.91042" lon="4.68407">
        <ele>384.56</ele>
        <time>2025-09-15T13:33:06.156Z</time>
      </trkpt>
      <trkpt lat="45.91046" lon="4.68408">
        <ele>385.17</ele>
        <time>2025-09-15T13:33:10.968Z</time>
      </trkpt>
      <trkpt lat="45.91053" lon="4.6841">
        <ele>385.77</ele>
        <time>2025-09-15T13:33:15.784Z</time>
      </trkpt>
      <trkpt lat="45.91071" lon="4.68416">
        <ele>386.38</ele>
        <time>2025-09-15T13:33:20.608Z</time>
      </trkpt>
      <trkpt lat="45.91087" lon="4.68422">
        <ele>386.93</ele>
        <time>2025-09-15T13:33:25.439Z</time>
      </trkpt>
      <trkpt lat="45.91089" lon="4.68423">
        <ele>387.42</ele>
        <time>2025-09-15T13:33:30.271Z</time>
      </trkpt>
      <trkpt lat="45.91105" lon="4.68428">
        <ele>387.93</ele>
        <time>2025-09-15T13:33:35.110Z</time>
      </trkpt>
      <trkpt lat="45.91107" lon="4.68429">
        <ele>388.38</ele>
        <time>2025-09-15T13:33:39.950Z</time>
      </trkpt>
      <trkpt lat="45.91121" lon="4.68429">
        <ele>388.84</ele>
        <time>2025-09-15T13:33:44.796Z</time>
      </trkpt>
      <trkpt lat="45.91125" lon="4.68429">
        <ele>389.27</ele>
        <time>2025-09-15T13:33:49.644Z</time>
      </trkpt>
      <trkpt lat="45.91139" lon="4.6843">
        <ele>389.7</ele>
        <time>2025-09-15T13:33:54.498Z</time>
      </trkpt>
      <trkpt lat="45.91149" lon="4.68433">
        <ele>390.1</ele>
        <time>2025-09-15T13:33:59.357Z</time>
      </trkpt>
      <trkpt lat="45.9115" lon="4.68434">
        <ele>390.47</ele>
        <time>2025-09-15T13:34:04.216Z</time>
      </trkpt>
      <trkpt lat="45.91152" lon="4.68435">
        <ele>390.85</ele>
        <time>2025-09-15T13:34:09.076Z</time>
      </trkpt>
      <trkpt lat="45.91159" lon="4.68432">
        <ele>391.25</ele>
        <time>2025-09-15T13:34:13.939Z</time>
      </trkpt>
      <trkpt lat="45.91165" lon="4.68431">
        <ele>391.64</ele>
        <time>2025-09-15T13:34:18.805Z</time>
      </trkpt>
      <trkpt lat="45.91176" lon="4.68428">
        <ele>392.05</ele>
        <time>2025-09-15T13:34:23.676Z</time>
      </trkpt>
      <trkpt lat="45.91178" lon="4.68427">
        <ele>392.42</ele>
        <time>2025-09-15T13:34:28.548Z</time>
      </trkpt>
      <trkpt lat="45.91185" lon="4.68423">
        <ele>392.79</ele>
        <time>2025-09-15T13:34:33.423Z</time>
      </trkpt>
      <trkpt lat="45.91193" lon="4.68422">
        <ele>393.15</ele>
        <time>2025-09-15T13:34:38.301Z</time>
      </trkpt>
      <trkpt lat="45.91206" lon="4.68424">
        <ele>393.51</ele>
        <time>2025-09-15T13:34:43.185Z</time>
      </trkpt>
      <trkpt lat="45.91217" lon="4.68425">
        <ele>393.87</ele>
        <time>2025-09-15T13:34:48.074Z</time>
      </trkpt>
      <trkpt lat="45.91235" lon="4.68428">
        <ele>394.23</ele>
        <time>2025-09-15T13:34:52.971Z</time>
      </trkpt>
      <trkpt lat="45.91238" lon="4.68428">
        <ele>394.55</ele>
        <time>2025-09-15T13:34:57.869Z</time>
      </trkpt>
      <trkpt lat="45.91253" lon="4.68431">
        <ele>394.87</ele>
        <time>2025-09-15T13:35:02.774Z</time>
      </trkpt>
      <trkpt lat="45.91261" lon="4.68432">
        <ele>395.18</ele>
        <time>2025-09-15T13:35:07.682Z</time>
      </trkpt>
      <trkpt lat="45.91281" lon="4.68432">
        <ele>395.5</ele>
        <time>2025-09-15T13:35:12.599Z</time>
      </trkpt>
      <trkpt lat="45.9129" lon="4.6843">
        <ele>395.82</ele>
        <time>2025-09-15T13:35:17.520Z</time>
      </trkpt>
      <trkpt lat="45.91292" lon="4.68426">
        <ele>396.15</ele>
        <time>2025-09-15T13:35:22.443Z</time>
      </trkpt>
      <trkpt lat="45.91293" lon="4.68417">
        <ele>396.48</ele>
        <time>2025-09-15T13:35:27.368Z</time>
      </trkpt>
      <trkpt lat="45.91293" lon="4.68402">
        <ele>396.81</ele>
        <time>2025-09-15T13:35:32.298Z</time>
      </trkpt>
      <trkpt lat="45.91291" lon="4.68388">
        <ele>397.13</ele>
        <time>2025-09-15T13:35:37.232Z</time>
      </trkpt>
      <trkpt lat="45.9129" lon="4.6838">
        <ele>397.44</ele>
        <time>2025-09-15T13:35:42.169Z</time>
      </trkpt>
      <trkpt lat="45.91291" lon="4.68373">
        <ele>397.73</ele>
        <time>2025-09-15T13:35:47.108Z</time>
      </trkpt>
      <trkpt lat="45.91294" lon="4.68364">
        <ele>398.01</ele>
        <time>2025-09-15T13:35:52.050Z</time>
      </trkpt>
      <trkpt lat="45.91298" lon="4.6836">
        <ele>398.26</ele>
        <time>2025-09-15T13:35:56.994Z</time>
      </trkpt>
      <trkpt lat="45.91301" lon="4.68358">
        <ele>398.47</ele>
        <time>2025-09-15T13:36:01.939Z</time>
      </trkpt>
      <trkpt lat="45.91303" lon="4.6836">
        <ele>398.62</ele>
        <time>2025-09-15T13:36:06.886Z</time>
      </trkpt>
      <trkpt lat="45.91304" lon="4.68362">
        <ele>398.75</ele>
        <time>2025-09-15T13:36:11.833Z</time>
      </trkpt>
      <trkpt lat="45.91307" lon="4.68368">
        <ele>398.83</ele>
        <time>2025-09-15T13:36:16.783Z</time>
      </trkpt>
      <trkpt lat="45.9131" lon="4.68371">
        <ele>398.88</ele>
        <time>2025-09-15T13:36:21.734Z</time>
      </trkpt>
      <trkpt lat="45.91315" lon="4.68377">
        <ele>398.91</ele>
        <time>2025-09-15T13:36:26.688Z</time>
      </trkpt>
      <trkpt lat="45.91322" lon="4.68383">
        <ele>398.87</ele>
        <time>2025-09-15T13:36:31.646Z</time>
      </trkpt>
      <trkpt lat="45.91326" lon="4.68388">
        <ele>398.8</ele>
        <time>2025-09-15T13:36:36.606Z</time>
      </trkpt>
      <trkpt lat="45.91328" lon="4.6839">
        <ele>398.71</ele>
        <time>2025-09-15T13:36:41.567Z</time>
      </trkpt>
      <trkpt lat="45.91332" lon="4.68395">
        <ele>398.57</ele>
        <time>2025-09-15T13:36:46.530Z</time>
      </trkpt>
      <trkpt lat="45.91338" lon="4.68402">
        <ele>398.39</ele>
        <time>2025-09-15T13:36:51.497Z</time>
      </trkpt>
      <trkpt lat="45.91341" lon="4.68407">
        <ele>398.18</ele>
        <time>2025-09-15T13:36:56.466Z</time>
      </trkpt>
      <trkpt lat="45.91345" lon="4.68411">
        <ele>397.93</ele>
        <time>2025-09-15T13:37:01.437Z</time>
      </trkpt>
      <trkpt lat="45.91356" lon="4.68413">
        <ele>397.59</ele>
        <time>2025-09-15T13:37:06.413Z</time>
      </trkpt>
      <trkpt lat="45.9137" lon="4.6841">
        <ele>397.23</ele>
        <time>2025-09-15T13:37:11.395Z</time>
      </trkpt>
      <trkpt lat="45.91372" lon="4.68413">
        <ele>396.87</ele>
        <time>2025-09-15T13:37:16.378Z</time>
      </trkpt>
      <trkpt lat="45.9137" lon="4.68423">
        <ele>396.46</ele>
        <time>2025-09-15T13:37:21.364Z</time>
      </trkpt>
      <trkpt lat="45.9137" lon="4.68426">
        <ele>396.05</ele>
        <time>2025-09-15T13:37:26.351Z</time>
      </trkpt>
      <trkpt lat="45.91368" lon="4.68444">
        <ele>395.58</ele>
        <time>2025-09-15T13:37:31.344Z</time>
      </trkpt>
      <trkpt lat="45.91366" lon="4.68459">
        <ele>395.08</ele>
        <time>2025-09-15T13:37:36.341Z</time>
      </trkpt>
      <trkpt lat="45.91365" lon="4.68471">
        <ele>394.54</ele>
        <time>2025-09-15T13:37:41.342Z</time>
      </trkpt>
      <trkpt lat="45.91364" lon="4.68474">
        <ele>393.97</ele>
        <time>2025-09-15T13:37:46.344Z</time>
      </trkpt>
      <trkpt lat="45.91364" lon="4.68478">
        <ele>393.36</ele>
        <time>2025-09-15T13:37:51.348Z</time>
      </trkpt>
      <trkpt lat="45.91364" lon="4.68482">
        <ele>392.7</ele>
        <time>2025-09-15T13:37:56.353Z</time>
      </trkpt>
      <trkpt lat="45.91364" lon="4.6849">
        <ele>391.97</ele>
        <time>2025-09-15T13:38:01.360Z</time>
      </trkpt>
      <trkpt lat="45.91364" lon="4.68502">
        <ele>391.18</ele>
        <time>2025-09-15T13:38:06.371Z</time>
      </trkpt>
      <trkpt lat="45.91364" lon="4.68509">
        <ele>390.36</ele>
        <time>2025-09-15T13:38:11.384Z</time>
      </trkpt>
      <trkpt lat="45.91364" lon="4.68513">
        <ele>389.48</ele>
        <time>2025-09-15T13:38:16.398Z</time>
      </trkpt>
      <trkpt lat="45.91365" lon="4.68514">
        <ele>388.59</ele>
        <time>2025-09-15T13:38:21.413Z</time>
      </trkpt>
      <trkpt lat="45.91369" lon="4.68521">
        <ele>387.58</ele>
        <time>2025-09-15T13:38:26.430Z</time>
      </trkpt>
      <trkpt lat="45.91371" lon="4.68528">
        <ele>386.54</ele>
        <time>2025-09-15T13:38:31.450Z</time>
      </trkpt>
      <trkpt lat="45.91373" lon="4.68533">
        <ele>385.47</ele>
        <time>2025-09-15T13:38:36.472Z</time>
      </trkpt>
      <trkpt lat="45.91376" lon="4.68539">
        <ele>384.33</ele>
        <time>2025-09-15T13:38:41.496Z</time>
      </trkpt>
      <trkpt lat="45.91379" lon="4.68545">
        <ele>383.16</ele>
        <time>2025-09-15T13:38:46.522Z</time>
      </trkpt>
      <trkpt lat="45.91381" lon="4.68549">
        <ele>381.99</ele>
        <time>2025-09-15T13:38:51.549Z</time>
      </trkpt>
      <trkpt lat="45.91382" lon="4.68552">
        <ele>380.79</ele>
        <time>2025-09-15T13:38:56.578Z</time>
      </trkpt>
      <trkpt lat="45.91389" lon="4.68565">
        <ele>379.45</ele>
        <time>2025-09-15T13:39:01.611Z</time>
      </trkpt>
      <trkpt lat="45.91392" lon="4.68571">
        <ele>378.19</ele>
        <time>2025-09-15T13:39:06.647Z</time>
      </trkpt>
      <trkpt lat="45.91393" lon="4.68575">
        <ele>376.93</ele>
        <time>2025-09-15T13:39:11.684Z</time>
      </trkpt>
      <trkpt lat="45.91398" lon="4.68584">
        <ele>375.59</ele>
        <time>2025-09-15T13:39:16.725Z</time>
      </trkpt>
      <trkpt lat="45.91402" lon="4.68591">
        <ele>374.27</ele>
        <time>2025-09-15T13:39:21.768Z</time>
      </trkpt>
      <trkpt lat="45.91403" lon="4.68595">
        <ele>372.97</ele>
        <time>2025-09-15T13:39:26.813Z</time>
      </trkpt>
      <trkpt lat="45.91407" lon="4.68602">
        <ele>371.61</ele>
        <time>2025-09-15T13:39:31.860Z</time>
      </trkpt>
      <trkpt lat="45.91409" lon="4.68605">
        <ele>370.3</ele>
        <time>2025-09-15T13:39:36.909Z</time>
      </trkpt>
      <trkpt lat="45.91413" lon="4.68612">
        <ele>368.94</ele>
        <time>2025-09-15T13:39:41.960Z</time>
      </trkpt>
      <trkpt lat="45.91418" lon="4.68622">
        <ele>367.53</ele>
        <time>2025-09-15T13:39:47.015Z</time>
      </trkpt>
      <trkpt lat="45.91421" lon="4.68629">
        <ele>366.17</ele>
        <time>2025-09-15T13:39:52.073Z</time>
      </trkpt>
      <trkpt lat="45.91424" lon="4.68636">
        <ele>364.81</ele>
        <time>2025-09-15T13:39:57.133Z</time>
      </trkpt>
      <trkpt lat="45.91428" lon="4.68644">
        <ele>363.47</ele>
        <time>2025-09-15T13:40:02.196Z</time>
      </trkpt>
      <trkpt lat="45.91431" lon="4.68652">
        <ele>362.2</ele>
        <time>2025-09-15T13:40:07.262Z</time>
      </trkpt>
      <trkpt lat="45.91434" lon="4.68659">
        <ele>360.97</ele>
        <time>2025-09-15T13:40:12.331Z</time>
      </trkpt>
      <trkpt lat="45.91437" lon="4.68667">
        <ele>359.75</ele>
        <time>2025-09-15T13:40:17.402Z</time>
      </trkpt>
      <trkpt lat="45.91442" lon="4.68679">
        <ele>358.54</ele>
        <time>2025-09-15T13:40:22.477Z</time>
      </trkpt>
      <trkpt lat="45.91446" lon="4.68685">
        <ele>357.38</ele>
        <time>2025-09-15T13:40:27.555Z</time>
      </trkpt>
      <trkpt lat="45.9145" lon="4.6869">
        <ele>356.23</ele>
        <time>2025-09-15T13:40:32.636Z</time>
      </trkpt>
      <trkpt lat="45.91453" lon="4.68695">
        <ele>355.11</ele>
        <time>2025-09-15T13:40:37.719Z</time>
      </trkpt>
      <trkpt lat="45.91453" lon="4.68698">
        <ele>354.02</ele>
        <time>2025-09-15T13:40:42.802Z</time>
      </trkpt>
      <trkpt lat="45.91452" lon="4.68705">
        <ele>352.9</ele>
        <time>2025-09-15T13:40:47.888Z</time>
      </trkpt>
      <trkpt lat="45.91449" lon="4.68713">
        <ele>351.79</ele>
        <time>2025-09-15T13:40:52.976Z</time>
      </trkpt>
      <trkpt lat="45.91447" lon="4.6872">
        <ele>350.69</ele>
        <time>2025-09-15T13:40:58.067Z</time>
      </trkpt>
      <trkpt lat="45.91446" lon="4.68724">
        <ele>349.61</ele>
        <time>2025-09-15T13:41:03.159Z</time>
      </trkpt>
      <trkpt lat="45.91445" lon="4.68728">
        <ele>348.54</ele>
        <time>2025-09-15T13:41:08.252Z</time>
      </trkpt>
      <trkpt lat="45.91442" lon="4.68736">
        <ele>347.41</ele>
        <time>2025-09-15T13:41:13.348Z</time>
      </trkpt>
      <trkpt lat="45.91442" lon="4.6874">
        <ele>346.33</ele>
        <time>2025-09-15T13:41:18.445Z</time>
      </trkpt>
      <trkpt lat="45.91441" lon="4.68745">
        <ele>345.3</ele>
        <time>2025-09-15T13:41:23.544Z</time>
      </trkpt>
      <trkpt lat="45.9144" lon="4.68757">
        <ele>344.2</ele>
        <time>2025-09-15T13:41:28.647Z</time>
      </trkpt>
      <trkpt lat="45.91439" lon="4.68765">
        <ele>343.15</ele>
        <time>2025-09-15T13:41:33.752Z</time>
      </trkpt>
      <trkpt lat="45.91439" lon="4.68773">
        <ele>342.1</ele>
        <time>2025-09-15T13:41:38.859Z</time>
      </trkpt>
      <trkpt lat="45.91438" lon="4.68781">
        <ele>341.07</ele>
        <time>2025-09-15T13:41:43.969Z</time>
      </trkpt>
      <trkpt lat="45.91437" lon="4.68788">
        <ele>340.16</ele>
        <time>2025-09-15T13:41:49.081Z</time>
      </trkpt>
      <trkpt lat="45.91437" lon="4.68796">
        <ele>339.31</ele>
        <time>2025-09-15T13:41:54.195Z</time>
      </trkpt>
      <trkpt lat="45.91437" lon="4.68799">
        <ele>338.54</ele>
        <time>2025-09-15T13:41:59.311Z</time>
      </trkpt>
      <trkpt lat="45.91437" lon="4.68803">
        <ele>337.81</ele>
        <time>2025-09-15T13:42:04.428Z</time>
      </trkpt>
      <trkpt lat="45.91436" lon="4.68809">
        <ele>337.1</ele>
        <time>2025-09-15T13:42:09.547Z</time>
      </trkpt>
      <trkpt lat="45.91436" lon="4.68817">
        <ele>336.44</ele>
        <time>2025-09-15T13:42:14.668Z</time>
      </trkpt>
      <trkpt lat="45.91435" lon="4.68823">
        <ele>335.84</ele>
        <time>2025-09-15T13:42:19.791Z</time>
      </trkpt>
      <trkpt lat="45.91434" lon="4.68833">
        <ele>335.27</ele>
        <time>2025-09-15T13:42:24.917Z</time>
      </trkpt>
      <trkpt lat="45.91432" lon="4.68845">
        <ele>334.73</ele>
        <time>2025-09-15T13:42:30.047Z</time>
      </trkpt>
      <trkpt lat="45.91429" lon="4.68859">
        <ele>334.26</ele>
        <time>2025-09-15T13:42:35.181Z</time>
      </trkpt>
      <trkpt lat="45.91427" lon="4.68868">
        <ele>333.78</ele>
        <time>2025-09-15T13:42:40.318Z</time>
      </trkpt>
      <trkpt lat="45.91426" lon="4.68872">
        <ele>333.27</ele>
        <time>2025-09-15T13:42:45.456Z</time>
      </trkpt>
      <trkpt lat="45.91425" lon="4.68876">
        <ele>332.75</ele>
        <time>2025-09-15T13:42:50.596Z</time>
      </trkpt>
      <trkpt lat="45.91424" lon="4.68879">
        <ele>332.21</ele>
        <time>2025-09-15T13:42:55.737Z</time>
      </trkpt>
      <trkpt lat="45.91421" lon="4.68887">
        <ele>331.64</ele>
        <time>2025-09-15T13:43:00.881Z</time>
      </trkpt>
      <trkpt lat="45.9142" lon="4.68894">
        <ele>331.02</ele>
        <time>2025-09-15T13:43:06.027Z</time>
      </trkpt>
      <trkpt lat="45.91417" lon="4.68904">
        <ele>330.33</ele>
        <time>2025-09-15T13:43:11.176Z</time>
      </trkpt>
      <trkpt lat="45.91416" lon="4.68908">
        <ele>329.65</ele>
        <time>2025-09-15T13:43:16.326Z</time>
      </trkpt>
      <trkpt lat="45.91413" lon="4.68913">
        <ele>328.9</ele>
        <time>2025-09-15T13:43:21.478Z</time>
      </trkpt>
      <trkpt lat="45.91412" lon="4.68916">
        <ele>328.12</ele>
        <time>2025-09-15T13:43:26.632Z</time>
      </trkpt>
      <trkpt lat="45.91404" lon="4.68924">
        <ele>327.27</ele>
        <time>2025-09-15T13:43:31.790Z</time>
      </trkpt>
      <trkpt lat="45.91395" lon="4.68936">
        <ele>326.28</ele>
        <time>2025-09-15T13:43:36.953Z</time>
      </trkpt>
      <trkpt lat="45.91394" lon="4.68939">
        <ele>325.35</ele>
        <time>2025-09-15T13:43:42.117Z</time>
      </trkpt>
      <trkpt lat="45.91393" lon="4.68941">
        <ele>324.37</ele>
        <time>2025-09-15T13:43:47.282Z</time>
      </trkpt>
      <trkpt lat="45.91393" lon="4.68956">
        <ele>323.22</ele>
        <time>2025-09-15T13:43:52.451Z</time>
      </trkpt>
      <trkpt lat="45.91392" lon="4.68969">
        <ele>322.03</ele>
        <time>2025-09-15T13:43:57.624Z</time>
      </trkpt>
      <trkpt lat="45.91391" lon="4.68973">
        <ele>320.91</ele>
        <time>2025-09-15T13:44:02.799Z</time>
      </trkpt>
      <trkpt lat="45.91389" lon="4.68977">
        <ele>319.78</ele>
        <time>2025-09-15T13:44:07.975Z</time>
      </trkpt>
      <trkpt lat="45.91387" lon="4.68985">
        <ele>318.62</ele>
        <time>2025-09-15T13:44:13.154Z</time>
      </trkpt>
      <trkpt lat="45.91384" lon="4.68997">
        <ele>317.4</ele>
        <time>2025-09-15T13:44:18.337Z</time>
      </trkpt>
      <trkpt lat="45.91383" lon="4.69005">
        <ele>316.17</ele>
        <time>2025-09-15T13:44:23.522Z</time>
      </trkpt>
      <trkpt lat="45.91382" lon="4.69009">
        <ele>314.97</ele>
        <time>2025-09-15T13:44:28.709Z</time>
      </trkpt>
      <trkpt lat="45.91381" lon="4.69018">
        <ele>313.74</ele>
        <time>2025-09-15T13:44:33.898Z</time>
      </trkpt>
      <trkpt lat="45.9138" lon="4.69027">
        <ele>312.52</ele>
        <time>2025-09-15T13:44:39.090Z</time>
      </trkpt>
      <trkpt lat="45.91379" lon="4.69031">
        <ele>311.32</ele>
        <time>2025-09-15T13:44:44.283Z</time>
      </trkpt>
      <trkpt lat="45.91376" lon="4.6904">
        <ele>310.06</ele>
        <time>2025-09-15T13:44:49.479Z</time>
      </trkpt>
      <trkpt lat="45.91375" lon="4.69049">
        <ele>308.76</ele>
        <time>2025-09-15T13:44:54.678Z</time>
      </trkpt>
      <trkpt lat="45.91374" lon="4.69058">
        <ele>307.47</ele>
        <time>2025-09-15T13:44:59.880Z</time>
      </trkpt>
      <trkpt lat="45.91373" lon="4.69062">
        <ele>306.26</ele>
        <time>2025-09-15T13:45:05.083Z</time>
      </trkpt>
      <trkpt lat="45.91371" lon="4.69066">
        <ele>305.07</ele>
        <time>2025-09-15T13:45:10.288Z</time>
      </trkpt>
      <trkpt lat="45.91368" lon="4.69074">
        <ele>303.87</ele>
        <time>2025-09-15T13:45:15.495Z</time>
      </trkpt>
      <trkpt lat="45.91366" lon="4.69081">
        <ele>302.69</ele>
        <time>2025-09-15T13:45:20.705Z</time>
      </trkpt>
      <trkpt lat="45.91364" lon="4.69089">
        <ele>301.55</ele>
        <time>2025-09-15T13:45:25.917Z</time>
      </trkpt>
      <trkpt lat="45.91363" lon="4.69092">
        <ele>300.49</ele>
        <time>2025-09-15T13:45:31.130Z</time>
      </trkpt>
      <trkpt lat="45.91362" lon="4.69099">
        <ele>299.45</ele>
        <time>2025-09-15T13:45:36.346Z</time>
      </trkpt>
      <trkpt lat="45.91362" lon="4.69106">
        <ele>298.45</ele>
        <time>2025-09-15T13:45:41.564Z</time>
      </trkpt>
      <trkpt lat="45.91361" lon="4.69113">
        <ele>297.5</ele>
        <time>2025-09-15T13:45:46.784Z</time>
      </trkpt>
      <trkpt lat="45.91361" lon="4.69124">
        <ele>296.58</ele>
        <time>2025-09-15T13:45:52.007Z</time>
      </trkpt>
      <trkpt lat="45.91361" lon="4.69132">
        <ele>295.73</ele>
        <time>2025-09-15T13:45:57.233Z</time>
      </trkpt>
      <trkpt lat="45.9136" lon="4.69139">
        <ele>294.95</ele>
        <time>2025-09-15T13:46:02.461Z</time>
      </trkpt>
      <trkpt lat="45.9136" lon="4.69141">
        <ele>294.23</ele>
        <time>2025-09-15T13:46:07.689Z</time>
      </trkpt>
      <trkpt lat="45.91361" lon="4.69154">
        <ele>293.5</ele>
        <time>2025-09-15T13:46:12.921Z</time>
      </trkpt>
      <trkpt lat="45.91361" lon="4.69161">
        <ele>292.85</ele>
        <time>2025-09-15T13:46:18.156Z</time>
      </trkpt>
      <trkpt lat="45.9136" lon="4.69168">
        <ele>292.25</ele>
        <time>2025-09-15T13:46:23.393Z</time>
      </trkpt>
      <trkpt lat="45.9136" lon="4.6918">
        <ele>291.69</ele>
        <time>2025-09-15T13:46:28.633Z</time>
      </trkpt>
      <trkpt lat="45.9136" lon="4.69187">
        <ele>291.2</ele>
        <time>2025-09-15T13:46:33.876Z</time>
      </trkpt>
      <trkpt lat="45.91363" lon="4.69193">
        <ele>290.75</ele>
        <time>2025-09-15T13:46:39.121Z</time>
      </trkpt>
      <trkpt lat="45.91365" lon="4.69195">
        <ele>290.37</ele>
        <time>2025-09-15T13:46:44.367Z</time>
      </trkpt>
      <trkpt lat="45.91374" lon="4.69198">
        <ele>290.01</ele>
        <time>2025-09-15T13:46:49.617Z</time>
      </trkpt>
      <trkpt lat="45.91388" lon="4.69197">
        <ele>289.71</ele>
        <time>2025-09-15T13:46:54.873Z</time>
      </trkpt>
      <trkpt lat="45.91403" lon="4.69196">
        <ele>289.44</ele>
        <time>2025-09-15T13:47:00.136Z</time>
      </trkpt>
      <trkpt lat="45.91415" lon="4.69196">
        <ele>289.17</ele>
        <time>2025-09-15T13:47:05.404Z</time>
      </trkpt>
      <trkpt lat="45.91422" lon="4.69195">
        <ele>288.94</ele>
        <time>2025-09-15T13:47:10.675Z</time>
      </trkpt>
      <trkpt lat="45.91442" lon="4.69193">
        <ele>288.73</ele>
        <time>2025-09-15T13:47:15.955Z</time>
      </trkpt>
      <trkpt lat="45.91453" lon="4.69197">
        <ele>288.53</ele>
        <time>2025-09-15T13:47:21.240Z</time>
      </trkpt>
      <trkpt lat="45.91454" lon="4.692">
        <ele>288.34</ele>
        <time>2025-09-15T13:47:26.526Z</time>
      </trkpt>
      <trkpt lat="45.91455" lon="4.69211">
        <ele>288.13</ele>
        <time>2025-09-15T13:47:31.815Z</time>
      </trkpt>
      <trkpt lat="45.91457" lon="4.69212">
        <ele>287.94</ele>
        <time>2025-09-15T13:47:37.105Z</time>
      </trkpt>
      <trkpt lat="45.91458" lon="4.69214">
        <ele>287.73</ele>
        <time>2025-09-15T13:47:42.396Z</time>
      </trkpt>
      <trkpt lat="45.9146" lon="4.69214">
        <ele>287.51</ele>
        <time>2025-09-15T13:47:47.687Z</time>
      </trkpt>
      <trkpt lat="45.91463" lon="4.69213">
        <ele>287.28</ele>
        <time>2025-09-15T13:47:52.980Z</time>
      </trkpt>
      <trkpt lat="45.91469" lon="4.69212">
        <ele>287.01</ele>
        <time>2025-09-15T13:47:58.275Z</time>
      </trkpt>
      <trkpt lat="45.91477" lon="4.69213">
        <ele>286.73</ele>
        <time>2025-09-15T13:48:03.574Z</time>
      </trkpt>
      <trkpt lat="45.91485" lon="4.69214">
        <ele>286.42</ele>
        <time>2025-09-15T13:48:08.876Z</time>
      </trkpt>
      <trkpt lat="45.91491" lon="4.69215">
        <ele>286.08</ele>
        <time>2025-09-15T13:48:14.181Z</time>
      </trkpt>
      <trkpt lat="45.91493" lon="4.69218">
        <ele>285.71</ele>
        <time>2025-09-15T13:48:19.487Z</time>
      </trkpt>
      <trkpt lat="45.91492" lon="4.69233">
        <ele>285.24</ele>
        <time>2025-09-15T13:48:24.798Z</time>
      </trkpt>
      <trkpt lat="45.91491" lon="4.69247">
        <ele>284.78</ele>
        <time>2025-09-15T13:48:30.113Z</time>
      </trkpt>
      <trkpt lat="45.91489" lon="4.69261">
        <ele>284.29</ele>
        <time>2025-09-15T13:48:35.433Z</time>
      </trkpt>
      <trkpt lat="45.91489" lon="4.69269">
        <ele>283.79</ele>
        <time>2025-09-15T13:48:40.755Z</time>
      </trkpt>
      <trkpt lat="45.91488" lon="4.69276">
        <ele>283.26</ele>
        <time>2025-09-15T13:48:46.079Z</time>
      </trkpt>
      <trkpt lat="45.91486" lon="4.69294">
        <ele>282.64</ele>
        <time>2025-09-15T13:48:51.409Z</time>
      </trkpt>
      <trkpt lat="45.91485" lon="4.69301">
        <ele>282.03</ele>
        <time>2025-09-15T13:48:56.741Z</time>
      </trkpt>
      <trkpt lat="45.91484" lon="4.69311">
        <ele>281.39</ele>
        <time>2025-09-15T13:49:02.076Z</time>
      </trkpt>
      <trkpt lat="45.91483" lon="4.69325">
        <ele>280.71</ele>
        <time>2025-09-15T13:49:07.416Z</time>
      </trkpt>
      <trkpt lat="45.91482" lon="4.69329">
        <ele>280.07</ele>
        <time>2025-09-15T13:49:12.757Z</time>
      </trkpt>
      <trkpt lat="45.91486" lon="4.69347">
        <ele>279.34</ele>
        <time>2025-09-15T13:49:18.104Z</time>
      </trkpt>
      <trkpt lat="45.915" lon="4.69351">
        <ele>278.71</ele>
        <time>2025-09-15T13:49:23.457Z</time>
      </trkpt>
      <trkpt lat="45.91513" lon="4.69355">
        <ele>278.07</ele>
        <time>2025-09-15T13:49:28.816Z</time>
      </trkpt>
      <trkpt lat="45.91515" lon="4.69359">
        <ele>277.44</ele>
        <time>2025-09-15T13:49:34.176Z</time>
      </trkpt>
      <trkpt lat="45.91516" lon="4.69365">
        <ele>276.79</ele>
        <time>2025-09-15T13:49:39.538Z</time>
      </trkpt>
      <trkpt lat="45.91514" lon="4.69374">
        <ele>276.11</ele>
        <time>2025-09-15T13:49:44.903Z</time>
      </trkpt>
      <trkpt lat="45.91513" lon="4.69381">
        <ele>275.44</ele>
        <time>2025-09-15T13:49:50.270Z</time>
      </trkpt>
      <trkpt lat="45.91512" lon="4.69391">
        <ele>274.75</ele>
        <time>2025-09-15T13:49:55.641Z</time>
      </trkpt>
      <trkpt lat="45.91511" lon="4.69395">
        <ele>274.13</ele>
        <time>2025-09-15T13:50:01.013Z</time>
      </trkpt>
      <trkpt lat="45.91508" lon="4.69408">
        <ele>273.5</ele>
        <time>2025-09-15T13:50:06.389Z</time>
      </trkpt>
      <trkpt lat="45.91507" lon="4.69427">
        <ele>272.87</ele>
        <time>2025-09-15T13:50:11.771Z</time>
      </trkpt>
      <trkpt lat="45.91507" lon="4.69431">
        <ele>272.28</ele>
        <time>2025-09-15T13:50:17.154Z</time>
      </trkpt>
      <trkpt lat="45.91507" lon="4.69449">
        <ele>271.67</ele>
        <time>2025-09-15T13:50:22.542Z</time>
      </trkpt>
      <trkpt lat="45.91507" lon="4.69456">
        <ele>271.1</ele>
        <time>2025-09-15T13:50:27.933Z</time>
      </trkpt>
      <trkpt lat="45.91508" lon="4.69474">
        <ele>270.51</ele>
        <time>2025-09-15T13:50:33.329Z</time>
      </trkpt>
      <trkpt lat="45.9151" lon="4.69488">
        <ele>269.95</ele>
        <time>2025-09-15T13:50:38.729Z</time>
      </trkpt>
      <trkpt lat="45.91511" lon="4.69498">
        <ele>269.41</ele>
        <time>2025-09-15T13:50:44.133Z</time>
      </trkpt>
      <trkpt lat="45.91514" lon="4.69521">
        <ele>268.83</ele>
        <time>2025-09-15T13:50:49.544Z</time>
      </trkpt>
      <trkpt lat="45.91514" lon="4.69525">
        <ele>268.28</ele>
        <time>2025-09-15T13:50:54.956Z</time>
      </trkpt>
      <trkpt lat="45.91516" lon="4.69552">
        <ele>267.65</ele>
        <time>2025-09-15T13:51:00.376Z</time>
      </trkpt>
      <trkpt lat="45.91518" lon="4.69561">
        <ele>267.07</ele>
        <time>2025-09-15T13:51:05.799Z</time>
      </trkpt>
      <trkpt lat="45.91516" lon="4.6957">
        <ele>266.47</ele>
        <time>2025-09-15T13:51:11.225Z</time>
      </trkpt>
      <trkpt lat="45.91511" lon="4.69579">
        <ele>265.85</ele>
        <time>2025-09-15T13:51:16.655Z</time>
      </trkpt>
      <trkpt lat="45.91506" lon="4.6959">
        <ele>265.22</ele>
        <time>2025-09-15T13:51:22.088Z</time>
      </trkpt>
      <trkpt lat="45.91504" lon="4.69596">
        <ele>264.61</ele>
        <time>2025-09-15T13:51:27.524Z</time>
      </trkpt>
      <trkpt lat="45.91498" lon="4.6961">
        <ele>263.96</ele>
        <time>2025-09-15T13:51:32.965Z</time>
      </trkpt>
      <trkpt lat="45.91496" lon="4.69617">
        <ele>263.36</ele>
        <time>2025-09-15T13:51:38.408Z</time>
      </trkpt>
      <trkpt lat="45.91494" lon="4.69624">
        <ele>262.75</ele>
        <time>2025-09-15T13:51:43.853Z</time>
      </trkpt>
      <trkpt lat="45.91492" lon="4.69645">
        <ele>262.11</ele>
        <time>2025-09-15T13:51:49.305Z</time>
      </trkpt>
      <trkpt lat="45.91492" lon="4.69649">
        <ele>261.5</ele>
        <time>2025-09-15T13:51:54.758Z</time>
      </trkpt>
      <trkpt lat="45.9149" lon="4.69664">
        <ele>260.89</ele>
        <time>2025-09-15T13:52:00.216Z</time>
      </trkpt>
      <trkpt lat="45.9149" lon="4.69675">
        <ele>260.26</ele>
        <time>2025-09-15T13:52:05.677Z</time>
      </trkpt>
      <trkpt lat="45.9149" lon="4.69683">
        <ele>259.6</ele>
        <time>2025-09-15T13:52:11.140Z</time>
      </trkpt>
      <trkpt lat="45.91485" lon="4.69701">
        <ele>258.9</ele>
        <time>2025-09-15T13:52:16.609Z</time>
      </trkpt>
      <trkpt lat="45.91484" lon="4.69704">
        <ele>258.21</ele>
        <time>2025-09-15T13:52:22.079Z</time>
      </trkpt>
      <trkpt lat="45.9148" lon="4.69719">
        <ele>257.47</ele>
        <time>2025-09-15T13:52:27.554Z</time>
      </trkpt>
      <trkpt lat="45.91477" lon="4.6973">
        <ele>256.69</ele>
        <time>2025-09-15T13:52:33.033Z</time>
      </trkpt>
      <trkpt lat="45.91475" lon="4.69738">
        <ele>255.89</ele>
        <time>2025-09-15T13:52:38.514Z</time>
      </trkpt>
      <trkpt lat="45.91473" lon="4.69746">
        <ele>255.06</ele>
        <time>2025-09-15T13:52:43.998Z</time>
      </trkpt>
      <trkpt lat="45.91469" lon="4.69759">
        <ele>254.18</ele>
        <time>2025-09-15T13:52:49.487Z</time>
      </trkpt>
      <trkpt lat="45.91465" lon="4.69774">
        <ele>253.27</ele>
        <time>2025-09-15T13:52:54.980Z</time>
      </trkpt>
      <trkpt lat="45.91461" lon="4.69798">
        <ele>252.31</ele>
        <time>2025-09-15T13:53:00.481Z</time>
      </trkpt>
      <trkpt lat="45.9146" lon="4.6981">
        <ele>251.4</ele>
        <time>2025-09-15T13:53:05.986Z</time>
      </trkpt>
      <trkpt lat="45.91458" lon="4.69813">
        <ele>250.5</ele>
        <time>2025-09-15T13:53:11.492Z</time>
      </trkpt>
      <trkpt lat="45.91456" lon="4.69821">
        <ele>249.53</ele>
        <time>2025-09-15T13:53:17.000Z</time>
      </trkpt>
      <trkpt lat="45.91447" lon="4.69836">
        <ele>248.46</ele>
        <time>2025-09-15T13:53:22.514Z</time>
      </trkpt>
      <trkpt lat="45.91444" lon="4.69842">
        <ele>247.49</ele>
        <time>2025-09-15T13:53:28.031Z</time>
      </trkpt>
      <trkpt lat="45.91441" lon="4.69848">
        <ele>246.5</ele>
        <time>2025-09-15T13:53:33.550Z</time>
      </trkpt>
      <trkpt lat="45.91433" lon="4.69863">
        <ele>245.49</ele>
        <time>2025-09-15T13:53:39.075Z</time>
      </trkpt>
      <trkpt lat="45.91428" lon="4.69872">
        <ele>244.49</ele>
        <time>2025-09-15T13:53:44.603Z</time>
      </trkpt>
      <trkpt lat="45.91421" lon="4.69882">
        <ele>243.46</ele>
        <time>2025-09-15T13:53:50.136Z</time>
      </trkpt>
      <trkpt lat="45.91418" lon="4.69892">
        <ele>242.47</ele>
        <time>2025-09-15T13:53:55.672Z</time>
      </trkpt>
      <trkpt lat="45.91417" lon="4.69903">
        <ele>241.48</ele>
        <time>2025-09-15T13:54:01.211Z</time>
      </trkpt>
      <trkpt lat="45.91416" lon="4.69926">
        <ele>240.41</ele>
        <time>2025-09-15T13:54:06.758Z</time>
      </trkpt>
      <trkpt lat="45.91416" lon="4.69941">
        <ele>239.35</ele>
        <time>2025-09-15T13:54:12.309Z</time>
      </trkpt>
      <trkpt lat="45.91418" lon="4.69952">
        <ele>238.35</ele>
        <time>2025-09-15T13:54:17.863Z</time>
      </trkpt>
      <trkpt lat="45.91418" lon="4.69955">
        <ele>237.41</ele>
        <time>2025-09-15T13:54:23.418Z</time>
      </trkpt>
      <trkpt lat="45.91419" lon="4.69962">
        <ele>236.47</ele>
        <time>2025-09-15T13:54:28.976Z</time>
      </trkpt>
      <trkpt lat="45.91421" lon="4.69974">
        <ele>235.51</ele>
        <time>2025-09-15T13:54:34.537Z</time>
      </trkpt>
      <trkpt lat="45.91422" lon="4.69985">
        <ele>234.59</ele>
        <time>2025-09-15T13:54:40.102Z</time>
      </trkpt>
      <trkpt lat="45.91422" lon="4.69993">
        <ele>233.71</ele>
        <time>2025-09-15T13:54:45.669Z</time>
      </trkpt>
      <trkpt lat="45.91422" lon="4.69997">
        <ele>232.87</ele>
        <time>2025-09-15T13:54:51.237Z</time>
      </trkpt>
      <trkpt lat="45.91423" lon="4.70009">
        <ele>232.01</ele>
        <time>2025-09-15T13:54:56.809Z</time>
      </trkpt>
      <trkpt lat="45.91424" lon="4.70016">
        <ele>231.21</ele>
        <time>2025-09-15T13:55:02.383Z</time>
      </trkpt>
      <trkpt lat="45.91425" lon="4.70027">
        <ele>230.41</ele>
        <time>2025-09-15T13:55:07.961Z</time>
      </trkpt>
      <trkpt lat="45.91424" lon="4.7004">
        <ele>229.62</ele>
        <time>2025-09-15T13:55:13.543Z</time>
      </trkpt>
      <trkpt lat="45.91421" lon="4.70052">
        <ele>228.85</ele>
        <time>2025-09-15T13:55:19.129Z</time>
      </trkpt>
      <trkpt lat="45.91419" lon="4.70059">
        <ele>228.07</ele>
        <time>2025-09-15T13:55:24.717Z</time>
      </trkpt>
      <trkpt lat="45.91417" lon="4.70071">
        <ele>227.28</ele>
        <time>2025-09-15T13:55:30.309Z</time>
      </trkpt>
      <trkpt lat="45.91417" lon="4.70075">
        <ele>226.55</ele>
        <time>2025-09-15T13:55:35.902Z</time>
      </trkpt>
      <trkpt lat="45.91416" lon="4.70078">
        <ele>225.83</ele>
        <time>2025-09-15T13:55:41.496Z</time>
      </trkpt>
      <trkpt lat="45.91417" lon="4.70092">
        <ele>225.09</ele>
        <time>2025-09-15T13:55:47.094Z</time>
      </trkpt>
      <trkpt lat="45.91418" lon="4.70096">
        <ele>224.4</ele>
        <time>2025-09-15T13:55:52.693Z</time>
      </trkpt>
      <trkpt lat="45.91419" lon="4.70098">
        <ele>223.72</ele>
        <time>2025-09-15T13:55:58.293Z</time>
      </trkpt>
      <trkpt lat="45.9142" lon="4.70102">
        <ele>223.06</ele>
        <time>2025-09-15T13:56:03.894Z</time>
      </trkpt>
      <trkpt lat="45.91423" lon="4.70115">
        <ele>222.34</ele>
        <time>2025-09-15T13:56:09.500Z</time>
      </trkpt>
      <trkpt lat="45.91424" lon="4.70126">
        <ele>221.62</ele>
        <time>2025-09-15T13:56:15.109Z</time>
      </trkpt>
      <trkpt lat="45.91423" lon="4.70138">
        <ele>220.89</ele>
        <time>2025-09-15T13:56:20.722Z</time>
      </trkpt>
      <trkpt lat="45.91423" lon="4.70146">
        <ele>220.22</ele>
        <time>2025-09-15T13:56:26.337Z</time>
      </trkpt>
      <trkpt lat="45.91422" lon="4.70154">
        <ele>219.55</ele>
        <time>2025-09-15T13:56:31.955Z</time>
      </trkpt>
      <trkpt lat="45.91421" lon="4.70167">
        <ele>218.86</ele>
        <time>2025-09-15T13:56:37.577Z</time>
      </trkpt>
      <trkpt lat="45.91416" lon="4.70181">
        <ele>218.23</ele>
        <time>2025-09-15T13:56:43.204Z</time>
      </trkpt>
      <trkpt lat="45.91414" lon="4.70183">
        <ele>217.66</ele>
        <time>2025-09-15T13:56:48.832Z</time>
      </trkpt>
      <trkpt lat="45.91405" lon="4.7019">
        <ele>217.12</ele>
        <time>2025-09-15T13:56:54.464Z</time>
      </trkpt>
      <trkpt lat="45.91401" lon="4.70205">
        <ele>216.56</ele>
        <time>2025-09-15T13:57:00.101Z</time>
      </trkpt>
      <trkpt lat="45.91396" lon="4.70217">
        <ele>216.01</ele>
        <time>2025-09-15T13:57:05.742Z</time>
      </trkpt>
      <trkpt lat="45.91394" lon="4.70218">
        <ele>215.47</ele>
        <time>2025-09-15T13:57:11.385Z</time>
      </trkpt>
      <trkpt lat="45.91379" lon="4.70219">
        <ele>214.95</ele>
        <time>2025-09-15T13:57:17.034Z</time>
      </trkpt>
      <trkpt lat="45.91378" lon="4.7022">
        <ele>214.38</ele>
        <time>2025-09-15T13:57:22.684Z</time>
      </trkpt>
      <trkpt lat="45.91378" lon="4.70223">
        <ele>213.8</ele>
        <time>2025-09-15T13:57:28.334Z</time>
      </trkpt>
      <trkpt lat="45.91378" lon="4.70226">
        <ele>213.19</ele>
        <time>2025-09-15T13:57:33.985Z</time>
      </trkpt>
      <trkpt lat="45.91378" lon="4.70248">
        <ele>212.49</ele>
        <time>2025-09-15T13:57:39.643Z</time>
      </trkpt>
      <trkpt lat="45.91377" lon="4.70252">
        <ele>211.86</ele>
        <time>2025-09-15T13:57:45.303Z</time>
      </trkpt>
      <trkpt lat="45.91377" lon="4.7027">
        <ele>211.13</ele>
        <time>2025-09-15T13:57:50.968Z</time>
      </trkpt>
      <trkpt lat="45.91378" lon="4.70278">
        <ele>210.43</ele>
        <time>2025-09-15T13:57:56.636Z</time>
      </trkpt>
      <trkpt lat="45.91379" lon="4.70288">
        <ele>209.72</ele>
        <time>2025-09-15T13:58:02.307Z</time>
      </trkpt>
      <trkpt lat="45.91378" lon="4.70297">
        <ele>209.01</ele>
        <time>2025-09-15T13:58:07.980Z</time>
      </trkpt>
      <trkpt lat="45.91379" lon="4.70313">
        <ele>208.28</ele>
        <time>2025-09-15T13:58:13.658Z</time>
      </trkpt>
      <trkpt lat="45.91378" lon="4.70337">
        <ele>207.55</ele>
        <time>2025-09-15T13:58:19.344Z</time>
      </trkpt>
      <trkpt lat="45.91377" lon="4.7034">
        <ele>206.87</ele>
        <time>2025-09-15T13:58:25.031Z</time>
      </trkpt>
      <trkpt lat="45.91376" lon="4.70356">
        <ele>206.17</ele>
        <time>2025-09-15T13:58:30.722Z</time>
      </trkpt>
      <trkpt lat="45.91374" lon="4.70369">
        <ele>205.46</ele>
        <time>2025-09-15T13:58:36.417Z</time>
      </trkpt>
      <trkpt lat="45.91375" lon="4.70383">
        <ele>204.77</ele>
        <time>2025-09-15T13:58:42.117Z</time>
      </trkpt>
      <trkpt lat="45.91376" lon="4.70386">
        <ele>204.12</ele>
        <time>2025-09-15T13:58:47.818Z</time>
      </trkpt>
      <trkpt lat="45.91379" lon="4.70412">
        <ele>203.38</ele>
        <time>2025-09-15T13:58:53.527Z</time>
      </trkpt>
      <trkpt lat="45.91379" lon="4.7042">
        <ele>202.73</ele>
        <time>2025-09-15T13:58:59.238Z</time>
      </trkpt>
      <trkpt lat="45.91379" lon="4.70432">
        <ele>202.1</ele>
        <time>2025-09-15T13:59:04.953Z</time>
      </trkpt>
      <trkpt lat="45.91378" lon="4.70451">
        <ele>201.48</ele>
        <time>2025-09-15T13:59:10.674Z</time>
      </trkpt>
      <trkpt lat="45.91378" lon="4.70455">
        <ele>200.95</ele>
        <time>2025-09-15T13:59:16.396Z</time>
      </trkpt>
      <trkpt lat="45.91379" lon="4.70476">
        <ele>200.41</ele>
        <time>2025-09-15T13:59:22.124Z</time>
      </trkpt>
      <trkpt lat="45.91378" lon="4.70483">
        <ele>199.97</ele>
        <time>2025-09-15T13:59:27.855Z</time>
      </trkpt>
      <trkpt lat="45.91378" lon="4.70493">
        <ele>199.58</ele>
        <time>2025-09-15T13:59:33.589Z</time>
      </trkpt>
      <trkpt lat="45.91379" lon="4.70501">
        <ele>199.24</ele>
        <time>2025-09-15T13:59:39.325Z</time>
      </trkpt>
      <trkpt lat="45.91379" lon="4.70513">
        <ele>198.94</ele>
        <time>2025-09-15T13:59:45.065Z</time>
      </trkpt>
      <trkpt lat="45.91379" lon="4.70521">
        <ele>198.71</ele>
        <time>2025-09-15T13:59:50.807Z</time>
      </trkpt>
      <trkpt lat="45.9138" lon="4.70546">
        <ele>198.51</ele>
        <time>2025-09-15T13:59:56.557Z</time>
      </trkpt>
      <trkpt lat="45.91382" lon="4.70549">
        <ele>198.36</ele>
        <time>2025-09-15T14:00:02.308Z</time>
      </trkpt>
      <trkpt lat="45.91386" lon="4.70552">
        <ele>198.26</ele>
        <time>2025-09-15T14:00:08.061Z</time>
      </trkpt>
      <trkpt lat="45.9142" lon="4.70562">
        <ele>198.17</ele>
        <time>2025-09-15T14:00:25.345Z</time>
      </trkpt>
      <trkpt lat="45.91424" lon="4.70563">
        <ele>198.18</ele>
        <time>2025-09-15T14:00:31.115Z</time>
      </trkpt>
      <trkpt lat="45.91435" lon="4.70564">
        <ele>198.19</ele>
        <time>2025-09-15T14:00:36.890Z</time>
      </trkpt>
      <trkpt lat="45.91454" lon="4.70561">
        <ele>198.16</ele>
        <time>2025-09-15T14:00:42.674Z</time>
      </trkpt>
      <trkpt lat="45.91468" lon="4.7056">
        <ele>198.18</ele>
        <time>2025-09-15T14:00:48.464Z</time>
      </trkpt>
      <trkpt lat="45.9147" lon="4.70559">
        <ele>198.19</ele>
        <time>2025-09-15T14:00:54.255Z</time>
      </trkpt>
      <trkpt lat="45.91488" lon="4.70546">
        <ele>198.17</ele>
        <time>2025-09-15T14:01:00.055Z</time>
      </trkpt>
      <trkpt lat="45.91504" lon="4.7053">
        <ele>198.23</ele>
        <time>2025-09-15T14:01:05.863Z</time>
      </trkpt>
      <trkpt lat="45.91507" lon="4.70529">
        <ele>198.22</ele>
        <time>2025-09-15T14:01:11.672Z</time>
      </trkpt>
      <trkpt lat="45.91515" lon="4.70525">
        <ele>198.19</ele>
        <time>2025-09-15T14:01:17.485Z</time>
      </trkpt>
      <trkpt lat="45.91517" lon="4.70525">
        <ele>198.11</ele>
        <time>2025-09-15T14:01:23.299Z</time>
      </trkpt>
      <trkpt lat="45.91534" lon="4.70522">
        <ele>198.05</ele>
        <time>2025-09-15T14:01:29.121Z</time>
      </trkpt>
      <trkpt lat="45.91554" lon="4.70523">
        <ele>197.9</ele>
        <time>2025-09-15T14:01:34.951Z</time>
      </trkpt>
      <trkpt lat="45.91556" lon="4.70523">
        <ele>197.68</ele>
        <time>2025-09-15T14:01:40.782Z</time>
      </trkpt>
      <trkpt lat="45.91567" lon="4.70548">
        <ele>196.68</ele>
        <time>2025-09-15T14:01:58.296Z</time>
      </trkpt>
      <trkpt lat="45.9157" lon="4.70564">
        <ele>196.24</ele>
        <time>2025-09-15T14:02:04.142Z</time>
      </trkpt>
      <trkpt lat="45.91571" lon="4.70576">
        <ele>195.77</ele>
        <time>2025-09-15T14:02:09.992Z</time>
      </trkpt>
      <trkpt lat="45.91572" lon="4.70595">
        <ele>195.24</ele>
        <time>2025-09-15T14:02:15.848Z</time>
      </trkpt>
      <trkpt lat="45.91571" lon="4.70607">
        <ele>194.78</ele>
        <time>2025-09-15T14:02:21.707Z</time>
      </trkpt>
      <trkpt lat="45.91572" lon="4.70619">
        <ele>194.32</ele>
        <time>2025-09-15T14:02:27.570Z</time>
      </trkpt>
      <trkpt lat="45.91572" lon="4.70631">
        <ele>193.9</ele>
        <time>2025-09-15T14:02:33.437Z</time>
      </trkpt>
      <trkpt lat="45.91572" lon="4.70643">
        <ele>193.49</ele>
        <time>2025-09-15T14:02:39.307Z</time>
      </trkpt>
      <trkpt lat="45.9157" lon="4.7065">
        <ele>193.12</ele>
        <time>2025-09-15T14:02:45.180Z</time>
      </trkpt>
      <trkpt lat="45.91569" lon="4.70665">
        <ele>192.77</ele>
        <time>2025-09-15T14:02:51.058Z</time>
      </trkpt>
      <trkpt lat="45.91565" lon="4.70687">
        <ele>192.44</ele>
        <time>2025-09-15T14:02:56.942Z</time>
      </trkpt>
      <trkpt lat="45.91564" lon="4.70701">
        <ele>192.17</ele>
        <time>2025-09-15T14:03:02.830Z</time>
      </trkpt>
      <trkpt lat="45.91563" lon="4.70704">
        <ele>191.98</ele>
        <time>2025-09-15T14:03:08.719Z</time>
      </trkpt>
    </trkseg>
  </trk>
</gpx>